[[{"header":{"parameterUnit":"m.s-1","parameterCategory":1,"la1":30.6,"la2":28.766,"lo1":-90.7593,"lo2":-88.6598,"dy":0.0162,"dx":0.0183,"nx":116,"ny":114,"refTime":"2023-11-03T18:00:00:Z","depth":0,"parameterNumber":2,"parameterNumberName":"U-component_of_WINDS"},"data":[0.0,0.0,0.0,0.0,0.0,0.0,0.0,0.0,0.0,0.0,0.0,0.0,0.0,0.0,0.0,0.0,0.0,0.0,0.0,0.0,0.0,0.0,0.0,0.0,0.0,0.0,0.0,0.0,0.0,0.0,0.0,0.0,0.0,0.0,0.0,0.0,0.0,0.0,0.0,0.0,0.0,0.0,0.0,0.0,0.0,0.0,0.0,0.0,0.0,0.0,0.0,0.0,0.0,0.0,0.0,0.0,0.0,0.0,0.0,0.0,0.0,0.0,0.0,0.0,0.0,0.0,0.0,0.0,0.0,0.0,0.0,0.0,0.0,0.0,0.0,0.0,0.0,0.0,0.0,0.0,0.0,0.0,0.0,0.0,0.0,0.0,0.0,0.0,0.0,0.0,0.0,0.0,0.0,0.0,0.0,0.0,0.0,0.0,0.0,0.0,0.0,0.0,0.0,0.0,0.0,0.0,0.0,0.0,0.0,0.0,0.0,0.0,0.0,0.0,0.0,0.0,0.0,0.0,0.0,0.0,0.0,0.0,0.0,0.0,0.0,0.0,0.0,0.0,0.0,0.0,0.0,0.0,0.0,0.0,0.0,0.0,0.0,0.0,0.0,0.0,0.0,0.0,0.0,0.0,0.0,0.0,0.0,0.0,0.0,0.0,0.0,0.0,0.0,0.0,0.0,0.0,0.0,0.0,0.0,0.0,0.0,0.0,0.0,0.0,0.0,0.0,0.0,0.0,0.0,0.0,0.0,0.0,0.0,0.0,0.0,0.0,0.0,0.0,0.0,0.0,0.0,0.0,0.0,0.0,0.0,0.0,0.0,0.0,0.0,0.0,0.0,0.0,0.0,0.0,0.0,0.0,0.0,0.0,0.0,0.0,0.0,0.0,0.0,0.0,0.0,0.0,0.0,0.0,0.0,0.0,0.0,0.0,0.0,0.0,0.0,0.0,0.0,0.0,0.0,0.0,0.0,0.0,0.0,0.0,0.0,0.0,0.0,0.0,0.0,0.0,0.0,0.0,0.0,0.0,0.0,0.0,0.0,0.0,0.0,0.0,0.0,0.0,0.0,0.0,0.0,0.0,0.0,0.0,0.0,0.0,0.0,0.0,0.0,0.0,0.0,0.0,0.0,0.0,0.0,0.0,0.0,0.0,0.0,0.0,0.0,0.0,0.0,0.0,0.0,0.0,0.0,0.0,0.0,0.0,0.0,0.0,0.0,0.0,0.0,0.0,0.0,0.0,0.0,0.0,0.0,0.0,0.0,0.0,0.0,0.0,0.0,0.0,0.0,0.0,0.0,0.0,0.0,0.0,0.0,0.0,0.0,0.0,0.0,0.0,0.0,0.0,0.0,0.0,0.0,0.0,0.0,0.0,0.0,0.0,0.0,0.0,0.0,0.0,0.0,0.0,0.0,0.0,0.0,0.0,0.0,0.0,0.0,0.0,0.0,0.0,0.0,0.0,0.0,0.0,0.0,0.0,0.0,0.0,0.0,0.0,0.0,0.0,0.0,0.0,0.0,0.0,0.0,0.0,0.0,0.0,0.0,0.0,0.0,0.0,0.0,0.0,0.0,0.0,0.0,0.0,0.0,0.0,0.0,0.0,0.0,0.0,0.0,0.0,0.0,0.0,0.0,0.0,0.0,0.0,0.0,0.0,0.0,0.0,0.0,0.0,0.0,0.0,0.0,0.0,0.0,0.0,0.0,0.0,0.0,0.0,0.0,0.0,0.0,0.0,0.0,0.0,0.0,0.0,0.0,0.0,0.0,0.0,0.0,0.0,0.0,0.0,0.0,0.0,0.0,0.0,0.0,0.0,0.0,0.0,0.0,0.0,0.0,0.0,0.0,0.0,0.0,0.0,0.0,0.0,0.0,0.0,0.0,0.0,0.0,0.0,0.0,0.0,0.0,0.0,0.0,0.0,0.0,0.0,0.0,0.0,0.0,0.0,0.0,0.0,0.0,0.0,0.0,0.0,0.0,0.0,0.0,0.0,0.0,0.0,0.0,0.0,0.0,0.0,0.0,0.0,0.0,0.0,0.0,0.0,0.0,0.0,0.0,0.0,0.0,0.0,0.0,0.0,0.0,0.0,0.0,0.0,0.0,0.0,0.0,0.0,0.0,0.0,0.0,0.0,0.0,0.0,0.0,0.0,0.0,0.0,0.0,0.0,0.0,0.0,0.0,0.0,0.0,0.0,0.0,0.0,0.0,0.0,0.0,0.0,0.0,0.0,0.0,0.0,0.0,0.0,0.0,0.0,0.0,0.0,0.0,0.0,0.0,0.0,0.0,0.0,0.0,0.0,0.0,0.0,0.0,0.0,0.0,0.0,0.0,0.0,0.0,0.0,0.0,0.0,0.0,0.0,0.0,0.0,0.0,0.0,0.0,0.0,0.0,0.0,0.0,0.0,0.0,0.0,0.0,0.0,0.0,0.0,0.0,0.0,0.0,0.0,0.0,0.0,0.0,0.0,0.0,0.0,0.0,0.0,0.0,0.0,0.0,0.0,0.0,0.0,0.0,0.0,0.0,0.0,0.0,0.0,0.0,0.0,0.0,0.0,0.0,0.0,0.0,0.0,0.0,0.0,0.0,0.0,0.0,0.0,0.0,0.0,0.0,0.0,0.0,0.0,0.0,0.0,0.0,0.0,0.0,0.0,0.0,0.0,0.0,0.0,0.0,0.0,0.0,0.0,0.0,0.0,0.0,0.0,0.0,0.0,0.0,0.0,0.0,0.0,0.0,0.0,0.0,0.0,0.0,0.0,0.0,0.0,0.0,0.0,0.0,0.0,0.0,0.0,0.0,0.0,0.0,0.0,0.0,0.0,0.0,0.0,0.0,0.0,0.0,0.0,0.0,0.0,0.0,0.0,0.0,0.0,0.0,0.0,0.0,0.0,0.0,0.0,0.0,0.0,0.0,0.0,0.0,0.0,0.0,0.0,0.0,0.0,0.0,0.0,0.0,0.0,0.0,0.0,0.0,0.0,0.0,0.0,0.0,0.0,0.0,0.0,0.0,0.0,0.0,0.0,0.0,0.0,0.0,0.0,0.0,0.0,0.0,0.0,0.0,0.0,0.0,0.0,0.0,0.0,0.0,0.0,0.0,0.0,0.0,0.0,0.0,0.0,0.0,0.0,0.0,0.0,0.0,0.0,0.0,0.0,0.0,0.0,0.0,0.0,0.0,0.0,0.0,0.0,0.0,0.0,0.0,0.0,0.0,0.0,0.0,0.0,0.0,0.0,0.0,0.0,0.0,0.0,0.0,0.0,0.0,0.0,0.0,0.0,0.0,0.0,0.0,0.0,0.0,0.0,0.0,0.0,0.0,0.0,0.0,0.0,0.0,0.0,0.0,0.0,0.0,0.0,0.0,0.0,0.0,0.0,0.0,0.0,0.0,0.0,0.0,0.0,0.0,0.0,0.0,0.0,0.0,0.0,0.0,0.0,0.0,0.0,0.0,0.0,0.0,0.0,0.0,0.0,0.0,0.0,0.0,0.0,0.0,0.0,0.0,0.0,0.0,0.0,0.0,0.0,0.0,0.0,0.0,0.0,0.0,0.0,0.0,0.0,0.0,0.0,0.0,0.0,0.0,0.0,0.0,0.0,0.0,0.0,0.0,0.0,0.0,0.0,0.0,0.0,0.0,0.0,0.0,0.0,0.0,0.0,0.0,0.0,0.0,0.0,0.0,0.0,0.0,0.0,0.0,0.0,0.0,0.0,0.0,0.0,0.0,0.0,0.0,0.0,0.0,0.0,0.0,0.0,0.0,0.0,0.0,0.0,0.0,0.0,0.0,0.0,0.0,0.0,0.0,0.0,0.0,0.0,0.0,0.0,0.0,0.0,0.0,0.0,0.0,0.0,0.0,0.0,0.0,0.0,0.0,0.0,0.0,0.0,0.0,0.0,0.0,0.0,0.0,0.0,0.0,0.0,0.0,0.0,0.0,0.0,0.0,0.0,0.0,0.0,0.0,0.0,0.0,0.0,0.0,0.0,0.0,0.0,0.0,0.0,0.0,0.0,0.0,0.0,0.0,0.0,0.0,0.0,0.0,0.0,0.0,0.0,0.0,0.0,0.0,0.0,0.0,0.0,0.0,0.0,0.0,0.0,0.0,0.0,0.0,0.0,0.0,0.0,0.0,0.0,0.0,0.0,0.0,0.0,0.0,0.0,0.0,0.0,0.0,0.0,0.0,0.0,0.0,0.0,0.0,0.0,0.0,0.0,0.0,0.0,0.0,0.0,0.0,0.0,0.0,0.0,0.0,0.0,0.0,0.0,0.0,0.0,0.0,0.0,0.0,0.0,0.0,0.0,0.0,0.0,0.0,0.0,0.0,0.0,0.0,0.0,0.0,0.0,0.0,0.0,0.0,0.0,0.0,0.0,0.0,0.0,0.0,0.0,0.0,0.0,0.0,0.0,0.0,0.0,0.0,0.0,0.0,0.0,0.0,0.0,0.0,0.0,0.0,0.0,0.0,0.0,0.0,0.0,0.0,0.0,0.0,0.0,0.0,0.0,0.0,0.0,0.0,0.0,0.0,0.0,0.0,0.0,0.0,0.0,0.0,0.0,0.0,0.0,0.0,0.0,0.0,0.0,0.0,0.0,0.0,0.0,0.0,0.0,0.0,0.0,0.0,0.0,0.0,0.0,0.0,0.0,0.0,0.0,0.0,0.0,0.0,0.0,0.0,0.0,0.0,0.0,0.0,0.0,0.0,0.0,0.0,0.0,0.0,0.0,0.0,0.0,0.0,0.0,0.0,0.0,0.0,0.0,0.0,0.0,0.0,0.0,0.0,0.0,0.0,0.0,0.0,0.0,0.0,0.0,0.0,0.0,0.0,0.0,0.0,0.0,0.0,0.0,0.0,0.0,0.0,0.0,0.0,0.0,0.0,0.0,0.0,0.0,0.0,0.0,0.0,0.0,0.0,0.0,0.0,0.0,0.0,0.0,0.0,0.0,0.0,0.0,0.0,0.0,0.0,0.0,0.0,0.0,0.0,0.0,0.0,0.0,0.0,0.0,0.0,0.0,0.0,0.0,0.0,0.0,0.0,0.0,0.0,0.0,0.0,0.0,0.0,0.0,0.0,0.0,0.0,0.0,0.0,0.0,0.0,0.0,0.0,0.0,0.0,0.0,0.0,0.0,0.0,0.0,0.0,0.0,0.0,0.0,0.0,0.0,0.0,0.0,0.0,0.0,0.0,0.0,0.0,0.0,0.0,0.0,0.0,0.0,0.0,0.0,0.0,0.0,0.0,0.0,0.0,0.0,0.0,0.0,0.0,0.0,0.0,0.0,0.0,0.0,0.0,0.0,0.0,0.0,0.0,0.0,0.0,0.0,0.0,0.0,0.0,0.0,0.0,0.0,0.0,0.0,0.0,0.0,0.0,0.0,0.0,0.0,0.0,0.0,0.0,0.0,0.0,0.0,0.0,0.0,0.0,0.0,0.0,0.0,0.0,0.0,0.0,0.0,0.0,0.0,0.0,0.0,0.0,0.0,0.0,0.0,0.0,0.0,0.0,0.0,0.0,0.0,0.0,0.0,0.0,0.0,0.0,0.0,0.0,0.0,0.0,0.0,0.0,0.0,0.0,0.0,0.0,0.0,0.0,0.0,0.0,0.0,0.0,0.0,0.0,0.0,0.0,0.0,0.0,0.0,0.0,0.0,0.0,0.0,0.0,0.0,0.0,0.0,0.0,0.0,0.0,0.0,0.0,0.0,0.0,0.0,0.0,0.0,0.0,0.0,0.0,0.0,0.0,0.0,0.0,0.0,0.0,0.0,0.0,0.0,0.0,0.0,0.0,0.0,0.0,0.0,0.0,0.0,0.0,0.0,0.0,0.0,0.0,0.0,0.0,0.0,0.0,0.0,0.0,0.0,0.0,0.0,0.0,0.0,0.0,0.0,0.0,0.0,0.0,0.0,0.0,0.0,0.0,0.0,0.0,0.0,0.0,0.0,0.0,0.0,0.0,0.0,0.0,0.0,0.0,0.0,0.0,0.0,0.0,0.0,0.0,0.0,0.0,0.0,0.0,0.0,0.0,0.0,0.0,0.0,0.0,0.0,0.0,0.0,0.0,0.0,0.0,0.0,0.0,0.0,-2.0577,0.0,0.0,0.0,0.0,0.0,0.0,0.0,0.0,0.0,0.0,0.0,0.0,0.0,0.0,0.0,0.0,0.0,0.0,0.0,0.0,0.0,0.0,0.0,0.0,0.0,0.0,0.0,0.0,0.0,0.0,0.0,0.0,0.0,0.0,0.0,0.0,0.0,0.0,0.0,0.0,0.0,0.0,0.0,0.0,0.0,0.0,0.0,0.0,0.0,0.0,0.0,0.0,0.0,0.0,0.0,0.0,0.0,0.0,0.0,0.0,0.0,0.0,0.0,0.0,0.0,0.0,0.0,0.0,0.0,0.0,0.0,0.0,0.0,0.0,0.0,0.0,0.0,0.0,0.0,0.0,0.0,0.0,0.0,0.0,0.0,0.0,0.0,0.0,0.0,0.0,0.0,0.0,0.0,0.0,0.0,0.0,0.0,0.0,0.0,0.0,0.0,0.0,0.0,0.0,0.0,0.0,0.0,0.0,0.0,0.0,0.0,0.0,0.0,0.0,0.0,0.0,-2.0654,0.0,0.0,0.0,0.0,0.0,0.0,0.0,0.0,0.0,0.0,0.0,0.0,0.0,0.0,0.0,0.0,0.0,0.0,0.0,0.0,0.0,0.0,0.0,0.0,0.0,0.0,0.0,0.0,0.0,0.0,0.0,0.0,0.0,0.0,0.0,0.0,0.0,0.0,0.0,0.0,0.0,0.0,0.0,0.0,0.0,0.0,0.0,0.0,0.0,0.0,0.0,0.0,0.0,0.0,0.0,0.0,0.0,0.0,0.0,0.0,0.0,0.0,0.0,0.0,0.0,0.0,0.0,0.0,0.0,0.0,0.0,0.0,0.0,0.0,0.0,0.0,0.0,0.0,0.0,0.0,0.0,0.0,0.0,0.0,0.0,0.0,0.0,0.0,0.0,0.0,0.0,0.0,0.0,0.0,0.0,0.0,0.0,0.0,0.0,0.0,0.0,0.0,0.0,0.0,0.0,0.0,0.0,0.0,-2.3086,-2.3105,-2.3235,-2.3235,-2.3163,-2.299,-2.2274,-2.1485,-2.0788,-2.1446,0.0,0.0,0.0,0.0,0.0,0.0,0.0,0.0,0.0,0.0,0.0,0.0,0.0,0.0,0.0,0.0,0.0,0.0,0.0,0.0,0.0,0.0,0.0,0.0,0.0,0.0,0.0,0.0,0.0,0.0,0.0,0.0,0.0,0.0,0.0,0.0,0.0,-2.0605,-2.0605,-2.0605,-2.0605,-2.0605,-2.0605,0.0,0.0,0.0,0.0,0.0,0.0,0.0,0.0,0.0,0.0,0.0,0.0,0.0,0.0,0.0,0.0,0.0,0.0,0.0,0.0,0.0,0.0,0.0,0.0,0.0,0.0,0.0,0.0,0.0,0.0,0.0,0.0,0.0,0.0,0.0,0.0,0.0,0.0,0.0,0.0,0.0,0.0,0.0,-2.0558,-2.1254,0.0,0.0,0.0,0.0,0.0,0.0,0.0,0.0,0.0,0.0,0.0,0.0,0.0,-2.4259,-2.4962,-2.4279,-2.4279,-2.4962,-2.4259,-2.4298,-2.4962,-2.4962,-2.4582,-2.3918,-2.3802,0.0,-2.2489,-2.2586,0.0,0.0,0.0,0.0,0.0,0.0,0.0,0.0,0.0,0.0,0.0,0.0,0.0,0.0,0.0,0.0,0.0,0.0,0.0,0.0,0.0,0.0,0.0,0.0,0.0,0.0,0.0,0.0,0.0,0.0,0.0,0.0,0.0,0.0,0.0,0.0,-2.1328,-2.1582,-2.2051,-2.2012,-2.2012,-2.2012,-2.2012,-2.1484,-2.0605,-2.0605,0.0,0.0,0.0,0.0,0.0,0.0,0.0,0.0,0.0,0.0,0.0,0.0,0.0,0.0,0.0,0.0,0.0,0.0,0.0,0.0,0.0,0.0,0.0,0.0,0.0,0.0,0.0,0.0,0.0,0.0,0.0,0.0,0.0,0.0,0.0,0.0,0.0,0.0,0.0,-2.157,-2.1709,-2.2024,-2.1996,-2.2271,0.0,0.0,0.0,0.0,0.0,0.0,0.0,0.0,0.0,-2.475,-2.4774,-2.4947,-2.5308,-2.5447,-2.5678,-2.6019,-2.6164,-2.6414,-2.6755,-2.6755,-2.6563,-2.6241,-2.6241,-2.6029,-2.5568,-2.4125,-2.324,-2.2855,0.0,0.0,0.0,0.0,-2.2797,-2.2797,0.0,0.0,0.0,0.0,0.0,0.0,0.0,0.0,0.0,0.0,0.0,0.0,0.0,0.0,0.0,-2.0475,0.0,0.0,0.0,0.0,0.0,0.0,0.0,0.0,0.0,0.0,0.0,-2.2207,-2.2227,-2.2559,-2.3203,-2.3125,-2.3105,-2.3105,-2.3105,-2.2402,-2.123,-2.123,-2.1621,0.0,0.0,0.0,0.0,0.0,0.0,0.0,0.0,0.0,0.0,0.0,0.0,0.0,0.0,0.0,0.0,0.0,0.0,0.0,0.0,0.0,0.0,0.0,0.0,0.0,0.0,0.0,0.0,0.0,0.0,0.0,0.0,0.0,0.0,0.0,0.0,0.0,0.0,-2.2533,-2.2623,-2.2745,-2.2703,-2.3,0.0,0.0,0.0,0.0,0.0,0.0,-2.5545,-2.5564,-2.5676,-2.5962,-2.5962,-2.5962,-2.5962,-2.6621,-2.6928,-2.6948,-2.7582,-2.7895,-2.7895,-2.7895,-2.7895,-2.7895,-2.7895,-2.7895,-2.7761,-2.5856,-2.4683,-2.4163,-2.4817,-2.4548,-2.3774,-2.3774,-2.362,-2.3447,0.0,0.0,0.0,0.0,0.0,0.0,0.0,0.0,0.0,0.0,0.0,0.0,0.0,0.0,-2.0391,-2.0393,-2.0412,-2.0434,0.0,0.0,0.0,0.0,0.0,0.0,0.0,0.0,0.0,-2.3047,-2.3105,-2.3164,-2.3203,-2.3125,-2.3105,-2.3105,-2.3105,-2.3047,-2.2969,-2.2969,-2.3047,-2.3125,0.0,0.0,0.0,0.0,0.0,0.0,0.0,0.0,0.0,0.0,0.0,0.0,0.0,0.0,0.0,0.0,0.0,0.0,0.0,0.0,0.0,0.0,0.0,0.0,0.0,0.0,0.0,0.0,0.0,0.0,0.0,0.0,0.0,0.0,0.0,0.0,0.0,0.0,0.0,-2.3363,-2.3607,0.0,0.0,0.0,0.0,-2.5016,-2.5016,-2.5379,-2.6219,-2.6257,-2.6712,-2.7736,-2.778,-2.778,-2.778,-2.7818,-2.7838,-2.7838,-2.7876,-2.7895,-2.7895,-2.7895,-2.7895,-2.7895,-2.7895,-2.7895,-2.7895,-2.7761,-2.7684,-2.7645,-2.7684,-2.7178,-2.6409,-2.6409,-2.5885,-2.5173,0.0,0.0,0.0,0.0,0.0,0.0,0.0,0.0,0.0,0.0,0.0,0.0,0.0,-2.0314,-2.0337,-2.0346,-2.0349,-2.0359,-2.0432,0.0,0.0,0.0,0.0,0.0,0.0,0.0,-2.3086,-2.3945,-2.4512,-2.5098,-2.5664,-2.6191,-2.6445,-2.6445,-2.6445,-2.6445,-2.6309,-2.4043,-2.3437,-2.3926,-2.334,-2.3457,0.0,0.0,0.0,0.0,0.0,0.0,0.0,0.0,0.0,0.0,0.0,0.0,0.0,0.0,0.0,0.0,0.0,0.0,0.0,0.0,0.0,0.0,0.0,0.0,0.0,0.0,0.0,0.0,0.0,0.0,0.0,0.0,0.0,0.0,0.0,0.0,0.0,-2.4455,-2.453,0.0,-2.4852,-2.5526,-2.585,-2.5665,-2.6396,-2.6927,-2.7051,-2.7241,-2.7495,-2.789,-2.7895,-2.7895,-2.7895,-2.8967,-2.95,-2.9519,-3.0602,-3.1121,-3.1121,-3.1121,-3.1121,-3.1121,-3.1121,-3.1121,-3.1121,-3.1121,-2.9852,-2.7895,-2.7895,-2.7717,-2.7448,-2.7448,-2.7236,-2.6967,0.0,0.0,0.0,0.0,0.0,0.0,0.0,0.0,0.0,0.0,0.0,-2.0308,-2.0308,-2.0308,-2.0296,-2.0302,-2.0305,-2.0335,-2.0404,0.0,0.0,0.0,-2.1835,0.0,0.0,-2.3848,-2.4394,-2.5273,-2.6152,-2.6875,-2.7441,-2.8027,-2.8301,-2.8301,-2.8301,-2.8301,-2.8144,-2.582,-2.5019,-2.5195,-2.4336,-2.4316,-2.4785,0.0,0.0,0.0,0.0,0.0,0.0,0.0,0.0,0.0,0.0,0.0,0.0,0.0,0.0,0.0,0.0,0.0,0.0,0.0,0.0,0.0,0.0,0.0,0.0,0.0,0.0,0.0,0.0,0.0,0.0,0.0,0.0,0.0,0.0,0.0,-2.5225,-2.5323,-2.5393,-2.552,-2.5712,-2.641,-2.6778,-2.6647,-2.7412,-2.7942,-2.802,-2.8487,-2.8871,-2.9159,-2.9448,-2.9583,-2.9583,-3.0698,-3.1231,-3.125,-3.2372,-3.2891,-3.2891,-3.2891,-3.2891,-3.2891,-3.2891,-3.2891,-3.2891,-3.2891,-3.1583,-2.9563,-2.9294,-2.9006,-2.8717,-2.8415,-2.8126,-2.7895,0.0,0.0,0.0,0.0,0.0,0.0,0.0,0.0,0.0,0.0,-2.0308,-2.0308,-2.0308,-2.0308,-2.0308,-2.0308,-2.0308,-2.0334,-2.0439,-2.1231,0.0,0.0,0.0,0.0,-2.4453,-2.5312,-2.6172,-2.7031,-2.791,-2.834,-2.834,-2.8379,-2.8379,-2.8379,-2.8379,-2.8379,-2.8379,-2.8359,-2.7851,-2.6992,-2.6094,-2.5742,-2.5742,0.0,0.0,0.0,0.0,0.0,0.0,0.0,0.0,0.0,0.0,0.0,0.0,0.0,0.0,0.0,0.0,0.0,0.0,0.0,0.0,0.0,0.0,0.0,0.0,0.0,0.0,0.0,0.0,0.0,0.0,0.0,0.0,0.0,-2.4877,-2.4968,-2.5298,-2.5981,-2.6229,-2.6677,-2.7529,-2.7837,-2.7967,-2.7962,-2.8025,-2.839,-2.9179,-3.0019,-3.0865,-3.1718,-3.2487,-3.2891,-3.2891,-3.2929,-3.2949,-3.2949,-3.2968,-3.2987,-3.2987,-3.2987,-3.2987,-3.2987,-3.2987,-3.2987,-3.2987,-3.2987,-3.2987,-3.2891,-3.2064,-3.1212,-3.0385,-2.9525,-2.8723,-2.8068,0.0,0.0,0.0,0.0,0.0,0.0,0.0,0.0,0.0,0.0,-2.0308,-2.0308,-2.0308,-2.0308,-2.0308,-2.0308,-2.0308,-2.058,-2.1238,0.0,0.0,0.0,0.0,0.0,-2.625,-2.6523,-2.707,-2.7949,-2.8828,-2.9238,-2.9258,-2.9883,-3.0195,-3.0195,-3.0195,-3.0195,-3.0137,-2.9512,-2.9101,-2.875,-2.7246,-2.6641,-2.6562,0.0,0.0,0.0,0.0,0.0,0.0,0.0,0.0,0.0,0.0,0.0,0.0,0.0,0.0,0.0,0.0,0.0,0.0,0.0,0.0,0.0,0.0,0.0,0.0,0.0,0.0,0.0,0.0,0.0,0.0,0.0,-2.5463,-2.5927,-2.5901,-2.6031,-2.6455,-2.7284,-2.7428,-2.7547,-2.7796,-2.8964,-2.9626,-2.9441,-3.0727,-3.1552,-3.1623,-3.2,-3.2314,-3.2564,-3.2776,-3.2891,-3.2891,-3.3526,-3.384,-3.3859,-3.4487,-3.4788,-3.4788,-3.4788,-3.4788,-3.4788,-3.4788,-3.4788,-3.4788,-3.4788,-3.4788,-3.4635,-3.316,-3.2429,-3.2179,-3.1948,-3.1718,-3.1525,0.0,0.0,0.0,0.0,0.0,0.0,0.0,0.0,0.0,0.0,-2.0308,-2.0308,-2.0308,-2.0308,-2.0308,-2.0308,-2.0627,-2.1062,-2.1609,0.0,0.0,0.0,0.0,-2.5957,-2.6973,-2.7715,-2.834,-2.8848,-3.0078,-3.0684,-3.0703,-3.1543,-3.1953,-3.1953,-3.1953,-3.1953,-3.1894,-3.1055,-3.0684,-3.0547,-2.8789,-2.7656,-2.6934,-2.6445,-2.6016,-2.5703,-2.5703,-2.5703,-2.5605,-2.501,0.0,0.0,0.0,0.0,0.0,0.0,0.0,0.0,0.0,0.0,0.0,0.0,0.0,0.0,0.0,0.0,0.0,0.0,0.0,0.0,0.0,0.0,0.0,0.0,-2.627,-2.6982,-2.7413,-2.7284,-2.7467,-2.8299,-2.8736,-2.9083,-2.9467,-3.0679,-3.1386,-3.123,-3.2256,-3.2852,-3.2737,-3.3191,-3.343,-3.343,-3.3795,-3.3987,-3.3987,-3.4834,-3.5257,-3.5257,-3.6142,-3.6538,-3.6538,-3.6538,-3.6538,-3.6538,-3.6538,-3.6538,-3.6538,-3.6538,-3.6538,0.0,0.0,0.0,0.0,0.0,-3.2891,-3.2891,0.0,0.0,0.0,0.0,0.0,0.0,0.0,0.0,0.0,0.0,0.0,-2.0308,-2.0308,-2.0308,-2.0308,-2.0308,-2.1097,-2.1704,0.0,0.0,0.0,-2.5644,-2.6523,-2.7051,-2.7148,-2.8769,-2.9648,-2.9746,-3.1387,-3.2207,-3.2226,-3.3027,-3.3398,-3.3398,-3.3398,-3.3398,-3.3359,-3.2539,-3.2207,-3.2051,-3.041,-2.8769,-2.7266,-2.707,-2.6523,-2.582,-2.5742,-2.5703,-2.5683,-2.5549,0.0,0.0,0.0,0.0,0.0,0.0,0.0,0.0,0.0,0.0,0.0,0.0,0.0,0.0,0.0,0.0,0.0,0.0,0.0,0.0,0.0,0.0,0.0,0.0,-2.7316,-2.8115,-2.911,-2.8723,-2.8577,-2.9271,-3.0148,-3.0975,-3.1725,-3.2551,-3.3045,-3.3045,-3.3141,-3.3199,-3.3199,0.0,0.0,0.0,0.0,-3.5788,-3.5788,-3.6481,-3.6846,-3.6865,-3.7623,-3.8007,-3.8007,-3.8007,-3.8007,-3.8007,-3.8007,-3.8007,-3.8007,-3.8007,-3.8007,-3.7777,-3.5391,-3.4436,-3.4244,-3.3487,-3.3199,-3.3199,0.0,0.0,0.0,0.0,0.0,0.0,0.0,0.0,0.0,-2.0308,-2.0308,-2.0308,-2.0308,-2.0308,-2.0308,-2.0308,-2.1043,-2.2145,0.0,0.0,-2.5434,-2.5609,-2.6502,-2.7324,-2.8027,-2.9062,-2.9941,-3.0644,-3.1699,-3.2207,-3.2226,-3.3027,-3.3398,-3.3398,-3.3398,-3.3398,-3.3359,-3.2539,-3.2207,-3.2109,-3.1074,-3.0039,-2.8945,-2.7539,-2.6894,-2.666,-2.5957,-2.5703,-2.5683,-2.5549,-2.5491,-2.5449,-2.5159,0.0,0.0,0.0,0.0,0.0,0.0,0.0,0.0,0.0,0.0,0.0,0.0,0.0,0.0,0.0,0.0,0.0,0.0,0.0,0.0,-2.7306,-2.8203,-2.9112,-3.0019,-3.0621,-3.0932,-3.0885,-3.1794,-3.241,-3.2344,-3.3323,-3.3955,-3.3955,-3.4603,-3.5,-3.5,-3.5769,-3.6219,-3.6219,-3.7065,-3.7526,-3.7526,-3.768,-3.7757,-3.7757,0.0,0.0,-3.8007,-3.8007,-3.8007,-3.8007,-3.8007,-3.8007,-3.8007,-3.8007,-3.8007,-3.7873,-3.668,-3.5808,-3.5231,-3.5058,-3.5,-3.5,0.0,0.0,0.0,0.0,0.0,0.0,0.0,0.0,0.0,0.0,-2.0308,-2.0308,-2.0308,-2.0308,-2.0308,-2.0308,-2.1077,0.0,0.0,-2.4716,-2.5175,-2.5582,-2.6911,-2.7851,-2.8281,-2.957,-3.0469,-3.0898,-3.2187,-3.2793,-3.2832,-3.4101,-3.4707,-3.4707,-3.4707,-3.4707,-3.4629,-3.334,-3.2793,-3.2695,-3.1406,-3.0644,-3.0117,-2.8809,-2.7754,-2.6934,-2.6504,-2.6074,-2.5683,-2.5549,-2.5491,-2.5485,-2.5348,-2.5308,-2.5308,0.0,0.0,0.0,0.0,0.0,0.0,0.0,0.0,0.0,0.0,0.0,0.0,0.0,0.0,-2.6048,0.0,0.0,-2.7943,-2.8686,-2.958,-3.0442,-3.1154,-3.2122,-3.2596,-3.2149,-3.2954,-3.3493,-3.3358,-3.426,-3.5026,-3.5411,-3.5846,-3.6288,-3.6738,-3.7142,-3.7353,-3.7353,-3.7777,-3.8007,-3.8007,-3.843,-3.8642,-3.8661,-3.9065,-3.9238,-3.9238,-3.9238,-3.9238,-3.9238,-3.9238,-3.9238,-3.9238,-3.9238,-3.9008,-3.8604,-3.8161,-3.7488,-3.6692,-3.625,-3.6096,-3.6038,0.0,0.0,0.0,0.0,0.0,0.0,0.0,0.0,0.0,0.0,-2.0308,-2.0308,-2.0308,-2.0308,-2.0365,0.0,0.0,0.0,0.0,-2.4314,-2.473,-2.5533,-2.7318,-2.8281,-2.8301,-3.0019,-3.0898,-3.0898,-3.2422,-3.3164,-3.3203,-3.4941,-3.5742,-3.5742,-3.5742,-3.5742,-3.5625,-3.3906,-3.3164,-3.3027,-3.1504,-3.0898,-3.0801,-2.9922,-2.8613,-2.7226,-2.7051,-2.6445,-2.5683,-2.5559,-2.5529,-2.5508,-2.5387,-2.5326,-2.5327,-2.5327,-2.5308,0.0,0.0,0.0,0.0,0.0,0.0,0.0,0.0,0.0,-2.572,-2.626,-2.6485,-2.6867,-2.7721,-2.8415,-2.9186,-3.0169,-3.0913,-3.1641,-3.2397,-3.3293,-3.3761,-3.3429,-3.4026,-3.4493,-3.4594,-3.5294,-3.6077,-3.6885,-3.6942,-3.7257,-3.7969,-3.8161,-3.8257,-3.8257,-3.8392,-3.8488,-3.8488,-3.9188,-3.9534,-3.9534,-4.0189,-4.0496,-4.0496,-4.0496,-4.0496,-4.0496,-4.0496,-4.0496,-4.0496,-4.0496,-4.0112,-3.9534,-3.9534,-3.9104,-3.8354,-3.7334,-3.6942,-3.6865,0.0,0.0,0.0,0.0,0.0,0.0,0.0,0.0,0.0,0.0,0.0,0.0,0.0,0.0,0.0,0.0,0.0,0.0,-2.4015,-2.4195,-2.4608,-2.5461,-2.7251,-2.8234,-2.8301,-3.0019,-3.0898,-3.0898,-3.1855,-3.2324,-3.2363,-3.4062,-3.4844,-3.4844,-3.4844,-3.4844,-3.4746,-3.3047,-3.2324,-3.2246,-3.1289,-3.0898,-3.0801,-2.9922,-2.9004,-2.8047,-2.7285,-2.6445,-2.5683,-2.5607,-2.5595,-2.5588,-2.5491,-2.5441,-2.5395,-2.5395,0.0,-2.5308,-2.5308,-2.5308,-2.5308,-2.5308,-2.5308,-2.5308,0.0,0.0,-2.6481,-2.6542,-2.7176,-2.797,-2.8777,-2.9008,-2.9598,-3.1245,-3.1591,-3.2199,-3.3742,-3.4063,-3.4429,-3.5135,-3.5308,-3.5532,-3.6023,-3.6366,-3.6923,-3.7796,-3.7853,-3.7892,-3.7988,-3.8719,-3.915,-3.915,-3.9842,-4.0227,-4.0227,-4.0323,-4.0362,-4.0362,-4.0458,-4.0496,-4.0496,-4.0496,-4.0496,-4.0496,-4.0496,-4.0496,-4.0496,-4.0496,-4.0458,-4.0362,-4.0362,-4.0304,-4.0035,-3.843,-3.7853,-3.7834,0.0,0.0,0.0,0.0,0.0,0.0,0.0,0.0,0.0,0.0,0.0,0.0,0.0,0.0,0.0,0.0,0.0,0.0,-2.2509,-2.3118,-2.3828,-2.4712,-2.649,-2.7698,-2.8235,-2.9491,-3.0391,-3.0898,-3.1777,-3.2207,-3.2226,-3.3398,-3.3945,-3.3945,-3.3945,-3.3945,-3.3867,-3.2695,-3.2207,-3.2129,-3.125,-3.0605,-3.0098,-2.9746,-2.873,-2.75,-2.7129,-2.6445,0.0,0.0,-2.5602,-2.5572,-2.5482,-2.5415,-2.5391,-2.535,-2.5312,0.0,-2.5308,-2.5308,-2.5308,-2.5308,-2.5673,-2.6058,-2.6058,-2.6736,-2.7486,-2.7967,-2.8338,-2.8857,-2.9698,-3.0275,-3.095,0.0,-3.2587,-3.3295,-3.4338,-3.4628,-3.5025,-3.5875,-3.6108,-3.6298,-3.6504,-3.7091,-3.7815,-3.8681,-3.8757,-3.895,-3.9438,-3.9804,-3.9996,-3.9996,-4.0323,-4.0496,-4.0496,-4.0496,-4.0496,-4.0496,-4.0496,-4.0496,-4.0496,-4.0496,-4.0496,-4.0496,-4.0496,-4.0496,-4.0496,-4.0496,-4.0496,-4.0496,-4.0496,-4.0496,-4.0362,-3.9188,-3.8757,-3.8681,0.0,0.0,0.0,0.0,0.0,0.0,0.0,0.0,0.0,0.0,0.0,0.0,0.0,0.0,0.0,0.0,0.0,0.0,0.0,-2.2145,-2.301,-2.4157,-2.5671,-2.6913,-2.783,-2.8744,-2.9648,-3.0547,-3.1172,-3.1601,-3.1855,-3.2676,-3.3066,-3.3066,-3.3066,-3.3066,-3.3027,-3.2187,-3.1699,-3.1426,-3.0801,-3.0019,-2.9219,-2.8965,-2.8105,-2.6992,-2.6992,-2.6445,0.0,0.0,-2.5633,-2.5604,-2.5498,-2.5441,-2.5404,-2.5357,-2.5317,-2.5308,-2.5308,-2.5308,-2.5365,-2.5596,-2.6135,-2.6659,-2.6909,-2.7621,-2.8396,-2.8973,-2.93,-2.964,-3.0288,-3.1115,-3.1905,-3.2507,-3.3333,-3.4146,-3.4831,-3.5088,-3.552,-3.6313,-3.6784,-3.7161,-3.7392,-3.7988,-3.87,-3.9573,-3.9631,-3.99,-4.0477,-4.0496,-4.0496,-4.0496,-4.0496,-4.0496,-4.0496,-4.0496,-4.0496,-4.0496,-4.0496,-4.0496,-4.0496,-4.0496,-4.0496,-4.0496,-4.0496,-4.0496,-4.0496,-4.0496,-4.0496,-4.0496,-4.0496,-4.0496,-4.0439,-3.9842,-3.9631,-3.9534,0.0,0.0,0.0,0.0,0.0,0.0,0.0,0.0,0.0,0.0,0.0,0.0,0.0,0.0,0.0,0.0,0.0,0.0,0.0,-2.1528,-2.2335,-2.4115,-2.5007,-2.5901,-2.693,-2.7791,-2.8702,-2.9648,-2.9668,-3.0117,-3.0957,-3.1836,-3.2246,-3.2246,-3.2246,-3.2246,-3.2187,-3.1309,-3.0449,-2.9687,-2.9648,-2.9121,-2.8242,-2.7402,-2.7051,-2.6992,-2.6992,0.0,0.0,-2.5703,-2.5703,-2.5683,-2.5628,-2.5551,0.0,-2.5415,-2.5346,-2.5308,-2.5308,-2.5308,-2.55,-2.6351,-2.6582,-2.6813,-2.7659,-2.8472,-2.9069,-2.9088,-2.9775,-3.0365,-3.0404,-3.1115,-3.1962,-3.2769,-3.3615,-3.45,-3.5352,-3.5486,-3.5782,-3.6589,-3.7442,-3.8296,0.0,-3.9246,-3.9611,-4.04,-4.0458,-4.0477,-4.0496,-4.0496,-4.0496,-4.0496,-4.0496,-4.0496,-4.0496,-4.0496,-4.0496,-4.0496,-4.0496,-4.0496,-4.0496,-4.0496,-4.0496,-4.0496,-4.0496,-4.0496,-4.0496,-4.0496,-4.0496,-4.0496,-4.0496,-4.0496,-4.0496,-4.0477,-4.0458,-4.0458,0.0,0.0,0.0,0.0,0.0,0.0,0.0,0.0,0.0,0.0,0.0,0.0,0.0,0.0,0.0,0.0,-2.0308,0.0,0.0,-2.1192,-2.1771,-2.2373,-2.382,-2.5011,-2.5882,-2.685,-2.7776,-2.8663,-2.8729,-2.8887,-2.918,-2.9473,-2.9609,-2.9609,-2.9609,-2.9609,-2.959,-2.9297,-2.9004,-2.873,-2.873,-2.8223,-2.7402,-2.7109,-2.6641,-2.6133,0.0,0.0,-2.5632,-2.5573,-2.5564,-2.5556,-2.5501,-2.5459,-2.5534,-2.6045,-2.5765,-2.5558,-2.6717,-2.6601,-2.6365,-2.7236,-2.7852,-2.8338,-2.8626,-2.9352,-2.9967,-2.9967,-3.0654,-3.125,-3.125,-3.241,-3.3449,-3.3725,-3.4487,-3.5154,-3.5462,-3.5962,-3.6615,-3.7469,-3.8334,0.0,0.0,0.0,0.0,-4.0477,-4.0496,-4.0496,-4.0496,-4.0496,-4.0496,-4.0496,-4.0496,-4.0496,-4.0496,-4.0496,-4.0496,-4.0496,-4.0496,-4.0496,-4.0496,-4.0496,-4.0496,-4.0496,-4.0496,-4.0496,-4.0496,-4.0496,-4.0496,-4.0496,-4.0496,-4.0496,-4.0496,-4.0496,-4.0496,-4.0496,0.0,0.0,0.0,0.0,0.0,0.0,0.0,0.0,0.0,0.0,0.0,0.0,0.0,0.0,0.0,0.0,0.0,-2.0308,0.0,0.0,-2.1196,-2.1485,-2.262,-2.3781,-2.4946,-2.5626,-2.6542,-2.7695,-2.7763,-2.7944,-2.8231,-2.8231,-2.8231,-2.8231,-2.8231,-2.8235,-2.8259,-2.8259,-2.8104,-2.7832,-2.7832,-2.7305,-2.6543,-2.6543,-2.6191,0.0,0.0,0.0,-2.5558,-2.5505,-2.5491,-2.5498,-2.5421,-2.5383,-2.5475,-2.5986,-2.5731,-2.5615,-2.7044,-2.7024,-2.689,-2.8049,-2.8723,-2.9184,-2.9486,-3.0,-3.0404,-3.0404,-3.0846,-3.1231,-3.1231,-3.2602,-3.3744,-3.3744,-3.4644,-3.5383,-3.5493,-3.5866,-3.6581,-3.7846,-3.8488,-3.9265,0.0,0.0,0.0,-4.0496,-4.0496,-4.0496,-4.0496,-4.0496,-4.0496,-4.0496,-4.0496,-4.0496,-4.0496,-4.0496,-4.0496,-4.0496,-4.0496,-4.0496,-4.0496,-4.0496,-4.0496,-4.0496,-4.0496,-4.0496,-4.0496,-4.0496,-4.0496,-4.0496,-4.0496,-4.0496,-4.0496,-4.0496,-4.0496,-4.0496,0.0,0.0,0.0,0.0,0.0,0.0,0.0,0.0,0.0,0.0,0.0,0.0,0.0,0.0,0.0,0.0,0.0,0.0,0.0,0.0,0.0,-2.1408,-2.1489,-2.2319,-2.4038,-2.4182,-2.5016,-2.6612,-2.6663,-2.7093,-2.7851,-2.7851,-2.7851,-2.7851,-2.7892,-2.7956,-2.8008,-2.8047,-2.7629,-2.6934,-2.6934,-2.6445,-2.5703,-2.5703,0.0,0.0,0.0,0.0,-2.551,-2.5484,-2.5481,-2.5488,-2.5411,-2.535,-2.5308,-2.5346,-2.5365,-2.5577,-2.6486,-2.6736,-2.7121,-2.8761,-2.9165,-2.9371,-3.0212,-3.0404,-3.0404,-3.0404,-3.0442,-3.0462,0.0,0.0,-3.291,-3.2968,-3.414,-3.5149,-3.5453,-3.5319,-3.5892,0.0,0.0,0.0,0.0,0.0,0.0,-4.0496,0.0,-4.0496,-4.0496,-4.0496,-4.0496,-4.0496,-4.0496,-4.0496,-4.0496,-4.0496,-4.0496,-4.0496,-4.0496,-4.0496,-4.0496,-4.0496,-4.0496,-4.0496,-4.0496,-4.0496,-4.0496,-4.0496,-4.0496,-4.0496,-4.0496,-4.0496,-4.0496,-4.0496,-4.0489,-4.0481,0.0,0.0,0.0,0.0,0.0,0.0,0.0,0.0,0.0,0.0,0.0,0.0,0.0,0.0,0.0,0.0,0.0,0.0,0.0,0.0,0.0,0.0,0.0,0.0,0.0,0.0,0.0,-2.4042,-2.4054,-2.4196,-2.4447,-2.4447,-2.4447,-2.4486,-2.5072,-2.5347,-2.5409,-2.6053,-2.621,-2.6035,0.0,-2.5898,-2.5703,0.0,0.0,0.0,0.0,0.0,-2.5476,-2.5379,-2.5346,-2.5357,-2.533,-2.5313,-2.5423,-2.6077,-2.6269,-2.6601,-2.8063,-2.8453,-2.8717,-2.9794,-3.0077,-3.0135,-3.0346,-3.0404,-3.0404,-3.0404,-3.0923,-3.1371,-3.1371,-3.2218,0.0,-3.3763,-3.4185,0.0,-3.5397,-3.5957,0.0,-3.7865,0.0,-3.9381,-4.04,-4.0496,0.0,0.0,-4.0496,-4.0496,-4.0496,-4.0496,-4.0496,-4.0496,-4.0496,-4.0496,-4.0496,-4.0496,-4.0496,-4.0496,-4.0496,-4.0496,-4.0496,-4.0496,-4.0496,-4.0496,-4.0496,-4.0496,-4.0496,-4.0496,-4.0496,-4.0496,-4.0496,-4.0496,-4.0496,-4.0496,-4.0372,-4.0223,0.0,0.0,0.0,0.0,0.0,0.0,0.0,0.0,0.0,0.0,0.0,0.0,0.0,0.0,0.0,0.0,0.0,0.0,0.0,0.0,0.0,0.0,0.0,0.0,0.0,0.0,0.0,0.0,0.0,0.0,-2.3104,-2.3072,-2.3074,-2.3124,-2.3542,-2.3766,-2.3862,-2.4351,0.0,0.0,0.0,0.0,0.0,0.0,0.0,0.0,0.0,0.0,0.0,0.0,0.0,-2.5308,-2.5308,-2.5308,-2.5404,-2.5885,-2.6019,-2.6404,-2.8107,-2.8569,-2.8871,-3.0096,-3.0404,-3.0404,-3.0404,-3.0404,-3.0404,-3.0404,-3.0788,-3.1135,-3.1135,-3.1814,-3.2641,0.0,0.0,0.0,-3.5359,-3.5794,-3.6508,0.0,-3.843,0.0,-4.0381,-4.0496,-4.0496,0.0,-4.0496,-4.0496,-4.0496,-4.0496,-4.0496,-4.0496,-4.0496,-4.0496,-4.0496,-4.0496,-4.0496,-4.0496,-4.0496,-4.0496,-4.0496,-4.0496,-4.0496,-4.0496,-4.0496,-4.0496,-4.0496,-4.0496,-4.0496,-4.0496,-4.0496,-4.0496,-4.0496,-4.0496,-4.0397,-4.0286,0.0,0.0,0.0,0.0,0.0,0.0,0.0,0.0,0.0,0.0,0.0,0.0,0.0,0.0,0.0,0.0,0.0,0.0,0.0,0.0,0.0,0.0,0.0,0.0,0.0,0.0,0.0,0.0,0.0,0.0,0.0,0.0,0.0,0.0,0.0,0.0,0.0,0.0,0.0,0.0,0.0,0.0,0.0,0.0,0.0,0.0,0.0,0.0,0.0,0.0,-2.5212,-2.5308,-2.5308,-2.5308,-2.5308,-2.5308,-2.5385,-2.5808,-2.7313,-2.7895,-2.8409,-2.9865,-3.0308,-3.0365,-3.025,-3.0231,-3.0231,-3.0231,-3.0231,-3.0269,-3.0385,-3.1019,-3.1795,-3.2602,0.0,-3.4064,-3.5172,-3.522,-3.5851,-3.7774,-3.8007,-3.8661,-4.0342,-4.0496,-4.0496,-4.0496,-4.0496,-4.0496,-4.0496,-4.0496,-4.0496,-4.0496,-4.0496,-4.0496,-4.0496,-4.0496,-4.0496,-4.0496,-4.0496,-4.0496,-4.0496,-4.0496,-4.0496,-4.0496,-4.0496,-4.0496,-4.0496,-4.0496,-4.0496,-4.0496,-4.0496,-4.0496,-4.0496,-4.0496,-4.0481,-4.0406,0.0,0.0,0.0,0.0,0.0,0.0,0.0,0.0,0.0,0.0,-2.0308,0.0,0.0,0.0,0.0,0.0,0.0,0.0,0.0,0.0,0.0,0.0,0.0,0.0,0.0,-2.0723,-2.0857,-2.1012,-2.1034,0.0,0.0,0.0,0.0,0.0,0.0,0.0,0.0,0.0,0.0,0.0,0.0,0.0,0.0,0.0,0.0,0.0,0.0,0.0,0.0,0.0,-2.4755,-2.5308,-2.5308,-2.5308,-2.5308,-2.5308,-2.5808,-2.6447,-2.6736,-2.7832,-2.8953,-2.9261,-2.9871,-3.0212,-2.9486,-2.9338,0.0,-2.9338,-2.9338,-2.9544,-3.0269,-3.0519,-3.0904,-3.1775,-3.2558,-3.3378,-3.4295,-3.5018,-3.6061,0.0,-3.8007,-3.8661,-4.0342,-4.0496,0.0,0.0,-4.0496,-4.0496,-4.0496,-4.0496,-4.0496,-4.0496,-4.0496,-4.0496,-4.0496,-4.0496,-4.0496,-4.0496,-4.0496,-4.0496,-4.0496,-4.0496,-4.0496,-4.0496,-4.0496,0.0,-4.0496,-4.0496,-4.0496,-4.0496,-4.0496,-4.0496,-4.0496,-4.0496,-4.0364,-4.0158,0.0,0.0,0.0,0.0,0.0,0.0,0.0,0.0,0.0,0.0,-2.0308,-2.0308,0.0,0.0,0.0,0.0,0.0,0.0,0.0,0.0,0.0,0.0,0.0,0.0,0.0,-2.0507,-2.0564,-2.0605,0.0,-2.0605,-2.0605,-2.0537,-2.0514,-2.0561,-2.0943,-2.114,0.0,0.0,0.0,0.0,0.0,0.0,0.0,0.0,0.0,0.0,0.0,0.0,0.0,0.0,-2.4356,-2.4755,-2.5173,-2.5308,-2.5308,-2.5308,-2.5596,-2.6019,-2.6486,-2.7198,-2.7909,-2.8357,-2.8794,-2.8986,-2.8569,0.0,0.0,-2.9011,-2.9107,-2.9377,-3.0231,-3.0404,-3.0692,-3.1564,-3.2372,-3.3199,-3.409,-3.4949,-3.6115,-3.7796,-3.8007,-3.8661,-4.0342,-4.0496,-4.0496,-4.0496,-4.0496,-4.0496,-4.0496,-4.0496,-4.0496,-4.0496,-4.0496,-4.0496,-4.0496,-4.0496,-4.0496,-4.0496,-4.0496,-4.0496,-4.0496,-4.0496,-4.0496,-4.0496,-4.0496,-4.0496,-4.0496,-4.0496,-4.0496,-4.0496,-4.0496,-4.0496,-4.0496,-4.0496,-4.0433,-4.0258,0.0,0.0,0.0,0.0,0.0,0.0,0.0,-2.0308,-2.0308,-2.0308,-2.0308,-2.0308,-2.0308,-2.0308,-2.0308,0.0,0.0,0.0,0.0,0.0,0.0,0.0,0.0,0.0,0.0,0.0,0.0,-2.0605,-2.0605,0.0,0.0,0.0,0.0,0.0,-2.0516,-2.0537,-2.0585,0.0,0.0,0.0,0.0,-2.0605,0.0,0.0,0.0,0.0,0.0,0.0,0.0,0.0,-2.3783,-2.4206,-2.4832,-2.5154,-2.5308,-2.5308,-2.5308,-2.5442,-2.6135,-2.6467,-2.6755,-2.7448,-2.7761,-2.7857,-2.7659,-2.7621,-2.7857,-2.8665,-2.8838,-2.9159,-3.0212,-3.0404,-3.0615,0.0,-3.2102,-3.2949,-3.3801,-3.468,-3.5846,-3.7526,-3.7892,0.0,-4.0092,-4.04,0.0,-4.0496,-4.0496,-4.0496,-4.0496,-4.0496,-4.0496,-4.0496,-4.0496,-4.0496,-4.0496,-4.0496,-4.0496,-4.0496,-4.0496,-4.0496,-4.0496,-4.0496,-4.0496,-4.0496,-4.0496,-4.0496,-4.0496,-4.0496,-4.0496,-4.0496,-4.0496,-4.0496,-4.0496,-4.0496,-4.0496,-4.0414,0.0,0.0,0.0,0.0,0.0,0.0,0.0,-2.0308,-2.0308,-2.0308,-2.0308,-2.0308,-2.0308,-2.0308,-2.0308,0.0,0.0,0.0,0.0,0.0,0.0,0.0,0.0,0.0,0.0,0.0,0.0,-2.0605,-2.0605,0.0,0.0,0.0,0.0,0.0,0.0,-2.0509,-2.0512,-2.0565,0.0,0.0,0.0,0.0,0.0,0.0,0.0,0.0,0.0,0.0,0.0,0.0,0.0,-2.411,-2.4187,-2.4716,-2.5308,-2.5308,0.0,0.0,-2.5404,-2.6,-2.6621,-2.6697,-2.7313,-2.7678,-2.6909,0.0,-2.6967,-2.7838,-2.8011,-2.8506,-3.0096,-3.0404,-3.0423,-3.0519,0.0,-3.2083,-3.291,-3.3776,-3.493,-3.6615,0.0,0.0,-3.9323,-4.0073,-4.0496,-4.0496,-4.0496,-4.0496,-4.0496,-4.0496,-4.0496,-4.0496,-4.0496,-4.0496,-4.0496,-4.0496,-4.0496,-4.0496,-4.0496,-4.0496,-4.0496,-4.0496,-4.0496,-4.0496,-4.0496,-4.0496,0.0,-4.0496,-4.0496,-4.0496,-4.0496,-4.0496,-4.0496,-4.0496,-4.0496,-4.0414,0.0,0.0,0.0,0.0,0.0,0.0,0.0,-2.0308,-2.0308,-2.0308,-2.0308,-2.0308,-2.0308,-2.0308,-2.0308,0.0,0.0,0.0,0.0,0.0,0.0,0.0,0.0,0.0,0.0,0.0,-2.0565,-2.0605,-2.0605,0.0,0.0,0.0,0.0,0.0,0.0,-2.0563,-2.0564,-2.0586,0.0,0.0,0.0,0.0,0.0,0.0,0.0,0.0,0.0,0.0,-2.0846,-2.135,0.0,0.0,-2.3937,-2.4639,0.0,0.0,-2.5308,-2.5308,-2.5308,-2.5558,-2.5827,-2.5827,-2.6077,-2.6231,-2.5904,0.0,-2.6212,-2.7601,-2.7895,-2.8409,-3.0096,-3.0404,-3.0404,-3.0404,0.0,0.0,-3.2795,-3.3641,-3.4814,-3.65,-3.7469,0.0,0.0,0.0,-4.0496,-4.0496,-4.0496,-4.0496,-4.0496,-4.0496,-4.0496,-4.0496,-4.0496,-4.0496,-4.0496,-4.0496,-4.0496,-4.0496,-4.0496,-4.0496,-4.0496,-4.0496,-4.0496,-4.0496,-4.0496,-4.0496,0.0,-4.0496,-4.0496,-4.0496,-4.0496,-4.0496,-4.0496,-4.0496,-4.0496,-4.0414,0.0,0.0,0.0,0.0,0.0,0.0,-2.0308,-2.0308,-2.0308,-2.0308,-2.0308,-2.0308,-2.0308,-2.0308,-2.0308,-2.0308,0.0,0.0,0.0,0.0,0.0,0.0,0.0,0.0,0.0,0.0,-2.0563,-2.0605,-2.0605,-2.0605,0.0,0.0,-2.0605,-2.0605,0.0,0.0,0.0,0.0,0.0,0.0,0.0,0.0,0.0,0.0,0.0,0.0,0.0,0.0,0.0,0.0,0.0,0.0,0.0,0.0,0.0,0.0,-2.5308,-2.5308,-2.5308,-2.5308,-2.5308,-2.5308,-2.5308,-2.5308,0.0,0.0,-2.5788,-2.7544,-2.7895,-2.8409,-3.0096,-3.0404,-3.0404,0.0,0.0,-3.1698,-3.2756,-3.343,-3.4526,-3.6462,0.0,-3.8334,-3.9227,-4.0035,-4.0496,-4.0496,-4.0496,-4.0496,-4.0496,-4.0496,-4.0496,-4.0496,-4.0496,-4.0496,-4.0496,-4.0496,-4.0496,-4.0496,-4.0496,-4.0496,-4.0496,-4.0496,-4.0496,-4.0496,-4.0496,-4.0496,0.0,-4.0496,-4.0496,-4.0496,-4.0496,-4.0496,-4.0496,-4.0496,-4.0457,-4.0302,0.0,0.0,0.0,0.0,0.0,0.0,0.0,-2.0308,-2.0308,-2.0308,-2.0308,-2.0308,-2.0308,-2.0308,-2.0308,-2.0308,0.0,0.0,0.0,0.0,0.0,0.0,0.0,0.0,0.0,0.0,-2.0472,-2.0605,-2.0605,-2.0605,-2.0605,-2.0605,-2.0605,-2.0605,0.0,0.0,0.0,0.0,0.0,0.0,0.0,0.0,0.0,0.0,0.0,0.0,0.0,0.0,0.0,0.0,0.0,0.0,0.0,-2.3413,-2.4259,0.0,-2.5308,-2.5308,-2.5308,-2.5308,-2.5308,-2.5308,-2.5308,-2.5308,0.0,-2.5308,-2.5788,-2.7544,-2.7895,-2.8409,-3.0096,-3.0404,-3.0404,-3.0404,-3.0404,0.0,-3.2679,-3.291,-3.3853,0.0,0.0,-3.8334,-3.9227,-4.0035,-4.0496,-4.0496,-4.0496,0.0,-4.0496,-4.0496,-4.0496,-4.0496,-4.0496,-4.0496,-4.0496,-4.0496,-4.0496,-4.0496,-4.0496,-4.0496,-4.0496,-4.0496,-4.0496,-4.0496,-4.0496,-4.0496,0.0,-4.0496,-4.0496,-4.0496,-4.0496,-4.0496,-4.0496,-4.0496,-4.0339,-4.0061,0.0,0.0,0.0,0.0,0.0,0.0,0.0,-2.0308,-2.0308,-2.0308,-2.0308,-2.0308,-2.0308,-2.0308,-2.0308,-2.0308,0.0,0.0,0.0,0.0,0.0,0.0,0.0,0.0,0.0,0.0,-2.0472,-2.0605,-2.0543,-2.0562,-2.0605,-2.0605,-2.0605,-2.0605,-2.0605,-2.0605,0.0,0.0,0.0,0.0,0.0,0.0,0.0,0.0,0.0,0.0,0.0,0.0,0.0,0.0,0.0,0.0,0.0,0.0,0.0,-2.5058,-2.5308,-2.5308,-2.5308,-2.5308,-2.5308,-2.5308,-2.5308,-2.5308,-2.5308,-2.5308,-2.5788,-2.7544,-2.7895,-2.8409,-3.0096,-3.0404,-3.0404,-3.0404,-3.0404,0.0,0.0,0.0,0.0,-3.5635,-3.7142,-3.8565,0.0,0.0,-4.0496,-4.0496,-4.0496,-4.0496,-4.0496,-4.0496,-4.0496,-4.0496,-4.0496,-4.0496,-4.0496,-4.0496,-4.0496,-4.0496,-4.0496,-4.0496,-4.0496,-4.0496,-4.0496,-4.0496,-4.0496,-4.0496,-4.0496,-4.0496,-4.0496,-4.0496,-4.0496,-4.0496,-4.0496,-4.0496,-4.033,-4.0042,0.0,0.0,0.0,0.0,0.0,0.0,0.0,-2.0308,-2.0308,-2.0308,-2.0308,-2.0308,-2.0308,-2.0308,-2.0308,-2.0308,0.0,0.0,0.0,0.0,0.0,0.0,0.0,0.0,0.0,-2.0357,-2.043,-2.0564,-2.0515,-2.0539,-2.0605,-2.0605,-2.0605,-2.0605,-2.0605,-2.0605,0.0,0.0,0.0,0.0,0.0,0.0,-2.0605,0.0,0.0,0.0,0.0,0.0,0.0,0.0,0.0,0.0,0.0,0.0,0.0,0.0,-2.5308,-2.5308,-2.5308,-2.5308,-2.5308,-2.5308,-2.5308,0.0,-2.5308,-2.5308,-2.5788,-2.7544,-2.7895,-2.8409,-3.0096,-3.0404,-3.0404,-3.0404,-3.0404,-3.0981,0.0,0.0,0.0,-3.6154,0.0,0.0,0.0,-4.0496,-4.0496,-4.0496,-4.0496,-4.0496,-4.0496,-4.0496,-4.0496,-4.0496,-4.0496,-4.0496,-4.0496,-4.0496,-4.0496,-4.0496,-4.0496,-4.0496,-4.0496,-4.0496,-4.0496,-4.0496,-4.0496,-4.0496,0.0,-4.0496,-4.0496,-4.0496,-4.0496,-4.0496,-4.0496,-4.0496,-4.0239,-3.9891,0.0,0.0,0.0,0.0,0.0,0.0,0.0,0.0,0.0,0.0,-2.0308,-2.0308,-2.0308,-2.0308,-2.0308,0.0,0.0,0.0,0.0,0.0,0.0,0.0,0.0,0.0,0.0,-2.031,-2.0378,-2.0508,-2.0508,-2.0539,-2.0605,-2.0605,-2.0605,-2.0605,-2.0605,-2.0605,-2.0605,-2.0605,-2.0605,-2.0605,-2.0605,-2.0605,0.0,0.0,0.0,0.0,0.0,0.0,0.0,0.0,0.0,0.0,0.0,0.0,0.0,0.0,0.0,0.0,0.0,-2.5308,-2.5308,-2.5308,-2.5308,-2.5308,-2.5308,-2.5308,0.0,-2.7544,-2.7895,-2.8409,-3.0096,-3.0404,-3.0404,-3.0404,-3.0404,-3.0981,0.0,-3.3006,0.0,0.0,-3.87,0.0,-4.0419,-4.0496,-4.0496,-4.0496,-4.0496,-4.0496,-4.0496,-4.0496,-4.0496,-4.0496,-4.0496,-4.0496,-4.0496,-4.0496,-4.0496,-4.0496,-4.0496,-4.0496,-4.0496,-4.0496,-4.0496,0.0,-4.0496,-4.0496,-4.0496,-4.0496,-4.0496,-4.0496,-4.0496,-4.0496,-4.0496,-4.0496,-4.0129,-3.9599,0.0,0.0,0.0,0.0,0.0,0.0,0.0,0.0,0.0,0.0,-2.0308,-2.0308,-2.0308,-2.0308,0.0,0.0,0.0,0.0,0.0,0.0,0.0,0.0,0.0,0.0,0.0,-2.031,-2.0378,-2.0508,-2.0508,-2.0539,-2.0605,-2.0605,-2.0605,-2.0605,-2.0605,-2.0605,-2.0605,-2.0605,-2.0605,-2.0605,-2.0605,-2.0605,0.0,0.0,0.0,0.0,-2.0408,-2.0366,0.0,0.0,0.0,0.0,0.0,0.0,0.0,0.0,-2.5308,-2.5308,-2.5308,0.0,-2.5308,-2.5308,-2.5308,-2.5308,0.0,0.0,0.0,0.0,0.0,0.0,0.0,-3.0404,-3.0404,-3.0404,-3.0404,-3.0981,-3.266,-3.4045,0.0,-3.7757,-3.818,-3.8873,-4.0362,-4.0496,-4.0496,-4.0496,-4.0496,-4.0496,-4.0496,-4.0496,-4.0496,-4.0496,-4.0496,-4.0496,-4.0496,-4.0496,-4.0496,-4.0496,-4.0496,-4.0496,-4.0496,-4.0496,-4.0496,-4.0496,-4.0496,-4.0496,-4.0496,-4.0496,-4.0496,-4.0496,-4.0496,-4.0496,-4.0496,-4.0496,-4.0129,-3.9599,0.0,0.0,0.0,0.0,0.0,0.0,0.0,0.0,0.0,0.0,0.0,0.0,0.0,0.0,0.0,0.0,0.0,0.0,0.0,0.0,0.0,0.0,0.0,0.0,-2.0359,-2.034,-2.0406,-2.0508,-2.0508,-2.0539,-2.0605,-2.0605,-2.0605,-2.0605,-2.0605,-2.0605,-2.0605,-2.0605,-2.0605,-2.0605,-2.0605,0.0,0.0,0.0,0.0,0.0,-2.0378,-2.0334,0.0,-2.0308,-2.0308,-2.0596,0.0,0.0,0.0,0.0,-2.5308,-2.5308,-2.5308,-2.5308,-2.5308,-2.5308,-2.5308,-2.5308,-2.5308,0.0,0.0,0.0,0.0,0.0,0.0,-3.0404,-3.0404,-3.0404,-3.0731,0.0,0.0,0.0,-3.6538,-3.7834,-3.8354,-3.9104,0.0,-4.0496,-4.0496,-4.0496,-4.0496,-4.0496,-4.0496,-4.0496,-4.0496,-4.0496,-4.0496,-4.0496,-4.0496,-4.0496,-4.0496,-4.0496,-4.0496,-4.0496,-4.0496,-4.0496,-4.0496,-4.0496,-4.0496,-4.0496,-4.0496,-4.0496,-4.0496,-4.0496,-4.0496,-4.0496,-4.0496,-4.0496,-4.0129,-3.9599,0.0,0.0,0.0,0.0,0.0,0.0,0.0,0.0,0.0,0.0,0.0,0.0,0.0,0.0,0.0,0.0,0.0,0.0,0.0,0.0,0.0,0.0,0.0,-2.0337,-2.0408,-2.0416,-2.044,-2.0508,-2.0511,-2.0541,-2.0605,-2.0605,-2.0605,-2.0605,-2.0605,-2.0605,-2.0605,-2.0605,-2.0605,-2.0605,-2.0605,0.0,0.0,0.0,0.0,0.0,0.0,0.0,0.0,-2.0308,-2.0308,-2.0596,-2.2274,0.0,0.0,0.0,0.0,0.0,-2.5308,-2.5308,-2.5308,-2.5308,-2.5308,-2.5308,-2.5308,0.0,0.0,0.0,0.0,0.0,0.0,-3.0404,0.0,0.0,0.0,0.0,-3.3975,-3.5641,-3.7019,-3.7892,-3.8757,0.0,-4.0419,-4.0496,-4.0496,-4.0496,-4.0496,-4.0496,-4.0496,-4.0496,-4.0496,-4.0496,-4.0496,-4.0496,-4.0496,-4.0496,-4.0496,-4.0496,-4.0496,-4.0496,-4.0496,-4.0496,-4.0496,-4.0496,-4.0496,0.0,-4.0496,-4.0496,-4.0496,-4.0496,-4.0496,-4.0496,-4.0496,-4.0496,-4.0148,-3.9656,0.0,0.0,0.0,0.0,0.0,0.0,0.0,0.0,0.0,0.0,0.0,0.0,0.0,0.0,0.0,0.0,0.0,0.0,0.0,0.0,0.0,0.0,-2.0377,-2.0381,-2.0408,-2.0467,-2.0484,-2.0508,-2.0563,-2.0586,-2.0605,-2.0605,-2.0605,-2.0605,-2.0605,-2.0605,-2.0605,-2.0605,-2.0605,-2.0605,-2.0605,0.0,0.0,0.0,0.0,0.0,0.0,0.0,0.0,-2.0308,-2.0308,-2.0596,-2.2274,0.0,0.0,0.0,0.0,0.0,-2.5308,-2.5308,-2.5308,-2.5308,-2.5308,-2.5308,-2.5308,-2.5865,0.0,0.0,0.0,0.0,0.0,-3.0404,-3.0404,0.0,0.0,-3.3064,0.0,0.0,-3.7019,-3.7892,0.0,-3.9631,-4.0419,-4.0496,-4.0496,-4.0496,-4.0496,-4.0496,-4.0496,-4.0496,-4.0496,-4.0496,-4.0496,-4.0496,-4.0496,-4.0496,-4.0496,-4.0496,-4.0496,-4.0496,-4.0496,-4.0496,-4.0496,-4.0496,0.0,-4.0496,-4.0496,-4.0496,-4.0496,-4.0496,-4.0496,-4.0496,-4.0496,-4.0496,-4.0294,-3.9932,0.0,0.0,0.0,0.0,0.0,0.0,0.0,0.0,0.0,0.0,0.0,0.0,0.0,0.0,0.0,0.0,0.0,0.0,0.0,0.0,0.0,-2.0444,-2.0483,-2.0511,-2.0511,-2.0539,-2.0543,-2.0543,-2.0585,-2.0605,-2.0605,-2.0605,-2.0605,-2.0605,-2.0605,-2.0605,-2.0605,-2.0605,-2.0605,-2.0605,0.0,0.0,0.0,0.0,0.0,0.0,0.0,0.0,0.0,0.0,-2.0308,-2.0596,-2.2274,0.0,0.0,0.0,0.0,0.0,-2.5308,-2.5308,-2.5308,-2.5308,-2.5308,-2.5308,-2.5308,-2.5962,-2.6851,0.0,0.0,0.0,0.0,0.0,-3.0692,-3.1596,0.0,-3.391,-3.4776,-3.6353,-3.7546,0.0,0.0,-4.0092,-4.0458,-4.0496,-4.0496,-4.0496,-4.0496,-4.0496,-4.0496,-4.0496,-4.0496,-4.0496,-4.0496,-4.0496,-4.0496,-4.0496,-4.0496,-4.0496,-4.0496,-4.0496,-4.0496,-4.0496,-4.0496,-4.0496,0.0,-4.0496,-4.0496,-4.0496,-4.0496,-4.0496,-4.0496,-4.0496,-4.0481,-4.0339,-4.0101,-3.9765,0.0,0.0,0.0,0.0,0.0,0.0,0.0,0.0,0.0,0.0,0.0,0.0,0.0,0.0,0.0,0.0,0.0,0.0,0.0,0.0,-2.043,-2.0507,-2.0564,-2.0605,-2.0605,-2.0605,-2.0605,-2.0605,-2.0605,-2.0605,-2.0605,-2.0605,-2.0605,-2.0605,-2.0605,-2.0605,-2.0605,-2.0605,-2.0605,-2.0605,0.0,0.0,0.0,0.0,0.0,0.0,0.0,0.0,0.0,0.0,0.0,0.0,0.0,0.0,0.0,-2.4865,-2.5308,-2.5308,-2.5308,-2.5308,-2.5308,-2.5308,-2.5308,-2.5308,-2.5308,-2.6135,-2.7082,-2.7761,0.0,0.0,0.0,-3.0577,0.0,-3.2929,-3.3763,-3.4507,-3.5385,-3.6949,-3.8007,-3.8007,-3.9477,-4.0496,-4.0496,-4.0496,-4.0496,-4.0496,-4.0496,-4.0496,-4.0496,-4.0496,-4.0496,-4.0496,-4.0496,-4.0496,-4.0496,-4.0496,-4.0496,-4.0496,-4.0496,-4.0496,-4.0496,-4.0496,-4.0496,-4.0496,-4.0496,-4.0496,-4.0496,-4.0496,-4.0496,-4.0496,-4.0496,-4.0496,-4.0473,-4.0278,-3.9983,-3.9679,0.0,0.0,0.0,0.0,0.0,0.0,0.0,0.0,0.0,0.0,0.0,0.0,0.0,0.0,0.0,0.0,0.0,0.0,0.0,0.0,-2.043,-2.0507,-2.0564,-2.0605,-2.0605,-2.0605,-2.0605,-2.0605,-2.0605,-2.0605,-2.0605,-2.0605,-2.0605,-2.0605,-2.0605,-2.0605,-2.0605,-2.0605,-2.0605,-2.0586,-2.0538,0.0,0.0,0.0,0.0,0.0,0.0,0.0,0.0,0.0,0.0,0.0,0.0,0.0,-2.4182,-2.5058,-2.5308,-2.5308,-2.5308,-2.5308,-2.5308,-2.5308,-2.5308,-2.5308,-2.5308,-2.6601,-2.7818,-2.7895,0.0,0.0,0.0,-3.1058,-3.216,-3.384,-3.4167,-3.4507,-3.5385,0.0,-3.8007,-3.8007,-3.9477,-4.0496,-4.0496,-4.0496,-4.0496,-4.0496,-4.0496,-4.0496,-4.0496,-4.0496,-4.0496,-4.0496,-4.0496,-4.0496,-4.0496,-4.0496,-4.0496,-4.0496,-4.0496,-4.0496,-4.0496,-4.0496,-4.0496,-4.0496,-4.0496,-4.0496,-4.0496,-4.0496,-4.0496,-4.0496,-4.0496,-4.0496,-4.0496,-4.0481,-4.0313,-4.0071,0.0,0.0,0.0,0.0,0.0,0.0,0.0,0.0,0.0,0.0,0.0,0.0,0.0,0.0,0.0,0.0,0.0,0.0,0.0,0.0,-2.0485,-2.0563,-2.0586,-2.0605,-2.0605,-2.0605,-2.0605,-2.0605,-2.0605,-2.0605,-2.0605,-2.0605,-2.0605,-2.0605,-2.0605,-2.0605,-2.0605,-2.0605,-2.0585,-2.0539,-2.0511,-2.0444,0.0,0.0,0.0,0.0,0.0,0.0,0.0,0.0,-2.0827,-2.1658,0.0,-2.3394,-2.4259,-2.5058,-2.5308,-2.5308,-2.5308,-2.5308,-2.5308,-2.5308,-2.5308,-2.5308,-2.5308,-2.6659,-2.7895,-2.7895,-2.9236,0.0,0.0,0.0,-3.2833,-3.4013,-3.4641,-3.5115,-3.5442,-3.6949,-3.8007,-3.8007,-3.9477,-4.0496,-4.0496,-4.0496,-4.0496,-4.0496,-4.0496,-4.0496,-4.0496,-4.0496,-4.0496,-4.0496,-4.0496,-4.0496,-4.0496,-4.0496,-4.0496,-4.0496,-4.0496,-4.0496,-4.0496,-4.0496,-4.0496,-4.0496,-4.0496,-4.0496,-4.0496,-4.0496,-4.0496,-4.0496,-4.0496,-4.0496,-4.0496,-4.0496,-4.033,-4.0101,0.0,0.0,0.0,0.0,0.0,0.0,0.0,0.0,0.0,0.0,0.0,0.0,0.0,0.0,0.0,0.0,0.0,0.0,0.0,-2.0508,-2.0537,-2.0605,-2.0605,-2.0605,-2.0605,-2.0605,-2.0605,-2.0605,-2.0605,-2.0605,-2.0605,-2.0605,-2.0605,-2.0605,-2.0605,-2.0605,-2.0605,-2.0585,-2.054,-2.0506,-2.0446,-2.0374,0.0,0.0,0.0,0.0,0.0,0.0,0.0,0.0,-2.1235,0.0,0.0,0.0,0.0,0.0,-2.5308,-2.5308,-2.5308,-2.5308,-2.5308,-2.5308,-2.5308,-2.5365,-2.5654,-2.6851,-2.7972,-2.8222,-2.964,-3.1077,-3.1929,0.0,0.0,0.0,-3.5122,-3.55,-3.55,-3.6949,-3.8007,-3.8007,-3.9477,-4.0496,-4.0496,-4.0496,-4.0496,-4.0496,-4.0496,-4.0496,-4.0496,-4.0496,-4.0496,-4.0496,-4.0496,-4.0496,-4.0496,-4.0496,-4.0496,-4.0496,-4.0496,-4.0496,-4.0496,-4.0496,-4.0496,-4.0496,-4.0496,-4.0496,-4.0496,-4.0496,-4.0496,-4.0496,-4.0496,-4.0496,-4.0496,-4.0496,-4.0381,-4.0223,0.0,0.0,0.0,0.0,0.0,0.0,0.0,0.0,0.0,0.0,0.0,0.0,0.0,0.0,0.0,0.0,0.0,0.0,-2.0506,-2.0508,-2.0537,-2.0605,-2.0605,-2.0605,-2.0605,-2.0605,-2.0605,-2.0605,-2.0605,-2.0605,-2.0605,-2.0605,-2.0605,-2.0605,-2.0605,-2.0605,-2.0586,-2.0537,-2.0507,-2.0482,-2.0347,-2.031,-2.0298,0.0,0.0,0.0,0.0,0.0,0.0,0.0,-2.2081,-2.2951,0.0,0.0,0.0,-2.5308,-2.5308,-2.5308,-2.5308,-2.5308,-2.5308,-2.5308,-2.5308,-2.5519,-2.6409,-2.728,-2.8126,-2.8953,-3.0493,-3.1948,-3.2756,-3.3609,0.0,-3.5365,-3.55,-3.55,-3.55,-3.6949,-3.7988,-3.8007,-3.9477,-4.0496,-4.0496,-4.0496,-4.0496,-4.0496,-4.0496,-4.0496,-4.0496,-4.0496,-4.0496,-4.0496,-4.0496,-4.0496,-4.0496,-4.0496,-4.0496,-4.0496,-4.0496,-4.0496,-4.0496,-4.0496,-4.0496,-4.0496,-4.0496,-4.0496,-4.0496,-4.0496,-4.0496,-4.0496,-4.0496,-4.0496,-4.0496,-4.0496,-4.0496,-4.0496,0.0,0.0,0.0,0.0,0.0,0.0,0.0,0.0,0.0,0.0,0.0,0.0,0.0,0.0,0.0,0.0,0.0,0.0,-2.0564,-2.0565,-2.0585,-2.0605,-2.0605,-2.0605,-2.0605,-2.0605,-2.0605,-2.0605,-2.0605,-2.0605,-2.0605,-2.0605,-2.0605,-2.0605,-2.0542,-2.0537,-2.0536,-2.0468,-2.0391,-2.0349,-2.0327,-2.0296,-2.0292,0.0,0.0,0.0,0.0,0.0,0.0,0.0,0.0,0.0,0.0,0.0,0.0,-2.5308,-2.5308,-2.5308,-2.5308,-2.5308,-2.5308,-2.5363,0.0,0.0,0.0,-2.7771,0.0,0.0,-3.1024,-3.2077,-3.2826,-3.3685,0.0,-3.5366,-3.55,-3.55,-3.55,-3.6423,-3.7315,-3.793,-3.8969,-3.9881,-4.0458,-4.0496,-4.0496,-4.0496,-4.0496,-4.0496,-4.0496,-4.0496,-4.0496,-4.0496,-4.0496,-4.0496,-4.0496,-4.0496,-4.0496,-4.0496,-4.0496,-4.0496,-4.0496,-4.0496,-4.0496,-4.0496,-4.0496,-4.0496,-4.0496,-4.0496,-4.0496,-4.0496,-4.0496,-4.0496,-4.0496,-4.0496,-4.0496,-4.0496,0.0,0.0,0.0,0.0,0.0,0.0,0.0,0.0,0.0,0.0,-2.0368,-2.0425,0.0,0.0,0.0,0.0,0.0,0.0,0.0,0.0,-2.0605,-2.0605,-2.0605,-2.0605,-2.0605,-2.0605,-2.0605,-2.0605,-2.0605,-2.0605,-2.0605,-2.0605,-2.0585,-2.0563,-2.0514,-2.0482,-2.0467,-2.0381,-2.0332,-2.0307,-2.0292,-2.0303,-2.0308,0.0,0.0,0.0,0.0,0.0,0.0,0.0,0.0,0.0,-2.449,0.0,-2.5308,-2.5308,-2.5308,-2.5308,-2.5308,-2.5308,-2.5317,-2.5379,-2.5665,-2.6394,-2.8199,0.0,0.0,0.0,-3.1547,-3.2558,-3.2994,-3.4053,0.0,-3.5481,-3.5547,-3.5547,-3.5547,-3.6202,-3.6913,-3.7488,-3.859,-3.9496,-3.9977,-4.0304,-4.0496,-4.0496,-4.0496,-4.0496,-4.0496,-4.0496,-4.0496,-4.0496,-4.0496,-4.0496,-4.0496,-4.0496,-4.0496,-4.0496,-4.0496,-4.0496,-4.0496,-4.0496,-4.0496,-4.0496,-4.0496,-4.0496,-4.0496,-4.0496,-4.0496,-4.0496,-4.0496,-4.0496,-4.0496,-4.0496,-4.0496,-4.0496,0.0,0.0,0.0,0.0,0.0,0.0,0.0,0.0,0.0,0.0,-2.04,-2.0451,0.0,0.0,0.0,0.0,0.0,0.0,0.0,0.0,-2.0605,-2.0605,-2.0605,-2.0605,-2.0605,-2.0605,-2.0605,-2.0605,-2.0605,-2.0605,-2.0605,-2.0586,-2.0563,-2.0508,-2.0483,-2.0443,-2.0398,-2.0333,-2.0298,-2.0292,-2.0307,-2.0346,-2.0404,-2.0404,0.0,0.0,0.0,0.0,0.0,0.0,0.0,0.0,-2.5077,-2.5308,-2.5308,-2.5308,-2.5308,-2.5308,-2.5308,-2.5308,-2.5322,-2.5387,-2.6139,-2.7291,-2.9024,-3.0044,-3.0642,-3.0714,0.0,-3.3234,-3.3303,-3.4646,-3.5686,-3.5611,-3.5606,-3.5606,-3.5606,-3.6188,-3.6685,-3.6886,-3.8189,-3.9107,-3.9188,-3.9842,-4.0265,-4.0265,-4.0265,-4.0265,-4.0265,-4.0265,-4.0265,-4.0265,-4.0265,-4.0304,-4.04,-4.04,-4.0439,-4.0496,-4.0496,-4.0496,-4.0496,-4.0496,-4.0496,-4.0496,-4.0496,-4.0496,-4.0496,-4.0496,-4.0496,-4.0496,-4.0496,-4.0496,-4.0496,-4.0496,-4.0496,-4.0496,0.0,0.0,0.0,0.0,0.0,0.0,0.0,0.0,0.0,0.0,0.0,0.0,0.0,0.0,0.0,0.0,0.0,0.0,0.0,0.0,-2.0605,-2.0605,-2.0605,-2.0605,-2.0605,-2.0605,-2.0605,-2.0605,-2.0605,-2.0605,-2.0605,-2.0541,-2.0512,-2.0506,-2.0381,-2.0349,-2.033,-2.0304,-2.0304,-2.03,-2.0296,-2.0673,-2.1235,-2.1235,-2.1773,0.0,0.0,0.0,0.0,0.0,0.0,0.0,-2.525,-2.5308,-2.5308,-2.5308,-2.5308,-2.5308,-2.5308,-2.5308,0.0,-2.5453,-2.6731,-2.8234,-2.9311,-3.0229,-3.1006,-3.1588,-3.258,-3.3543,-3.4176,-3.5143,-3.5827,-3.5709,-3.5675,-3.5675,-3.5675,-3.5826,-3.6157,-3.6816,-3.7204,-3.7636,-3.8214,-3.843,-3.8546,-3.8546,-3.8546,-3.8546,-3.8546,-3.8546,-3.8546,-3.8546,-3.8546,-3.8873,-3.9554,-3.9554,-3.9881,-4.0496,-4.0496,-4.0496,-4.0496,-4.0496,-4.0496,-4.0496,-4.0496,-4.0496,-4.0496,-4.0496,-4.0496,-4.0496,-4.0496,-4.0496,-4.0496,-4.0496,-4.0496,-4.0496,0.0,0.0,0.0,0.0,0.0,0.0,0.0,0.0,0.0,0.0,0.0,0.0,0.0,0.0,0.0,0.0,0.0,0.0,0.0,0.0,0.0,-2.0605,-2.0605,-2.0605,-2.0605,-2.0605,-2.0605,-2.0605,-2.0564,-2.0542,-2.0542,-2.0513,-2.0472,-2.0391,-2.0324,-2.0308,-2.0304,-2.0292,-2.0519,-2.0865,-2.0865,-2.1389,-2.212,-2.212,-2.2663,-2.3413,-2.3413,0.0,0.0,0.0,0.0,0.0,0.0,0.0,-2.5308,-2.5308,-2.5308,-2.5303,-2.5344,-2.5357,0.0,-2.6541,0.0,-2.9141,-3.0019,-3.0566,-3.1132,-3.1928,-3.2791,-3.3535,-3.3957,-3.5087,-3.5918,-3.5809,-3.5799,-3.5799,-3.5799,-3.5729,-3.5878,-3.6354,-3.6735,-3.7104,-3.7473,-3.7912,-3.8139,-3.8139,-3.8079,-3.8054,-3.8054,-3.8019,-3.8007,-3.8007,-3.8007,-3.8219,-3.8661,-3.8681,-3.8892,-3.9296,-3.9296,-3.9296,-3.9335,-4.0131,-4.0496,-4.0496,-4.0496,-4.0496,-4.0496,-4.0496,-4.0496,-4.0496,-4.0496,-4.0496,-4.0496,-4.0496,-4.0496,-4.0496,0.0,0.0,0.0,0.0,0.0,0.0,0.0,0.0,0.0,0.0,0.0,0.0,0.0,0.0,0.0,0.0,0.0,0.0,0.0,0.0,0.0,0.0,-2.0605,-2.0605,-2.0605,-2.0586,-2.0585,-2.0585,-2.0513,-2.0477,-2.0472,-2.0472,-2.0414,-2.031,-2.0295,-2.0385,-2.05,-2.05,-2.0981,-2.1716,-2.1716,-2.2254,-2.3028,-2.3028,-2.3567,-2.4317,-2.4317,-2.4736,-2.5308,-2.5308,0.0,0.0,0.0,0.0,-2.5308,-2.5308,-2.5308,-2.5313,-2.5379,-2.5503,-2.6094,-2.795,-2.9018,0.0,-3.0703,-3.0898,-3.1094,-3.1836,-3.2734,-3.3457,-3.3594,-3.4922,-3.5975,-3.5938,-3.5913,-3.5913,-3.5913,-3.5821,-3.5785,-3.5898,-3.6443,-3.6803,-3.6782,-3.744,-3.7844,-3.7844,-3.7744,-3.7672,-3.7672,-3.7604,-3.7565,-3.7565,-3.7565,-3.7642,-3.7777,-3.7777,-3.7853,-3.8007,-3.8007,-3.8007,-3.8046,-3.9438,-4.015,-4.0304,-4.0439,-4.0496,-4.0496,-4.0496,-4.0496,-4.0496,-4.0496,-4.0496,-4.0496,-4.0496,-4.0496,-4.0496,0.0,0.0,0.0,0.0,0.0,0.0,0.0,0.0,0.0,0.0,-2.0586,-2.0605,0.0,0.0,0.0,0.0,0.0,0.0,0.0,0.0,0.0,0.0,-2.0605,-2.0605,-2.0605,-2.054,-2.0512,-2.0512,-2.0441,-2.0377,-2.0322,-2.0322,-2.033,-2.0307,-2.031,-2.0689,-2.135,-2.135,-2.1831,-2.2624,-2.2624,-2.3144,-2.3937,-2.3937,-2.4432,-2.5135,-2.5135,-2.5212,-2.5308,-2.5308,-2.5308,0.0,0.0,0.0,-2.5308,-2.5308,-2.5308,-2.5288,-2.5308,0.0,-2.7043,0.0,-2.9468,-2.9824,0.0,0.0,-3.0937,0.0,-3.2305,-3.3633,-3.4394,-3.5332,-3.5996,-3.5995,-3.5995,-3.5995,-3.5995,-3.5975,-3.595,-3.5907,-3.5994,-3.6009,-3.5885,-3.5976,-3.6054,-3.6054,-3.5974,-3.5935,-3.5935,-3.5868,-3.5827,-3.5827,-3.5827,-3.6173,-3.6865,-3.6865,-3.7257,-3.8007,-3.8007,-3.8007,-3.8007,-3.8238,-3.8738,-3.9496,-4.0208,-4.0496,-4.0496,-4.0496,-4.0496,-4.0496,-4.0496,-4.0496,-4.0496,-4.0496,-4.0496,-4.0496,0.0,0.0,0.0,0.0,0.0,0.0,0.0,0.0,0.0,0.0,0.0,-2.0605,0.0,0.0,0.0,0.0,0.0,0.0,0.0,0.0,0.0,0.0,-2.0605,-2.0585,-2.0541,-2.0513,-2.048,-2.044,-2.039,-2.0322,-2.0307,-2.0762,-2.0738,-2.0313,-2.077,-2.1173,-2.1523,-2.2023,-2.274,-2.3528,-2.3528,-2.4028,-2.4774,-2.4774,-2.4981,-2.5308,-2.5308,-2.5308,-2.5308,-2.5308,-2.5308,-2.5308,-2.5308,0.0,0.0,0.0,-2.5308,-2.5418,-2.5983,-2.7193,-2.8515,0.0,-2.994,-3.043,-3.0801,-3.0898,-3.0898,-3.0898,-3.1875,-3.2988,-3.3828,-3.4687,-3.543,-3.5918,-3.5996,-3.5996,-3.5996,-3.5996,-3.5996,-3.5951,-3.597,-3.5927,-3.5874,-3.5872,-3.5872,-3.5872,-3.5802,-3.5775,-3.5775,-3.5631,-3.557,-3.557,-3.5515,-3.5673,-3.6019,-3.6038,-3.6212,-3.6596,-3.6596,-3.6596,-3.6615,-3.7065,-3.7757,-3.8584,-3.895,-3.9104,-3.9142,-3.9631,-3.9823,-3.9881,-4.0323,-4.0496,-4.0496,-4.0496,-4.0496,-4.0496,0.0,0.0,0.0,0.0,0.0,0.0,0.0,0.0,0.0,0.0,0.0,0.0,0.0,0.0,0.0,0.0,0.0,0.0,0.0,0.0,0.0,0.0,0.0,-2.0536,-2.0477,-2.0468,-2.0427,-2.0368,-2.0532,-2.0605,-2.0624,-2.1444,-2.1504,-2.0966,-2.1562,-2.1947,-2.2197,-2.2855,-2.3624,-2.4394,-2.4394,-2.4755,-2.5308,-2.5308,-2.5308,-2.5308,-2.5308,-2.5308,-2.5308,-2.5308,-2.5308,-2.5308,-2.5308,-2.5308,0.0,0.0,0.0,-2.588,0.0,0.0,-2.9572,-2.9863,-3.043,-3.0898,0.0,0.0,-3.0898,0.0,-3.1426,-3.2129,-3.2949,-3.3789,-3.457,-3.5234,-3.5527,-3.5664,-3.5664,-3.5859,-3.5996,-3.5996,-3.5996,-3.5996,-3.5996,-3.5996,-3.5996,-3.5996,-3.5944,-3.5901,-3.5901,-3.5702,-3.5611,-3.5611,-3.5534,-3.55,-3.55,-3.55,-3.55,-3.55,-3.55,-3.55,-3.5519,-3.6115,-3.675,-3.7392,-3.7815,-3.8007,-3.8046,-3.87,-3.8977,-3.9034,-3.9631,-3.9996,-4.0208,-4.0208,-4.0323,-4.0496,0.0,0.0,0.0,0.0,0.0,0.0,0.0,0.0,0.0,0.0,0.0,0.0,0.0,0.0,-2.0605,-2.0605,0.0,0.0,0.0,0.0,0.0,0.0,0.0,0.0,-2.0412,-2.0337,-2.0319,-2.0316,-2.1077,-2.1435,-2.1455,-2.2336,-2.272,-2.2663,-2.272,-2.3182,-2.3975,-2.4014,-2.4509,-2.525,-2.525,-2.5269,-2.5308,-2.5308,-2.5308,-2.5308,-2.5308,-2.5308,-2.5308,-2.5308,-2.5308,-2.5308,-2.5308,-2.5308,-2.5308,0.0,0.0,0.0,0.0,-2.8741,0.0,-3.0605,-3.0879,-3.0898,0.0,0.0,-3.0898,-3.0898,-3.0937,-3.123,-3.2109,-3.293,-3.3476,-3.3535,-3.4238,-3.4766,-3.4766,-3.5488,-3.5996,-3.5996,-3.5996,-3.5996,-3.5996,-3.5996,-3.5996,-3.5996,-3.5944,-3.5901,-3.5901,-3.5702,-3.5611,-3.5611,-3.5534,-3.55,-3.55,-3.55,-3.55,-3.55,-3.55,-3.55,-3.55,-3.5538,-3.5596,-3.5712,-3.7315,-3.8007,-3.8007,-3.8046,-3.8065,-3.8065,-3.8104,-3.8623,-3.9361,-3.9361,-3.9842,-4.0496,0.0,0.0,0.0,0.0,0.0,0.0,0.0,0.0,0.0,0.0,0.0,0.0,0.0,-2.1094,-2.1425,-2.1376,-2.1845,0.0,0.0,0.0,0.0,0.0,0.0,0.0,0.0,-2.1985,-2.1942,-2.1903,-2.2198,-2.2331,-2.235,-2.322,-2.3624,-2.3624,-2.3624,-2.3802,-2.4129,-2.4639,-2.5038,-2.5308,-2.5308,-2.5308,-2.5308,-2.5308,-2.5308,-2.5317,-2.5346,-2.5339,-2.5298,-2.5346,-2.5367,-2.5363,-2.5352,-2.5398,-2.5544,-2.6094,-2.7288,0.0,0.0,0.0,0.0,-3.0781,-3.0898,-3.0898,-3.0898,-3.0898,-3.0898,-3.0898,-3.0898,-3.0996,-3.1309,-3.2051,-3.2793,-3.332,-3.3652,-3.3867,-3.3867,-3.4121,-3.4336,-3.4336,-3.4336,-3.4336,-3.4336,-3.4336,-3.4336,-3.4336,-3.4314,-3.4292,-3.4292,-3.4183,-3.4361,-3.4886,-3.4801,-3.4981,-3.5481,-3.55,-3.55,-3.55,-3.55,-3.55,-3.55,-3.55,-3.55,-3.5538,-3.6135,-3.6404,-3.6442,-3.6949,-3.718,-3.7219,-3.7777,-3.818,-3.8469,-3.8469,-3.8988,-3.9727,0.0,0.0,0.0,0.0,0.0,0.0,0.0,0.0,0.0,0.0,0.0,0.0,0.0,0.0,-2.2245,-2.22,-2.2693,-2.3001,-2.3001,-2.2981,0.0,0.0,0.0,0.0,0.0,-2.2585,-2.2555,-2.2797,-2.2797,-2.2951,-2.3259,-2.4105,-2.4509,-2.4509,-2.4509,-2.4509,-2.4548,-2.5077,-2.5308,-2.5308,-2.5308,-2.5308,-2.5308,-2.5308,-2.5308,-2.5303,-2.5372,-2.5364,-2.5333,-2.5404,-2.5434,-2.5489,-2.579,-2.6101,-2.6491,-2.7079,0.0,0.0,-2.9485,0.0,0.0,0.0,-3.0898,-3.0898,-3.0898,-3.0898,-3.0898,-3.0898,-3.0898,-3.0898,-3.0898,-3.1367,-3.1934,-3.2461,-3.2812,-3.3008,-3.3008,-3.3223,-3.3398,-3.3398,-3.3398,-3.3398,-3.3398,-3.3398,-3.3398,-3.3398,-3.3398,0.0,-3.3398,-3.3344,-3.3502,-3.3977,-3.3897,-3.4087,-3.4615,-3.4635,-3.4769,-3.5064,-3.5064,-3.5212,-3.55,-3.55,-3.55,-3.55,-3.55,-3.55,-3.5538,-3.6077,-3.6308,-3.6346,-3.693,-3.7334,-3.7565,-3.7565,-3.8123,-3.8854,0.0,0.0,0.0,0.0,0.0,0.0,0.0,0.0,0.0,0.0,0.0,0.0,0.0,0.0,0.0,-2.3077,-2.3074,-2.3072,-2.3072,-2.3011,0.0,0.0,0.0,0.0,0.0,-2.2043,-2.2023,-2.2874,-2.2874,-2.3317,-2.4149,-2.4928,-2.5308,-2.5308,-2.5308,-2.5308,-2.5308,-2.5308,-2.5308,-2.5308,-2.5308,-2.5308,-2.5308,-2.5288,-2.5293,-2.5313,-2.5379,-2.5397,-2.5411,-2.551,0.0,0.0,-2.6573,-2.7437,-2.8143,0.0,0.0,0.0,0.0,0.0,0.0,-3.0898,-3.0898,-3.0898,-3.0898,-3.0898,-3.0898,-3.0898,-3.0898,-3.0898,-3.0898,-3.0898,-3.0898,-3.0898,-3.1601,-3.2168,-3.2168,-3.2832,-3.332,-3.332,-3.332,-3.332,-3.332,-3.332,-3.332,-3.332,-3.332,-3.332,-3.332,-3.3285,-3.317,-3.2972,-3.2937,-3.2897,-3.2891,-3.2891,-3.3314,-3.4167,-3.4167,-3.4622,-3.5462,-3.5462,-3.5481,-3.55,-3.55,-3.55,-3.55,-3.55,-3.55,-3.55,-3.55,-3.5981,-3.6654,-3.6654,-3.7219,-3.7969,0.0,0.0,0.0,0.0,0.0,0.0,0.0,0.0,0.0,0.0,0.0,0.0,0.0,0.0,-2.4051,-2.4681,-2.4691,-2.4662,-2.4662,-2.4656,-2.4638,-2.4638,-2.461,0.0,-2.4615,-2.4365,-2.4365,-2.4615,-2.4615,-2.4731,-2.4962,-2.5192,-2.5308,-2.5308,-2.5308,-2.5308,-2.5308,-2.5308,-2.5308,-2.5308,-2.5308,-2.5308,-2.5317,-2.5346,-2.536,-2.5391,-2.5493,-2.5503,-2.5573,0.0,-2.6505,-2.6667,-2.7586,-2.8489,-2.9193,0.0,0.0,0.0,-3.0506,0.0,0.0,0.0,0.0,0.0,-3.0898,-3.0898,-3.0898,-3.0898,-3.0898,-3.0898,-3.0898,-3.0898,-3.0898,-3.0898,-3.1094,-3.1269,-3.1269,-3.1445,-3.1582,-3.1582,-3.1582,-3.1582,-3.1582,-3.1582,-3.1582,0.0,-3.1582,-3.1582,-3.1582,-3.2074,-3.2313,-3.2213,-3.2701,-3.296,-3.2891,-3.2891,-3.3026,-3.3256,-3.3256,-3.3718,-3.4564,-3.4564,-3.4911,-3.55,-3.55,-3.55,-3.55,-3.55,-3.55,-3.55,-3.55,-3.5635,-3.5827,-3.5827,-3.6346,-3.7065,0.0,0.0,0.0,0.0,0.0,0.0,0.0,0.0,0.0,0.0,0.0,0.0,0.0,0.0,-2.481,-2.5301,-2.5312,-2.5308,-2.5308,-2.5308,-2.5308,-2.5308,-2.5308,0.0,-2.5308,-2.4962,-2.4962,-2.5308,-2.4962,-2.4962,0.0,0.0,0.0,-2.5308,-2.5308,-2.5308,-2.5327,-2.5692,-2.5635,-2.5308,-2.5308,-2.5308,-2.5293,-2.5348,-2.5604,-2.5961,-2.6059,-2.6336,-2.6708,-2.729,-2.7727,0.0,0.0,0.0,0.0,0.0,0.0,0.0,0.0,0.0,0.0,-3.0898,0.0,0.0,-3.0898,-3.0898,-3.0898,-3.0898,-3.0898,-3.0898,-3.0898,-3.0898,-3.0898,-3.0898,-3.0898,-3.0898,-3.0898,-3.0898,-3.0898,-3.0898,-3.0898,-3.0898,-3.0898,-3.0898,-3.0898,-3.0898,-3.0898,-3.0898,-3.0898,-3.1256,-3.1428,-3.1361,-3.1747,-3.1916,-3.1852,-3.1872,-3.2045,-3.241,-3.241,-3.2833,-3.366,-3.4032,-3.4468,-3.4988,-3.5346,-3.55,-3.55,-3.55,-3.55,-3.55,-3.55,-3.55,-3.55,-3.55,-3.5808,-3.6192,0.0,0.0,0.0,0.0,0.0,0.0,0.0,0.0,0.0,0.0,0.0,0.0,0.0,0.0,0.0,0.0,-2.5538,-2.5596,-2.5596,-2.55,0.0,0.0,0.0,0.0,0.0,0.0,0.0,0.0,0.0,0.0,0.0,0.0,0.0,0.0,0.0,0.0,-2.55,-2.6365,-2.6288,-2.5596,-2.5596,-2.5596,-2.5601,-2.5611,-2.6125,-2.6873,-2.6936,-2.7496,-2.8229,-2.8398,-2.9023,0.0,0.0,0.0,0.0,0.0,-3.0898,0.0,0.0,0.0,0.0,-3.0898,-3.0898,0.0,-3.0898,-3.0898,-3.0898,-3.0898,-3.0898,-3.0898,-3.0898,-3.0898,-3.0898,-3.0898,-3.0898,-3.0898,-3.0898,-3.0898,-3.0898,-3.0898,-3.0898,-3.0898,-3.0898,-3.0898,-3.0898,-3.0898,-3.0898,-3.0898,-3.0898,-3.0792,-3.0682,-3.062,-3.0544,-3.0495,-3.0414,-3.0408,-3.0806,-3.1564,-3.1564,-3.1987,-3.2795,-3.3564,-3.4013,-3.4244,-3.5026,-3.5404,-3.55,-3.55,-3.55,-3.55,-3.55,-3.55,-3.55,-3.55,-3.55,-3.55,0.0,0.0,0.0,0.0,0.0,0.0,0.0,0.0,0.0,0.0,0.0,0.0,0.0,0.0,0.0,0.0,-2.6986,-2.739,-2.739,-2.6736,0.0,0.0,0.0,0.0,0.0,0.0,0.0,0.0,0.0,0.0,0.0,0.0,0.0,0.0,0.0,0.0,-2.6404,-2.7274,-2.7544,-2.739,-2.739,-2.739,-2.7397,-2.7508,-2.7672,-2.784,-2.7952,-2.8123,-2.8398,-2.9101,-2.9922,-3.0644,0.0,0.0,0.0,-3.0898,0.0,0.0,0.0,0.0,0.0,0.0,-3.0898,0.0,-3.0898,-3.0898,-3.0898,-3.0898,-3.0898,-3.0898,-3.0898,-3.0898,-3.0898,-3.0898,-3.0898,-3.0898,-3.0898,-3.0898,-3.0898,-3.0898,-3.0898,-3.0898,-3.0898,-3.0898,-3.0898,-3.0898,-3.0898,-3.0898,-3.0898,-3.0878,-3.0813,-3.0684,-3.0673,-3.0592,-3.0486,-3.0482,-3.0544,-3.0654,-3.0654,-3.1096,-3.1948,-3.2102,-3.291,-3.4205,-3.4379,-3.4853,-3.55,-3.55,-3.55,-3.55,-3.55,-3.55,-3.55,-3.55,-3.55,-3.55,0.0,0.0,0.0,0.0,0.0,0.0,0.0,0.0,0.0,0.0,0.0,0.0,0.0,0.0,0.0,0.0,0.0,0.0,0.0,0.0,0.0,0.0,0.0,0.0,0.0,0.0,0.0,0.0,0.0,0.0,0.0,0.0,0.0,0.0,0.0,-2.7255,-2.7294,-2.8145,-2.8492,-2.8453,-2.8068,-2.7918,-2.7951,-2.8023,-2.8363,-2.8817,-2.8874,-2.9197,-2.9668,-3.0098,-3.0547,0.0,-3.0898,-3.0898,-3.0898,0.0,-3.0898,-3.0898,0.0,0.0,0.0,-3.0898,0.0,0.0,0.0,-3.0898,-3.0898,-3.0898,-3.0898,-3.0898,-3.0898,-3.0898,-3.0898,-3.0898,-3.0898,-3.0898,-3.0898,-3.0898,-3.0898,-3.0898,-3.0898,-3.0898,-3.0898,-3.0898,-3.0898,-3.0898,-3.0898,-3.0898,-3.0898,-3.0898,-3.0837,-3.0696,-3.0695,-3.0639,-3.054,-3.0528,-3.0486,-3.0456,-3.0419,-3.0635,-3.1077,-3.1506,-3.216,-3.3006,-3.384,-3.4449,-3.4891,-3.5327,-3.55,-3.55,-3.55,-3.55,-3.55,-3.55,-3.55,-3.55,-2.3386,0.0,0.0,0.0,0.0,0.0,0.0,0.0,0.0,0.0,0.0,0.0,0.0,-2.7644,-2.8126,0.0,0.0,0.0,0.0,0.0,0.0,0.0,0.0,-2.7895,0.0,0.0,0.0,0.0,0.0,0.0,0.0,0.0,0.0,0.0,0.0,-2.8126,-2.8184,-2.9011,-2.9357,-2.93,-2.864,-2.8405,-2.8464,-2.8489,-2.9005,-2.9715,-2.9768,-3.0269,-3.0898,-3.0898,-3.0898,-3.0898,-3.0898,-3.0898,0.0,0.0,0.0,0.0,0.0,0.0,0.0,0.0,0.0,-3.0898,0.0,0.0,0.0,-3.0898,-3.0898,-3.0898,-3.0898,0.0,0.0,-3.0684,0.0,0.0,0.0,-3.0781,0.0,-3.0898,-3.0898,-3.0898,-3.0898,-3.0898,-3.0898,-3.0898,-3.0898,-3.0898,-3.0898,-3.0898,-3.0857,-3.0744,-3.0744,-3.0705,-3.0628,-3.0565,-3.0525,-3.0498,-3.0451,-3.0414,-3.0423,-3.1135,-3.1545,-3.1775,-3.3122,-3.3898,-3.4244,-3.4968,-3.5346,-3.55,-3.55,-3.55,-3.55,-3.55,-3.55,-3.55,-2.4414,-2.4257,0.0,0.0,0.0,0.0,0.0,0.0,0.0,0.0,0.0,-2.7766,-2.7757,-2.8478,-2.8953,-2.8953,-2.9679,0.0,-3.0115,0.0,0.0,0.0,0.0,0.0,-2.7895,0.0,0.0,0.0,0.0,0.0,0.0,0.0,0.0,0.0,-2.8646,-2.8953,-2.903,-2.989,-3.025,-3.0231,-3.0154,-3.0127,-3.0133,-3.0257,-3.0389,-3.0499,-3.0675,-3.0801,-3.0898,0.0,-3.0898,-3.0898,0.0,-3.0898,-3.0898,-3.0898,0.0,0.0,0.0,0.0,0.0,0.0,-3.0898,0.0,-3.0898,0.0,-3.0898,-3.0898,0.0,-3.0898,-3.0898,0.0,0.0,0.0,0.0,0.0,-2.9863,-3.041,-3.0898,-3.0898,-3.0898,-3.0898,-3.0898,-3.0898,-3.0898,-3.0898,-3.0898,-3.0898,-3.0898,-3.0898,-3.0898,-3.0879,-3.0879,-3.0815,-3.0689,-3.0684,-3.0628,-3.0498,-3.0485,-3.0457,-3.0404,-3.05,-3.0962,-3.1718,-3.191,-3.2833,-3.4205,-3.4321,-3.4795,-3.55,-3.55,-3.55,-3.55,-3.55,-3.55,-3.55,-2.5166,-2.5109,0.0,0.0,0.0,0.0,0.0,0.0,0.0,0.0,0.0,-2.8607,-2.8607,-2.9352,-2.9852,-2.9852,-3.0192,-3.0404,-3.0404,0.0,0.0,0.0,0.0,0.0,0.0,0.0,0.0,0.0,-2.8607,0.0,0.0,0.0,0.0,0.0,-2.9698,-2.9852,-2.989,-3.0231,-3.0404,-3.0404,-3.0404,-3.0417,0.0,-3.0558,-3.0674,-3.0783,-3.0878,-3.0898,-3.0898,0.0,-3.0898,0.0,0.0,0.0,0.0,-3.0898,0.0,0.0,0.0,0.0,0.0,0.0,0.0,0.0,-3.0898,0.0,-3.0898,0.0,0.0,0.0,0.0,0.0,0.0,0.0,-3.0664,-3.0762,0.0,0.0,-3.0898,-3.0898,0.0,0.0,-3.0898,-3.0898,-3.0898,-3.0898,-3.0898,-3.0898,-3.0898,-3.0898,-3.0898,-3.0898,-3.0898,-3.0878,-3.0816,-3.0744,-3.0642,-3.057,-3.0513,-3.0453,-3.0404,-3.0404,-3.0596,-3.0962,-3.1487,-3.2352,-3.3487,-3.3994,-3.4718,-3.55,-3.55,-3.55,-3.55,-3.55,-3.55,-3.55,-2.5928,-2.575,-2.5602,-2.5602,0.0,0.0,0.0,0.0,0.0,0.0,-2.8953,-2.9467,-2.9467,-3.0019,-3.0404,-3.0404,-3.0404,-3.0404,-3.0404,0.0,-3.0404,0.0,0.0,0.0,0.0,0.0,0.0,0.0,0.0,0.0,0.0,0.0,0.0,0.0,0.0,-3.0404,-3.0404,-3.0404,-3.0404,-3.0404,-3.0404,-3.0442,-3.0537,-3.0609,-3.0732,-3.0898,-3.0898,-3.0898,-3.0898,-3.0898,-3.0898,0.0,-3.0898,-3.0898,-3.0898,0.0,0.0,0.0,-3.0898,0.0,0.0,0.0,0.0,0.0,0.0,0.0,0.0,0.0,0.0,0.0,0.0,0.0,0.0,0.0,0.0,-3.082,0.0,-3.0547,0.0,-3.0879,0.0,0.0,0.0,-3.0898,-3.0898,-3.0898,-3.0898,-3.0898,-3.0898,-3.0898,-3.0898,-3.0898,-3.0898,-3.0898,-3.0898,-3.0794,-3.071,-3.0633,-3.0554,-3.0485,-3.0428,-3.0402,-3.0404,-3.0442,-3.1077,-3.1814,-3.2641,-3.3487,-3.4353,-3.5173,-3.5404,-3.55,-3.55,-3.55,-3.55,-3.55,-2.6762,-2.6135,-2.5602,-2.5602,-2.6299,0.0,0.0,0.0,0.0,-2.9066,-2.9813,-3.0365,-3.0365,-3.0385,-3.0404,-3.0404,-3.0404,-3.0404,-3.0404,0.0,-3.0404,0.0,0.0,-3.0404,0.0,0.0,0.0,0.0,0.0,0.0,0.0,0.0,0.0,0.0,-3.0404,-3.0404,-3.0404,-3.0404,-3.0404,-3.0404,-3.0404,-3.0477,-3.0609,0.0,-3.0771,-3.0898,-3.0898,0.0,0.0,-3.0898,-3.0898,0.0,0.0,0.0,0.0,0.0,0.0,0.0,0.0,0.0,0.0,-3.0898,0.0,0.0,0.0,0.0,-3.0898,0.0,0.0,0.0,0.0,0.0,0.0,0.0,0.0,0.0,0.0,0.0,-2.9941,-3.0801,-3.0898,0.0,0.0,-3.0898,-3.0898,-3.0898,-3.0898,-3.0898,-3.0898,-3.0898,-3.0898,-3.0898,-3.0898,-3.0898,-3.0898,-3.0898,-3.0836,-3.0693,-3.0636,-3.0554,-3.049,-3.0433,-3.0404,-3.0404,-3.0423,-3.0942,-3.1795,-3.2602,-3.3449,-3.434,-3.5173,-3.55,-3.55,-3.55,-3.55,-3.55,-2.7531,-2.7342,-2.7206,-2.7252,-2.7454,-2.7888,-2.8613,-2.896,-2.9324,-2.9896,-3.0212,-3.0404,-3.0404,-3.0404,-3.0404,-3.0404,-3.0404,-3.0404,-3.0404,-3.0404,0.0,-3.0404,-3.0404,-3.0404,0.0,0.0,0.0,0.0,0.0,0.0,0.0,0.0,0.0,0.0,0.0,-3.0404,-3.0404,-3.0404,0.0,0.0,0.0,-3.0551,-3.0611,0.0,-3.0771,-3.0898,-3.0898,-3.0898,0.0,-3.0898,-3.0898,-3.0898,-3.0898,-3.0898,-3.0898,-3.0898,-3.0898,-3.0898,0.0,0.0,-3.0898,-3.0898,0.0,0.0,0.0,0.0,0.0,0.0,0.0,0.0,0.0,0.0,0.0,0.0,0.0,0.0,0.0,-2.9961,-2.9492,-2.9219,-2.918,-2.918,0.0,0.0,-3.0039,-3.0039,-3.0566,-3.0898,-3.0898,-3.0898,-3.0898,-3.0898,-3.0898,-3.0898,-3.0898,-3.0898,-3.0837,-3.0695,-3.068,-3.0621,-3.0558,-3.0494,-3.0472,-3.0467,-3.0411,-3.0885,-3.1756,-3.2564,-3.341,-3.4282,-3.5154,-3.55,-3.55,-3.55,-3.55,-3.55,-2.8338,-2.8362,-2.8311,-2.8096,-2.8276,-2.8684,-2.9451,-2.9563,-2.9756,-3.0327,-3.0404,-3.0404,-3.0404,-3.0404,-3.0404,-3.0404,-3.0404,-3.0538,-3.0846,-3.0577,0.0,-3.0846,-3.0577,-3.0404,0.0,0.0,0.0,0.0,0.0,-3.0404,0.0,0.0,0.0,0.0,0.0,-3.0404,-3.0404,-3.0404,-3.0404,0.0,0.0,-3.0603,0.0,0.0,-3.0816,-3.0898,0.0,-3.0898,-3.0898,-3.0898,-3.0898,-3.0898,-3.0898,-3.0898,-3.0898,-3.0898,-3.0898,-3.0898,-3.0898,-3.0898,0.0,-3.0898,-3.0898,0.0,-3.0898,0.0,-3.0898,0.0,0.0,0.0,0.0,0.0,0.0,0.0,0.0,0.0,0.0,-2.9492,-2.8691,-2.7519,-2.793,-2.8418,-2.873,-2.8984,-2.9394,-3.0019,-3.0293,-3.0566,-3.0879,-3.0898,-3.0898,-3.0898,-3.0898,-3.0898,-3.0898,-3.0898,-3.0858,-3.077,-3.0721,-3.065,-3.06,-3.0529,-3.0495,-3.0467,-3.0431,-3.0712,-3.1327,-3.2449,-3.3237,-3.3853,-3.5038,-3.55,-3.55,-3.55,-3.55,-3.55,-2.9165,-2.9165,-2.8934,-2.8229,-2.875,-2.9521,-3.0287,-3.0404,-3.0404,-3.0404,-3.0404,-3.0423,-3.0462,-3.0462,-3.0481,-3.0519,-3.0519,-3.0885,-3.1718,-3.0942,0.0,0.0,-3.0865,-3.0404,-3.0404,0.0,0.0,0.0,0.0,0.0,0.0,0.0,0.0,0.0,-3.0404,0.0,-3.0404,-3.0404,-3.041,-3.0419,-3.0552,-3.0606,-3.0625,-3.0813,-3.0898,-3.0898,-3.0898,-3.0898,-3.0898,-3.0898,-3.0898,-3.0898,-3.0898,-3.0898,-3.0898,-3.0898,-3.0898,-3.0898,-3.0898,-3.0898,-3.0898,-3.0898,-3.0898,0.0,0.0,0.0,-3.0898,0.0,0.0,0.0,0.0,0.0,0.0,0.0,0.0,0.0,0.0,0.0,-2.7656,-2.5918,-2.7207,-2.8535,-2.9336,-2.873,-2.8984,-3.0644,-3.0039,-2.998,-3.0859,-3.0859,-3.0859,-3.0898,-3.0898,-3.0898,-3.0898,-3.0898,-3.0898,-3.0898,-3.077,-3.0675,-3.0611,-3.0545,-3.0467,-3.0408,-3.0416,-3.039,-3.0538,-3.2179,-3.2852,-3.3064,-3.4769,-3.5462,-3.55,-3.55,-3.55,-3.55,-3.0077,-3.0077,-3.0012,-2.9814,-2.9955,-3.0155,-3.0371,-3.0404,-3.0404,-3.0404,-3.0404,-3.0654,-3.1288,-3.1371,-3.1621,-3.2218,-3.2256,0.0,0.0,0.0,0.0,-3.1698,-3.0865,-3.0404,-3.0404,-3.0404,-3.0404,-3.0404,0.0,0.0,-3.0404,0.0,0.0,0.0,0.0,-3.0404,-3.0404,-3.0404,-3.0433,-3.0486,-3.0561,-3.0638,-3.0684,0.0,-3.0898,-3.0898,-3.0898,-3.0898,-3.0898,-3.0898,-3.0898,-3.0898,-3.0898,-3.0898,-3.0898,-3.0898,-3.0898,-3.0898,-3.0898,-3.0898,-3.0898,-3.0898,-3.0898,-3.0898,0.0,0.0,0.0,0.0,0.0,0.0,0.0,0.0,0.0,0.0,0.0,0.0,0.0,0.0,-2.7656,-2.5918,-2.668,-2.7168,-2.6738,-2.7676,-2.8496,-2.8926,-2.9355,-2.998,-3.0859,0.0,-3.0234,-3.0879,-3.0898,-3.0898,-3.0898,-3.0898,-3.0898,-3.0898,-3.0878,-3.0836,-3.0812,-3.07,-3.06,-3.0552,-3.049,-3.0451,-3.0481,-3.1564,-3.2352,-3.3006,-3.4103,-3.493,-3.55,-3.55,-3.55,-3.55,-3.0404,-3.0404,-3.0404,-3.0404,-3.0404,-3.0404,-3.0404,-3.0712,0.0,-3.0962,-3.1269,0.0,-3.2179,-3.2218,-3.241,-3.2852,-3.2891,0.0,-3.343,0.0,0.0,-3.2776,-3.1621,-3.0962,-3.0962,-3.0596,0.0,-3.0404,0.0,0.0,-3.0404,0.0,0.0,0.0,0.0,-3.0404,-3.0404,-3.0404,-3.0436,-3.0511,-3.0571,-3.0648,0.0,-3.0857,-3.0898,-3.0898,-3.0898,-3.0898,-3.0898,-3.0898,-3.0898,-3.0898,-3.0898,-3.0898,-3.0898,-3.0898,-3.0898,-3.0898,-3.0898,-3.0898,-3.0898,-3.0898,-3.0898,-3.0898,-3.0898,-3.0898,-3.0898,0.0,-3.0898,-3.0898,0.0,0.0,0.0,0.0,0.0,0.0,0.0,0.0,0.0,-2.5918,-2.6133,-2.623,-2.5742,-2.7285,-2.8301,-2.8301,-2.875,-2.9414,-3.0293,0.0,-3.0,-3.0879,-3.0898,-3.0898,-3.0898,-3.0898,-3.0898,-3.0898,-3.0898,-3.0878,-3.0815,-3.0723,-3.0669,-3.06,-3.0529,-3.0509,-3.0559,-3.1366,-3.2196,-3.3078,-3.4283,-3.5064,-3.55,-3.55,-3.55,-3.55,-3.0404,-3.0404,-3.0404,-3.0404,-3.05,0.0,0.0,-3.1212,0.0,-3.1698,0.0,-3.2949,-3.3064,-3.3064,-3.3122,-3.3237,-3.3237,-3.3564,-3.4321,-3.3545,-3.341,-3.4167,-3.2699,-3.1814,-3.1698,-3.0962,-3.0519,0.0,0.0,0.0,0.0,0.0,0.0,0.0,0.0,0.0,0.0,-3.0404,-3.0446,-3.0513,-3.0575,-3.0652,-3.0744,-3.0858,-3.0898,-3.0898,-3.0898,-3.0898,-3.0898,-3.0898,-3.0898,-3.0898,-3.0898,-3.0898,-3.0898,-3.0898,-3.0898,-3.0898,-3.0898,-3.0898,-3.0898,-3.0898,-3.0898,-3.0898,-3.0898,-3.0898,-3.0898,-3.0898,-3.0898,-3.0898,-3.0898,0.0,0.0,0.0,0.0,0.0,0.0,0.0,0.0,0.0,-2.5977,0.0,-2.5723,-2.7168,-2.8125,-2.8125,-2.8125,-2.8555,-2.9551,0.0,-2.9883,-3.0879,-3.0898,-3.0898,-3.0898,-3.0898,-3.0898,-3.0898,-3.0898,-3.0837,-3.0721,-3.0721,-3.0679,-3.0617,-3.0544,-3.0559,-3.0636,-3.1289,-3.2122,-3.3175,-3.4847,-3.55,-3.55,-3.55,-3.55,-3.55,-3.0404,-3.0404,-3.0404,-3.0404,-3.0981,-3.1468,-3.1468,-3.1602,-3.1698,-3.1698,-3.241,-3.316,-3.3898,-3.3975,-3.4257,-3.4981,-3.5038,0.0,0.0,0.0,0.0,-3.4186,-3.3237,-3.2372,-3.1718,-3.1545,-3.1115,0.0,0.0,0.0,0.0,0.0,0.0,0.0,0.0,0.0,-3.0404,-3.0404,0.0,-3.0584,-3.06,-3.0714,-3.0878,-3.0898,-3.0898,-3.0898,-3.0898,-3.0898,-3.0898,-3.0898,-3.0898,-3.0898,-3.0898,-3.0898,-3.0898,-3.0898,-3.0898,-3.0898,-3.0898,-3.0898,-3.0898,-3.0898,-3.0898,-3.0898,-3.0898,-3.0898,-3.0898,-3.0898,-3.0898,-3.0898,-3.0898,0.0,0.0,0.0,0.0,0.0,0.0,0.0,0.0,0.0,0.0,-2.7285,-2.584,-2.6621,-2.7226,-2.7226,-2.7226,-2.793,0.0,0.0,-2.9258,0.0,-3.0898,-3.0898,0.0,0.0,-3.0898,-3.0898,-3.0898,-3.0898,-3.0858,-3.0858,-3.0793,-3.0684,-3.0675,-3.0617,-3.0532,-3.0715,-3.1658,-3.3175,-3.4847,-3.55,-3.55,-3.55,-3.55,-3.55,-3.0404,-3.075,-3.1077,-3.1077,0.0,0.0,0.0,-3.2718,-3.3006,-3.3006,-3.3737,-3.441,-3.4834,-3.4872,-3.5045,-3.5462,-3.55,-3.55,-3.55,-3.5122,-3.4872,-3.4872,-3.4045,-3.3391,-3.3006,-3.2141,-3.1487,-3.1077,0.0,0.0,0.0,0.0,0.0,-3.0404,0.0,-3.0404,0.0,0.0,0.0,-3.0603,-3.0603,-3.0719,-3.0898,-3.0898,-3.0898,-3.0898,-3.0898,-3.0898,-3.0898,-3.0898,-3.0898,-3.0898,-3.0898,-3.0898,-3.0898,-3.0898,-3.0898,-3.0898,-3.0898,-3.0898,-3.0898,-3.0898,-3.0898,-3.0898,-3.0898,-3.0898,-3.0898,-3.0898,-3.0898,-3.0898,-3.0898,-3.0898,0.0,0.0,0.0,0.0,0.0,0.0,-2.9121,0.0,0.0,0.0,-2.6504,-2.6758,-2.6992,-2.6992,-2.6992,0.0,0.0,0.0,-2.9101,0.0,0.0,0.0,-3.0898,0.0,-3.0898,-3.0898,-3.0898,-3.0898,-3.0898,-3.0898,-3.0858,-3.0794,-3.0722,-3.0703,-3.0778,-3.1631,-3.2444,-3.3261,-3.4919,-3.5558,-3.5546,-3.5515,-3.55,-3.55,-3.0923,-3.1481,0.0,0.0,-3.2622,-3.3179,-3.3179,-3.391,-3.4417,-3.4225,-3.4968,-3.55,-3.55,-3.55,-3.55,-3.55,-3.55,-3.55,-3.55,-3.55,-3.55,-3.55,-3.4834,-3.4398,-3.4205,-3.291,-3.2141,0.0,0.0,0.0,0.0,0.0,0.0,0.0,0.0,0.0,0.0,0.0,-3.0495,-3.0606,-3.0623,-3.0728,-3.0898,-3.0898,-3.0898,-3.0898,-3.0898,-3.0898,-3.0898,-3.0898,-3.0898,-3.0898,-3.0898,-3.0898,-3.0898,-3.0898,-3.0898,-3.0898,-3.0898,-3.0898,-3.0898,-3.0898,-3.0898,-3.0898,-3.0898,-3.0898,-3.0898,-3.0898,-3.0898,-3.0898,-3.0898,-3.0898,0.0,0.0,0.0,0.0,0.0,0.0,-2.9355,0.0,0.0,0.0,-2.7324,-2.6934,-2.6875,-2.7246,-2.7109,0.0,-2.9238,0.0,0.0,0.0,0.0,-3.0898,-3.0898,0.0,-3.0898,-3.0898,-3.0898,-3.0898,-3.0898,-3.0898,-3.0898,-3.0898,-3.0792,-3.0794,-3.1015,-3.2628,-3.3268,-3.3384,-3.4997,-3.5611,-3.5602,-3.5562,-3.5534,-3.5534,0.0,0.0,0.0,0.0,0.0,-3.409,-3.409,-3.4814,-3.5084,-3.4302,-3.4968,-3.55,-3.55,-3.55,-3.55,-3.55,-3.55,-3.55,-3.55,-3.55,-3.55,-3.55,-3.5423,-3.5007,-3.4225,-3.4052,-3.3583,0.0,0.0,-3.1583,0.0,0.0,0.0,0.0,0.0,0.0,0.0,-3.0453,-3.0533,-3.0611,-3.0671,-3.0769,-3.0898,-3.0898,-3.0898,-3.0898,-3.0898,-3.0898,-3.0898,-3.0898,-3.0898,-3.0898,-3.0898,-3.0898,-3.0898,-3.0898,-3.0898,-3.0898,-3.0898,-3.0898,-3.0898,-3.0898,-3.0898,-3.0898,-3.0898,-3.0898,-3.0898,-3.0898,-3.0898,-3.0898,-3.0898,-3.0898,-3.0898,0.0,0.0,0.0,0.0,0.0,-2.957,-2.9492,0.0,0.0,-2.8105,-2.6758,-2.6484,-2.8066,-2.7441,0.0,0.0,0.0,0.0,-3.0879,-3.0898,-3.0898,-3.0898,-3.0898,-3.0898,-3.0898,-3.0898,-3.0898,-3.0898,-3.0898,-3.0898,-3.0898,-3.0898,-3.0898,-3.1015,-3.2574,-3.3237,-3.3446,-3.5061,-3.5693,-3.5689,-3.5682,-3.5678,-3.5678,0.0,0.0,0.0,0.0,0.0,0.0,0.0,-3.5269,-3.5558,-3.568,-3.5577,-3.5673,-3.6173,-3.6212,-3.6423,-3.6949,-3.7007,-3.6769,-3.625,-3.6212,-3.6,-3.5519,-3.55,-3.5346,-3.4988,-3.4468,-3.4032,0.0,0.0,0.0,0.0,0.0,0.0,0.0,0.0,-3.0417,-3.0467,-3.05,-3.0853,-3.1432,-3.1471,-3.1846,-3.2402,-3.2402,-3.2402,-3.2402,-3.2402,-3.209,-3.168,-3.168,-3.1328,-3.0898,-3.0898,-3.0898,-3.0898,-3.0898,-3.0898,-3.0898,-3.0898,-3.0898,-3.0898,-3.0898,-3.0898,-3.0898,-3.0898,-3.0898,-3.0898,-3.0898,-3.0898,-3.0898,-3.0898,-3.0898,-3.0898,-3.0898,0.0,0.0,0.0,0.0,0.0,-3.0371,0.0,-2.9277,-2.9101,-2.7988,-2.7559,0.0,0.0,0.0,0.0,0.0,0.0,-3.0859,0.0,-3.0898,-3.0898,-3.0898,-3.0898,-3.0898,-3.0898,-3.0898,-3.0898,-3.0898,-3.0898,-3.0898,-3.0898,-3.1191,-3.1777,-3.2861,-3.3639,-3.425,-3.5385,-3.5812,-3.5807,-3.5723,-3.5707,-3.5707,-3.366,0.0,-3.4584,0.0,-3.5295,-3.5846,-3.5846,-3.6077,-3.6442,-3.7007,-3.6596,-3.6442,-3.7026,-3.7084,-3.7334,-3.795,-3.8007,-3.7738,-3.7123,-3.7084,-3.6712,-3.5885,-3.5846,0.0,-3.5519,-3.4911,-3.4584,-3.4584,-3.3699,0.0,0.0,0.0,0.0,0.0,-3.1174,-3.1216,-3.1267,-3.1313,-3.1721,-3.2377,-3.2406,-3.2808,-3.3398,-3.3398,-3.3398,-3.3398,-3.3398,-3.3027,-3.2559,-3.2559,-3.1992,-3.123,-3.0976,-3.0898,-3.0898,-3.0898,-3.0898,-3.0898,-3.0898,-3.0898,-3.0898,-3.0898,-3.0898,-3.0898,-3.0898,-3.0898,-3.0898,-3.0898,-3.0898,-3.0898,-3.0898,-3.0898,-3.0898,-3.0898,0.0,0.0,0.0,-3.0684,0.0,-3.0879,-3.0449,-3.0098,-2.998,-2.8965,-2.8418,0.0,0.0,0.0,0.0,0.0,0.0,0.0,0.0,0.0,-3.0898,-3.0898,-3.0898,-3.0898,-3.0898,-3.0898,-3.0898,-3.0898,-3.0898,-3.0898,-3.0898,-3.1387,-3.2266,-3.3066,-3.3906,-3.4785,-3.5616,-3.5939,-3.5917,-3.5828,-3.5792,-3.5792,-3.5462,-3.5481,-3.5481,-3.5481,-3.6154,-3.6692,-3.6692,-3.743,-3.7969,-3.7988,-3.7988,-3.7969,-3.7988,-3.7988,-3.7988,-3.8007,-3.8007,-3.8007,-3.7988,-3.7988,-3.7603,0.0,0.0,-3.6308,-3.5519,-3.5481,-3.5481,-3.5481,0.0,0.0,-3.4148,0.0,-3.2872,-3.2878,-3.301,-3.3073,-3.3072,-3.3212,-3.3275,-3.3297,-3.3357,-3.3398,-3.3398,-3.3398,-3.3398,-3.3398,-3.3398,-3.3398,-3.3398,-3.3398,-3.2851,-3.2031,-3.1172,-3.0898,-3.0898,-3.0898,-3.0898,-3.0898,-3.0898,-3.0898,-3.0898,-3.0898,-3.0898,-3.0898,-3.0898,-3.0898,-3.0898,-3.0898,-3.0898,-3.0898,-3.0898,-3.0898,-3.0898,-3.0898,0.0,0.0,0.0,-3.0156,0.0,-3.0801,-2.9375,-2.9004,-3.0723,-2.9316,-2.8652,0.0,0.0,0.0,0.0,0.0,0.0,-3.0898,-3.0898,0.0,-3.0898,-3.0898,-3.0898,-3.0898,-3.0898,-3.0898,-3.0898,-3.0898,-3.0898,-3.0898,-3.0898,-3.1387,-3.2266,-3.3066,-3.3906,-3.4785,-3.5664,-3.5996,-3.5996,-3.5996,-3.5996,-3.5996,-3.6327,-3.6788,-3.7199,-3.7199,-3.743,-3.7584,-3.7584,-3.7815,-3.82,-3.8815,-3.8892,-3.9111,-3.965,-3.9207,-3.9111,0.0,-3.9708,-3.9477,0.0,-3.8892,-3.8507,-3.7623,-3.7019,-3.6577,-3.6327,-3.5788,-3.55,-3.55,0.0,0.0,0.0,-3.3314,-3.2891,-3.2917,-3.3049,-3.3132,-3.3163,-3.3267,-3.3678,-3.4256,-3.4277,-3.4648,-3.5176,-3.5176,-3.5176,-3.5176,-3.5176,-3.4785,-3.4297,-3.4297,-3.3711,-3.2871,-3.2051,-3.1387,-3.0898,-3.0898,-3.0898,-3.0898,-3.0898,-3.0898,-3.0898,-3.0898,-3.0898,-3.0898,-3.0898,-3.0898,-3.0898,-3.0898,-3.0898,-3.0898,-3.0898,-3.0898,-3.0898,-3.0898,-3.0898,0.0,-3.0898,0.0,-3.0586,-3.0879,-3.041,-3.0293,-3.0859,-2.9863,0.0,0.0,0.0,0.0,0.0,0.0,0.0,0.0,-3.0898,0.0,-3.0898,-3.0898,-3.0898,-3.0898,-3.0898,-3.0898,-3.0898,-3.0898,-3.0898,-3.0937,-3.1523,-3.2246,-3.3086,-3.3945,-3.4805,-3.5605,-3.5898,-3.5996,-3.5996,-3.5996,-3.5996,-3.5996,-3.7194,-3.7623,-3.8007,-3.8007,-3.8277,-3.8488,-3.8488,-3.8738,-3.9123,-3.9688,-3.9746,-3.9938,-4.0458,-4.0054,0.0,-4.0458,-4.0496,-4.0285,-3.9785,-3.9746,-3.9381,-3.8527,-3.7969,-3.7373,-3.6712,-3.6212,0.0,-3.55,-3.55,-3.5232,-3.4704,-3.4164,-3.3923,-3.3968,-3.4097,-3.4173,-3.4216,-3.4293,-3.4645,-3.5195,-3.5195,-3.5508,-3.5996,-3.5996,-3.5996,-3.5996,-3.5996,-3.5644,-3.5195,-3.5195,-3.4609,-3.3809,-3.3301,-3.2324,-3.1328,-3.0996,-3.0898,-3.0898,-3.0898,-3.0898,-3.0898,-3.0898,-3.0898,-3.0898,-3.0898,-3.0898,-3.0898,-3.0898,-3.0898,-3.0898,-3.0898,-3.0898,-3.0898,-3.0898,-3.0898,-3.0898,-3.0898,0.0,-3.0898,0.0,0.0,-3.0898,0.0,-3.041,-3.0312,0.0,0.0,0.0,0.0,0.0,-3.0332,-3.0879,-3.0898,-3.0898,-3.0898,-3.0898,-3.0898,-3.0898,-3.0898,-3.0898,-3.0898,-3.0898,-3.0898,-3.0957,-3.1816,-3.2656,-3.3476,-3.4336,-3.5215,-3.5996,-3.5996,-3.5996,-3.5996,-3.5996,-3.5996,-3.5996,-3.8143,-3.8166,-3.8197,0.0,-3.8857,-3.9395,-3.9381,-4.0015,-4.0496,-4.0496,-4.0496,-4.0496,-4.0496,-4.0496,-4.0496,-4.0496,0.0,0.0,-4.0496,-4.0496,-4.0169,-3.9419,-3.9323,-3.8546,-3.6923,-3.675,-3.6308,-3.55,-3.55,-3.5534,-3.5611,-3.5611,-3.5639,-3.571,-3.5841,-3.5901,-3.5905,-3.5973,-3.5996,-3.5996,-3.5996,-3.5996,-3.5996,-3.5996,-3.5996,-3.5996,-3.5996,-3.5996,-3.5996,-3.5996,-3.5469,-3.4785,-3.4726,-3.3633,-3.2187,-3.1269,-3.0957,-3.0898,-3.0898,-3.0898,-3.0898,-3.0898,-3.0898,-3.0898,-3.0898,-3.0898,-3.0898,-3.0898,-3.0898,-3.0898,-3.0898,-3.0898,-3.0898,-3.0898,-3.0898,-3.0898,-3.0898,-3.0898,-3.0898,-3.0898,0.0,0.0,-3.0898,-3.0898,-3.0898,0.0,0.0,0.0,0.0,0.0,-3.0898,-3.0898,-3.0898,-3.0898,-3.0898,-3.0898,-3.0898,-3.0898,-3.0898,-3.0898,-3.0898,-3.0898,-3.0937,-3.1035,-3.1914,-3.2734,-3.3555,-3.4434,-3.5273,-3.5996,-3.5996,-3.5996,-3.5996,-3.5996,-3.5996,-3.5996,0.0,0.0,-4.0126,-4.0068,-4.0236,-4.0333,-4.0231,-4.0381,-4.0496,-4.0496,-4.0496,-4.0496,-4.0496,-4.0496,-4.0496,-4.0496,-4.0496,-4.0496,-4.0496,-4.0496,-4.0419,-4.0227,-3.9631,-3.9111,-3.8681,-3.7392,-3.6308,-3.55,-3.55,-3.5534,-3.5611,-3.5611,-3.5639,-3.571,-3.5841,-3.5901,-3.5905,-3.5973,-3.5996,-3.5996,-3.5996,-3.5996,-3.5996,-3.5996,-3.5996,-3.5996,-3.5996,-3.5996,-3.5996,-3.5996,-3.5859,-3.5586,-3.4902,-3.4434,-3.3828,-3.2324,-3.1426,-3.0898,-3.0898,-3.0898,-3.0898,-3.0898,-3.0898,-3.0898,-3.0898,-3.0898,-3.0898,-3.0898,-3.0898,-3.0898,-3.0898,-3.0898,-3.0898,-3.0898,-3.0898,-3.0898,-3.0898,-3.0898,-3.0898,0.0,-3.0898,-3.0898,-3.0898,-3.0898,-3.0898,0.0,0.0,-3.0898,-3.0898,-3.0898,-3.0898,-3.0898,-3.0898,-3.0898,-3.0898,-3.0898,-3.0898,-3.0898,-3.0898,-3.0898,-3.0898,-3.0898,-3.1269,-3.1934,-3.2754,-3.3594,-3.4453,-3.5332,-3.5801,-3.5996,-3.5996,-3.5996,-3.5996,-3.5996,-3.5996,-3.5996,-4.0154,-4.049,-4.08,-4.0752,-4.0757,-4.0717,-4.0659,-4.0617,-4.0582,-4.0582,-4.053,-4.0496,-4.0496,-4.0496,-4.0496,-4.0496,-4.0496,-4.0496,-4.0496,-4.0496,-4.0496,-4.0496,-4.0073,-3.9688,-3.9304,-3.8373,-3.7319,-3.6144,-3.6162,-3.6033,-3.5748,-3.5748,-3.5777,-3.5841,-3.5901,-3.5947,-3.5948,-3.5976,-3.5996,-3.5996,-3.5996,-3.5996,-3.5996,-3.5996,-3.5996,-3.5996,-3.5996,-3.5996,-3.5996,-3.5996,-3.5996,-3.5918,-3.5449,-3.5019,-3.4512,-3.3613,-3.2461,-3.1406,-3.1016,-3.0898,-3.0898,-3.0898,-3.0898,-3.0898,-3.0898,-3.0898,-3.0898,-3.0898,-3.0898,-3.0898,-3.0898,-3.0898,-3.0898,-3.0898,-3.0898,-3.0898,-3.0898,-3.0898,-3.0898,-3.0898,-3.0898,-3.0898,-3.0898,-3.0898,-3.0898,-3.0898,-3.0898,0.0,-3.0898,-3.0898,-3.0898,-3.0898,-3.0898,-3.0898,-3.0898,-3.0898,-3.0898,-3.0898,-3.0898,-3.0898,-3.0918,-3.1309,-3.1758,-3.2266,-3.3476,-3.4258,-3.4766,-3.5644,-3.5996,-3.5996,-3.5996,-3.5996,-3.5996,-3.5996,-3.5996,-3.5996,-4.0877,-4.0864,-4.0857,-4.0824,-4.082,-4.0816,-4.0801,-4.0752,-4.0713,-4.0713,-4.0616,-4.0542,-4.0542,-4.0512,-4.0496,-4.0496,-4.0496,-4.0496,-4.0496,-4.0496,-4.0496,-4.0496,-4.0496,-4.0185,-3.954,-3.9396,-3.8614,-3.7113,-3.7168,-3.6824,-3.6097,-3.6097,-3.606,-3.5996,-3.5996,-3.5996,-3.5996,-3.5996,-3.5996,-3.5996,-3.5996,-3.5996,-3.5996,-3.5996,-3.5996,-3.5996,-3.5996,-3.5996,-3.5996,-3.5996,-3.5996,-3.5996,-3.5996,-3.5488,-3.4863,-3.4746,-3.3691,-3.2363,-3.1367,-3.0996,-3.0898,-3.0898,-3.0898,-3.0898,-3.0898,-3.0898,-3.0898,-3.0898,-3.0898,-3.0898,-3.0898,-3.0898,-3.0898,-3.0898,-3.0898,-3.0898,-3.0898,0.0,-3.0898,-3.0898,-3.0898,-3.0898,-3.0898,-3.0898,-3.0898,-3.0898,-3.0898,-3.0898,-3.0898,-3.0898,-3.0898,-3.0898,-3.0898,-3.0898,-3.0898,-3.0898,-3.0898,-3.0898,-3.0898,-3.0976,-3.1113,-3.1855,-3.2344,-3.2656,-3.4082,-3.4766,-3.4941,-3.5684,-3.5996,-3.5996,-3.5996,-3.5996,-3.5996,-3.5996,-3.5996,-3.5996,-4.1149,-4.1149,-4.1103,-4.0992,-4.0964,-4.0925,-4.0813,-4.0785,-4.0773,-4.0773,-4.0721,-4.0661,-4.0661,-4.0574,-4.0496,-4.0496,-4.0496,-4.0496,-4.0496,-4.0496,-4.0496,-4.0496,-4.0496,-4.0494,-4.0487,-3.9869,-3.9062,-3.8073,-3.8088,-3.7723,-3.6996,-3.6996,-3.6645,-3.5996,-3.5996,-3.5996,-3.5996,-3.5996,-3.5996,-3.5996,-3.5996,-3.5996,-3.5996,-3.5996,-3.5996,-3.5996,-3.5996,-3.5996,-3.5996,-3.5996,-3.5996,-3.5996,-3.5996,-3.5918,-3.5644,-3.4922,-3.4512,-3.3965,-3.2422,-3.1465,-3.0898,-3.0898,-3.0898,-3.0898,-3.0898,-3.0898,-3.0898,-3.0898,-3.0898,-3.0898,-3.0898,-3.0898,-3.0898,-3.0898,-3.0898,-3.0898,-3.0898,0.0,-3.0898,-3.0898,-3.0898,-3.0898,-3.0898,-3.0898,-3.0898,-3.0898,-3.0898,-3.0898,-3.0898,-3.0898,-3.0898,-3.0898,-3.0898,-3.0898,-3.0898,-3.0898,-3.0898,-3.0898,-3.0898,-3.1289,-3.1992,-3.2148,-3.2969,-3.4336,-3.459,-3.5117,-3.5801,-3.5937,-3.5996,-3.5996,-3.5996,-3.5996,-3.5996,-3.5996,-3.5996,-3.5996,-4.1191,-4.1191,-4.1171,-4.1126,-4.1104,-4.1081,-4.1025,-4.0957,-4.0911,-4.0911,-4.0813,-4.0757,-4.0757,-4.0701,-4.0663,-4.0663,-4.0663,-4.0663,-4.0663,-4.0556,-4.0496,-4.0496,-4.0574,-4.0648,-4.0752,-4.0484,-3.9925,-3.9048,-3.9121,-3.8751,-3.7942,-3.7942,-3.7751,-3.7383,-3.6914,-3.6699,-3.668,-3.6191,-3.5996,-3.5996,-3.5996,-3.5996,-3.5996,-3.5996,-3.5996,-3.5996,-3.5996,-3.5996,-3.5996,-3.5996,-3.5996,-3.5996,-3.5996,-3.5996,-3.5918,-3.5527,-3.4746,-3.373,-3.2539,-3.1914,-3.1484,-3.1016,-3.0898,-3.0898,-3.0898,-3.0898,-3.0898,-3.0898,-3.0898,-3.0898,-3.0898,-3.0898,-3.0898,-3.0898,-3.0898,-3.0898,-3.0898,-3.0898,-3.0898,-3.0898,-3.0898,-3.0898,-3.0898,-3.0898,-3.0898,-3.0898,-3.0898,-3.0898,-3.0898,-3.0898,-3.0898,-3.0898,-3.0898,-3.0898,-3.0898,-3.0898,-3.0898,-3.0918,-3.1387,-3.1816,-3.2226,-3.3125,-3.3965,-3.4726,-3.5195,-3.5625,-3.5996,-3.5996,-3.5996,-3.5996,-3.5996,-3.5996,-3.5996,-3.5996,-3.5996,-3.5996,-4.1191,-4.1191,-4.1191,-4.1191,-4.1191,-4.1191,-4.1191,-4.1105,-4.1051,-4.1051,-4.0925,-4.0854,-4.0854,-4.0813,-4.0797,-4.0797,-4.0797,-4.0797,-4.0797,-4.0651,-4.057,-4.057,-4.0707,-4.0785,-4.085,-4.0986,-4.0719,-4.0054,-4.0154,-3.9766,-3.8906,-3.8906,-3.8789,-3.8574,-3.7891,-3.7598,-3.7559,-3.668,-3.6309,-3.6289,-3.6074,-3.5996,-3.5996,-3.5996,-3.5996,-3.5996,-3.5996,-3.5996,-3.5996,-3.5996,-3.5996,-3.5996,-3.5996,-3.5996,-3.5996,-3.5996,-3.5059,-3.3789,-3.2754,-3.2344,-3.2031,-3.1367,-3.1055,-3.0898,-3.0898,-3.0898,-3.0898,-3.0898,-3.0898,-3.0898,-3.0898,-3.0898,-3.0898,-3.0898,0.0,-3.0898,-3.0898,-3.0898,-3.0898,-3.0898,-3.0898,-3.0898,-3.0898,-3.0898,-3.0898,-3.0898,-3.0898,-3.0898,-3.0898,-3.0898,-3.0898,-3.0898,-3.0898,-3.0898,-3.0898,-3.0898,-3.0996,-3.1211,-3.1875,-3.2402,-3.2812,-3.4101,-3.4805,-3.5039,-3.5703,-3.5996,-3.5996,-3.5996,-3.5996,-3.5996,-3.5996,-3.5996,-3.5996,-3.5996,-3.5996,-3.5996,-4.1191,-4.1191,-4.1191,-4.1191,-4.1191,-4.1191,-4.1191,-4.1191,-4.1191,-4.1191,-4.1077,-4.099,-4.099,-4.087,-4.0797,-4.0797,-4.0797,-4.0797,-4.0797,-4.0785,-4.0777,-4.0777,-4.0905,-4.0986,-4.099,-4.1126,-4.1152,-4.1093,-4.1094,-4.0664,-3.9805,-3.9805,-3.9375,-3.8594,-3.8535,-3.8496,-3.8457,-3.7578,-3.7207,-3.7129,-3.6328,-3.5996,-3.5996,-3.5996,-3.5996,-3.5996,-3.5996,-3.5996,-3.5996,-3.5996,-3.5996,-3.5996,-3.5996,-3.5996,-3.5996,-3.5996,-3.5918,-3.5449,-3.3769,-3.2773,-3.2187,-3.2129,-3.1504,-3.0898,-3.0898,-3.0898,-3.0898,-3.0898,-3.0898,-3.0898,-3.0898,-3.0898,-3.0898,-3.0898,0.0,0.0,-3.0898,-3.0898,-3.0898,-3.0898,-3.0898,-3.0898,-3.0898,-3.0898,-3.0898,-3.0898,-3.0898,-3.0898,-3.0898,-3.0898,-3.0898,-3.0898,-3.0898,-3.0898,-3.0898,-3.0898,-3.1309,-3.2109,-3.2168,-3.3008,-3.4512,-3.4648,-3.5137,-3.5918,-3.5976,-3.5996,-3.5996,-3.5996,-3.5996,-3.5996,-3.5996,-3.5996,-3.5996,-3.5996,-3.5996,-3.5996,-4.1191,-4.1191,-4.1191,-4.1191,-4.1191,-4.1191,-4.1191,-4.1191,-4.1191,-4.1191,-4.115,-4.1127,-4.1127,-4.108,-4.1051,-4.1051,-4.1051,-4.1051,-4.1051,-4.0964,-4.092,-4.092,-4.0964,-4.1049,-4.1126,-4.1171,-4.1191,-4.1191,-4.1191,-4.1035,-4.0703,-4.0703,-4.0527,-4.0195,-3.9648,-3.9414,-3.9355,-3.8476,-3.7793,-3.7266,-3.6934,-3.6484,-3.5996,-3.5996,-3.5996,-3.5996,-3.5996,-3.5996,-3.5996,-3.5996,-3.5996,-3.5996,-3.5996,-3.5996,-3.5996,-3.5996,-3.5996,-3.5859,-3.5195,-3.4394,-3.3496,-3.2461,-3.1953,-3.1562,-3.1016,-3.0898,-3.0898,-3.0898,-3.0898,-3.0898,-3.0898,-3.0898,-3.0898,-3.0898,0.0,-3.0898,-3.0898,-3.0898,-3.0898,-3.0898,-3.0898,-3.0898,-3.0898,-3.0898,-3.0898,-3.0898,-3.0898,-3.0898,-3.0898,-3.0898,-3.0898,-3.0898,-3.1426,-3.1445,-3.0918,-3.1445,-3.1875,-3.2207,-3.3242,-3.4082,-3.4726,-3.5254,-3.5684,-3.5996,-3.5996,-3.5996,-3.5996,-3.5996,-3.5996,-3.5996,-3.5996,-3.5996,-3.5996,-3.5996,-3.5996,-3.5996,-4.1191,-4.1191,-4.1191,-4.1191,-4.1191,-4.1191,-4.1191,-4.1191,-4.1191,-4.1191,-4.1191,-4.1191,-4.1191,-4.1191,-4.1191,-4.1191,-4.1191,-4.1191,-4.1191,-4.1106,-4.1031,-4.0996,-4.1049,-4.1104,-4.1191,-4.1191,-4.1191,-4.1191,-4.1191,-4.1191,-4.1191,-4.1191,-4.1191,-4.1172,-4.0586,-4.0312,-4.0254,-3.9375,-3.8652,-3.8086,-3.7812,-3.7187,-3.6406,-3.6406,-3.623,-3.5996,-3.5996,-3.5996,-3.5996,-3.5996,-3.5996,-3.5996,-3.5996,-3.5996,-3.5996,-3.5996,-3.5996,-3.5996,-3.5996,-3.5566,-3.4766,-3.334,-3.2773,-3.2344,-3.1504,-3.1309,-3.123,-3.0957,-3.0898,-3.0898,-3.0898,-3.0898,-3.0898,-3.0898,-3.0898,-3.0898,-3.0898,-3.0898,-3.0898,-3.0898,-3.0898,-3.0898,-3.0898,-3.0898,-3.0898,-3.0898,-3.0898,-3.0898,-3.0898,-3.1152,-3.1309,-3.1309,-3.2129,-3.2285,-3.1699,-3.2285,-3.2715,-3.3008,-3.4141,-3.4844,-3.5137,-3.5723,-3.5996,-3.5996,-3.5996,-3.5996,-3.5996,-3.5996,-3.5996,-3.5996,-3.5996,-3.5996,-3.5996,-3.5996,-3.5996,-3.5996,-4.1191,-4.1191,-4.1191,-4.1191,-4.1191,-4.1191,-4.1191,-4.1191,-4.1191,-4.1191,-4.1191,-4.1191,-4.1191,-4.1191,-4.1191,-4.1191,-4.1191,-4.1191,-4.1191,-4.1191,-4.1149,-4.1017,-4.1128,-4.1191,-4.1191,-4.1191,-4.1191,-4.1191,-4.1191,-4.1191,-4.1191,-4.1191,-4.1191,-4.1191,-4.1191,-4.1191,-4.1133,-4.0273,-3.9902,-3.9824,-3.8965,-3.8086,-3.7305,-3.7305,-3.6777,-3.6016,-3.6016,-3.6016,-3.5996,-3.5996,-3.5996,-3.5996,-3.5996,-3.5996,-3.5996,-3.5996,-3.5996,-3.5996,-3.5996,-3.5996,-3.5781,-3.4922,-3.4043,-3.3203,-3.2383,-3.2207,-3.1953,-3.1094,-3.0898,-3.0898,-3.0898,-3.0898,-3.0898,-3.0898,-3.0898,-3.0898,-3.0898,-3.0898,-3.0898,-3.0898,-3.0898,-3.0898,-3.0898,-3.0898,-3.0898,-3.0898,-3.0918,-3.0918,-3.0918,-3.1738,-3.2207,-3.2207,-3.2988,-3.3418,-3.3418,-3.3418,-3.3848,-3.4707,-3.4707,-3.5156,-3.5996,-3.5996,-3.5996,-3.5996,-3.5996,-3.5996,-3.5996,-3.5996,-3.5996,-3.5996,-3.5996,-3.5996,-3.5996,-3.5996,-3.5996,-3.5996,-4.1171,-4.1191,-4.1191,-4.1191,-4.1191,-4.1191,-4.1191,-4.1191,-4.1191,-4.1191,-4.1191,-4.1191,-4.1191,-4.1191,-4.1191,-4.1191,-4.1191,-4.1191,-4.1191,-4.1191,-4.1171,-4.1149,-4.1171,-4.1191,-4.1191,-4.1191,-4.1191,-4.1191,-4.1191,-4.1191,-4.1191,-4.1191,-4.1191,-4.1191,-4.1191,-4.1191,-4.1172,-4.0918,-4.0469,-3.9883,-3.9629,-3.8984,-3.8203,-3.8203,-3.7676,-3.6914,-3.6914,-3.6523,-3.5996,-3.5996,-3.5996,-3.5996,-3.5996,-3.5996,-3.5996,-3.5996,-3.5996,-3.5996,-3.5996,-3.5996,-3.5781,-3.4922,-3.4492,-3.4082,-3.3242,-3.2617,-3.2129,-3.1875,-3.1328,-3.0898,-3.0898,-3.0898,-3.0898,-3.0898,-3.0898,-3.0898,-3.0898,-3.0898,-3.0898,-3.0898,-3.0898,-3.0898,-3.0898,-3.0898,-3.0898,-3.0898,-3.1465,-3.2051,-3.2617,-3.2891,-3.3047,-3.3047,-3.3867,-3.4316,-3.4316,-3.4316,-3.4434,-3.4707,-3.5312,-3.5742,-3.5996,-3.5996,-3.5996,-3.5996,-3.5996,-3.5996,-3.5996,-3.5996,-3.5996,-3.5996,-3.5996,-3.5996,-3.5996,-3.5996,-3.5996,-3.5996,-4.1126,-4.1151,-4.1191,-4.1191,-4.1191,-4.1191,-4.1191,-4.1191,-4.1191,-4.1191,-4.1191,-4.1191,-4.1191,-4.1191,-4.1191,-4.1191,-4.1191,-4.1191,-4.1191,-4.1191,-4.1191,-4.1191,-4.1191,-4.1191,-4.1191,-4.1191,-4.1191,-4.1191,-4.1191,-4.1191,-4.1191,-4.1191,-4.1191,-4.1191,-4.1191,-4.1191,-4.1191,-4.1191,-4.0898,-4.041,-4.041,-3.9883,-3.9101,-3.9101,-3.8574,-3.7773,-3.7422,-3.6953,-3.6465,-3.6113,-3.5996,-3.5996,-3.5996,-3.5996,-3.5996,-3.5996,-3.5996,-3.5996,-3.5996,-3.5996,-3.5879,-3.5351,-3.5215,-3.498,-3.4101,-3.3535,-3.3086,-3.2754,-3.2266,-3.1797,-3.1465,-3.1406,-3.1309,-3.0957,-3.0898,-3.0898,-3.0898,-3.0898,-3.0898,-3.0898,-3.0898,-3.1035,-3.1387,-3.1406,-3.1543,-3.1855,-3.2383,-3.2891,-3.3379,-3.373,-3.3906,-3.3906,-3.4766,-3.5215,-3.5215,-3.5215,-3.5215,-3.5215,-3.5742,-3.5996,-3.5996,-3.5996,-3.5996,-3.5996,-3.5996,-3.5996,-3.5996,-3.5996,-3.5996,-3.5996,-3.5996,-3.5996,-3.5996,-3.5996,-3.5996,-3.5996,-4.1048,-4.1104,-4.1191,-4.1191,-4.1191,-4.1191,-4.1191,-4.1191,-4.1191,-4.1191,-4.1191,-4.1191,-4.1191,-4.1191,-4.1191,-4.1191,-4.1191,-4.1191,-4.1191,-4.1191,-4.1191,-4.1191,-4.1191,-4.1191,-4.1191,-4.1191,-4.1191,-4.1191,-4.1191,-4.1191,-4.1191,-4.1191,-4.1191,-4.1191,-4.1191,-4.1191,-4.1191,-4.1191,-4.1191,-4.1191,-4.1191,-4.0723,-4.0019,-4.0019,-3.9473,-3.8613,-3.7812,-3.748,-3.7285,-3.6406,-3.6055,-3.5996,-3.5996,-3.5996,-3.5996,-3.5996,-3.5996,-3.5996,-3.5996,-3.5996,-3.5996,-3.5996,-3.5996,-3.5781,-3.5,-3.4766,-3.4473,-3.3672,-3.3457,-3.3184,-3.2441,-3.2305,-3.2051,-3.125,-3.1113,-3.1113,-3.1113,-3.1113,-3.1113,-3.1113,-3.1113,-3.1445,-3.2226,-3.2305,-3.2637,-3.3457,-3.3516,-3.3555,-3.3633,-3.4375,-3.4824,-3.4824,-3.5586,-3.5996,-3.5996,-3.5996,-3.5996,-3.5996,-3.5996,-3.5996,-3.5996,-3.5996,-3.5996,-3.5996,-3.5996,-3.5996,-3.5996,-3.5996,-3.5996,-3.5996,-3.5996,-3.5996,-3.5996,-3.5996,-3.5996,-3.5996,-4.1103,-4.1102,-4.1078,-4.1171,-4.1191,-4.1191,-4.1191,-4.1191,-4.1191,-4.1191,-4.1191,-4.1191,-4.1191,-4.1191,-4.1191,-4.1191,-4.1191,-4.1191,-4.1191,-4.1191,-4.1191,-4.1191,-4.1191,-4.1191,-4.1191,-4.1191,-4.1191,-4.1191,-4.1191,-4.1191,-4.1191,-4.1191,-4.1191,-4.1191,-4.1191,-4.1191,-4.1191,-4.1191,-4.1191,-4.1191,-4.1191,-4.1094,-4.0918,-4.0918,-4.0371,-3.959,-3.9394,-3.8906,-3.8184,-3.7305,-3.6562,-3.5996,-3.5996,-3.5996,-3.5996,-3.5996,-3.5996,-3.5996,-3.5996,-3.5996,-3.5996,-3.5996,-3.5996,-3.5957,-3.5762,-3.5195,-3.4648,-3.4453,-3.3887,-3.3359,-3.3164,-3.3144,-3.3086,-3.2891,-3.2851,-3.2851,-3.2851,-3.2851,-3.2851,-3.2851,-3.2851,-3.293,-3.3125,-3.3144,-3.3496,-3.4355,-3.4414,-3.4726,-3.5391,-3.5625,-3.5723,-3.5723,-3.5898,-3.5996,-3.5996,-3.5996,-3.5996,-3.5996,-3.5996,-3.5996,-3.5996,-3.5996,-3.5996,-3.5996,-3.5996,-3.5996,-3.5996,-3.5996,-3.5996,-3.5996,-3.5996,-3.5996,-3.5996,-3.5996,-3.5996,-3.5996,-4.0938,-4.0979,-4.1023,-4.1082,-4.115,-4.1191,-4.1191,-4.1191,-4.1191,-4.1191,-4.1191,-4.1191,-4.1191,-4.1191,-4.1191,-4.1191,-4.1191,-4.1191,-4.1191,-4.1191,-4.1191,-4.1191,-4.1191,-4.1191,-4.1191,-4.1191,-4.1191,-4.1191,-4.1191,-4.1191,-4.1191,-4.1191,-4.1191,-4.1191,-4.1191,-4.1191,-4.1191,-4.1191,-4.1191,-4.1191,-4.1191,-4.1191,-4.1191,-4.1191,-4.0918,-4.0469,-4.0059,-3.9336,-3.8535,-3.8066,-3.7344,-3.6621,-3.6621,-3.6328,-3.5996,-3.5996,-3.5996,-3.5996,-3.5996,-3.5996,-3.5996,-3.5996,-3.5996,-3.5996,-3.5996,-3.5644,-3.5312,-3.5312,-3.4961,-3.4512,-3.4101,-3.4023,-3.3887,-3.3476,-3.3398,-3.3398,-3.3398,-3.3398,-3.3398,-3.3398,-3.3398,-3.3555,-3.3984,-3.4394,-3.4824,-3.5293,-3.5312,-3.5527,-3.5976,-3.5996,-3.5996,-3.5996,-3.5996,-3.5996,-3.5996,-3.5996,-3.5996,-3.5996,-3.5996,-3.5996,-3.5996,-3.5996,-3.5996,-3.5996,-3.5996,-3.5996,-3.5996,-3.5996,-3.5996,-3.5996,-3.5996,-3.5996,-3.5996,-3.5996,-3.5996,-3.5996,-4.0715,-4.0848,-4.0964,-4.0994,-4.1105,-4.1191,-4.1191,-4.1191,-4.1191,-4.1191,-4.1191,-4.1191,-4.1191,-4.1191,-4.1191,-4.1191,-4.1191,-4.1191,-4.1191,-4.1191,-4.1191,-4.1191,-4.1191,-4.1191,-4.1191,-4.1191,-4.1191,-4.1191,-4.1191,-4.1191,-4.1191,-4.1191,-4.1191,-4.1191,-4.1191,-4.1191,-4.1191,-4.1191,-4.1191,-4.1191,-4.1191,-4.1191,-4.1191,-4.1191,-4.1191,-4.1113,-4.0371,-3.9551,-3.8828,-3.8828,-3.8242,-3.7519,-3.7519,-3.6914,-3.6211,-3.6211,-3.6113,-3.5996,-3.5996,-3.5996,-3.5996,-3.5996,-3.5996,-3.5996,-3.5996,-3.5996,-3.5996,-3.5996,-3.5996,-3.5781,-3.5059,-3.4922,-3.4687,-3.3965,-3.3848,-3.3848,-3.3848,-3.3848,-3.3848,-3.3848,-3.3848,-3.4121,-3.4844,-3.5586,-3.5996,-3.5996,-3.5996,-3.5996,-3.5996,-3.5996,-3.5996,-3.5996,-3.5996,-3.5996,-3.5996,-3.5996,-3.5996,-3.5996,-3.5996,-3.5996,-3.5996,-3.5996,-3.5996,-3.5996,-3.5996,-3.5996,-3.5996,-3.5996,-3.5996,-3.5996,-3.5996,-3.5996,-3.5996,-3.5996,-3.5996,-3.5996,-4.0761,-4.0821,-4.0864,-4.0988,-4.1105,-4.1191,-4.1191,-4.1191,-4.1191,-4.1191,-4.1191,-4.1191,-4.1191,-4.1191,-4.1191,-4.1191,-4.1191,-4.1191,-4.1191,-4.1191,-4.1191,-4.1191,-4.1191,-4.1191,-4.1191,-4.1191,-4.1191,-4.1191,-4.1191,-4.1191,-4.1191,-4.1191,-4.1191,-4.1191,-4.1191,-4.1191,-4.1191,-4.1191,-4.1191,-4.1191,-4.1191,-4.1191,-4.1191,-4.1191,-4.1191,-4.1172,-4.1074,-4.0469,-3.9726,-3.9726,-3.9141,-3.8418,-3.8418,-3.7832,-3.7129,-3.7129,-3.6582,-3.5996,-3.5996,-3.5996,-3.5996,-3.5996,-3.5996,-3.5996,-3.5996,-3.5996,-3.5996,-3.5996,-3.5996,-3.5957,-3.5859,-3.582,-3.5781,-3.5664,-3.5644,-3.5644,-3.5644,-3.5644,-3.5644,-3.5644,-3.5644,-3.5684,-3.5801,-3.5937,-3.5996,-3.5996,-3.5996,-3.5996,-3.5996,-3.5996,-3.5996,-3.5996,-3.5996,-3.5996,-3.5996,-3.5996,-3.5996,-3.5996,-3.5996,-3.5996,-3.5996,-3.5996,-3.5996,-3.5996,-3.5996,-3.5996,-3.5996,-3.5996,-3.5996,-3.5996,-3.5996,-3.5996,-3.5996,-3.5996,-3.5996,-3.5996,-4.0788,-4.0797,-4.0831,-4.0986,-4.1052,-4.1106,-4.1191,-4.1191,-4.1191,-4.1191,-4.1191,-4.1191,-4.1191,-4.1191,-4.1191,-4.1191,-4.1191,-4.1191,-4.1191,-4.1191,-4.1191,-4.1191,-4.1191,-4.1191,-4.1191,-4.1191,-4.1191,-4.1191,-4.1191,-4.1191,-4.1191,-4.1191,-4.1191,-4.1191,-4.1191,-4.1191,-4.1191,-4.1191,-4.1191,-4.1191,-4.1191,-4.1191,-4.1191,-4.1191,-4.1191,-4.1191,-4.1191,-4.0957,-4.0625,-4.0625,-4.0059,-3.9336,-3.9336,-3.873,-3.8027,-3.8027,-3.7754,-3.7344,-3.6855,-3.6738,-3.6601,-3.6113,-3.5996,-3.5996,-3.5996,-3.5996,-3.5996,-3.5996,-3.5996,-3.5996,-3.5996,-3.5996,-3.5996,-3.5996,-3.5996,-3.5996,-3.5996,-3.5996,-3.5996,-3.5996,-3.5996,-3.5996,-3.5996,-3.5996,-3.5996,-3.5996,-3.5996,-3.5996,-3.5996,-3.5996,-3.5996,-3.5996,-3.5996,-3.5996,-3.5996,-3.5996,-3.5996,-3.5996,-3.5996,-3.5996,-3.5996,-3.5996,-3.5996,-3.5996,-3.5996,-3.5996,-3.5996,-3.5996,-3.5996,-3.5996,-3.5996,-3.5996,-3.5996,-3.5996,-3.5996,-3.5996]},{"header":{"parameterUnit":"m.s-1","parameterCategory":1,"la1":30.6,"la2":28.766,"lo1":-90.7593,"lo2":-88.6598,"dy":0.0162,"dx":0.0183,"nx":116,"ny":114,"refTime":"2023-11-03T18:00:00:Z","depth":0,"parameterNumber":3,"parameterNumberName":"V-component_of_WINDS"},"data":[0.0,0.0,0.0,0.0,0.0,0.0,0.0,0.0,0.0,0.0,0.0,0.0,0.0,0.0,0.0,0.0,0.0,0.0,0.0,0.0,0.0,0.0,0.0,0.0,0.0,0.0,0.0,0.0,0.0,0.0,0.0,0.0,0.0,0.0,0.0,0.0,0.0,0.0,0.0,0.0,0.0,0.0,0.0,0.0,0.0,0.0,0.0,0.0,0.0,0.0,0.0,0.0,0.0,0.0,0.0,0.0,0.0,0.0,0.0,0.0,0.0,0.0,0.0,0.0,0.0,0.0,0.0,0.0,0.0,0.0,0.0,0.0,0.0,0.0,0.0,0.0,0.0,0.0,0.0,0.0,0.0,0.0,0.0,0.0,0.0,0.0,0.0,0.0,0.0,0.0,0.0,0.0,0.0,0.0,0.0,0.0,0.0,0.0,0.0,0.0,0.0,0.0,0.0,0.0,0.0,0.0,0.0,0.0,0.0,0.0,0.0,0.0,0.0,0.0,0.0,0.0,0.0,0.0,0.0,0.0,0.0,0.0,0.0,0.0,0.0,0.0,0.0,0.0,0.0,0.0,0.0,0.0,0.0,0.0,0.0,0.0,0.0,0.0,0.0,0.0,0.0,0.0,0.0,0.0,0.0,0.0,0.0,0.0,0.0,0.0,0.0,0.0,0.0,0.0,0.0,0.0,0.0,0.0,0.0,0.0,0.0,0.0,0.0,0.0,0.0,0.0,0.0,0.0,0.0,0.0,0.0,0.0,0.0,0.0,0.0,0.0,0.0,0.0,0.0,0.0,0.0,0.0,0.0,0.0,0.0,0.0,0.0,0.0,0.0,0.0,0.0,0.0,0.0,0.0,0.0,0.0,0.0,0.0,0.0,0.0,0.0,0.0,0.0,0.0,0.0,0.0,0.0,0.0,0.0,0.0,0.0,0.0,0.0,0.0,0.0,0.0,0.0,0.0,0.0,0.0,0.0,0.0,0.0,0.0,0.0,0.0,0.0,0.0,0.0,0.0,0.0,0.0,0.0,0.0,0.0,0.0,0.0,0.0,0.0,0.0,0.0,0.0,0.0,0.0,0.0,0.0,0.0,0.0,0.0,0.0,0.0,0.0,0.0,0.0,0.0,0.0,0.0,0.0,0.0,0.0,0.0,0.0,0.0,0.0,0.0,0.0,0.0,0.0,0.0,0.0,0.0,0.0,0.0,0.0,0.0,0.0,0.0,0.0,0.0,0.0,0.0,0.0,0.0,0.0,0.0,0.0,0.0,0.0,0.0,0.0,0.0,0.0,0.0,0.0,0.0,0.0,0.0,0.0,0.0,0.0,0.0,0.0,0.0,0.0,0.0,0.0,0.0,0.0,0.0,0.0,0.0,0.0,0.0,0.0,0.0,0.0,0.0,0.0,0.0,0.0,0.0,0.0,0.0,0.0,0.0,0.0,0.0,0.0,0.0,0.0,0.0,0.0,0.0,0.0,0.0,0.0,0.0,0.0,0.0,0.0,0.0,0.0,0.0,0.0,0.0,0.0,0.0,0.0,0.0,0.0,0.0,0.0,0.0,0.0,0.0,0.0,0.0,0.0,0.0,0.0,0.0,0.0,0.0,0.0,0.0,0.0,0.0,0.0,0.0,0.0,0.0,0.0,0.0,0.0,0.0,0.0,0.0,0.0,0.0,0.0,0.0,0.0,0.0,0.0,0.0,0.0,0.0,0.0,0.0,0.0,0.0,0.0,0.0,0.0,0.0,0.0,0.0,0.0,0.0,0.0,0.0,0.0,0.0,0.0,0.0,0.0,0.0,0.0,0.0,0.0,0.0,0.0,0.0,0.0,0.0,0.0,0.0,0.0,0.0,0.0,0.0,0.0,0.0,0.0,0.0,0.0,0.0,0.0,0.0,0.0,0.0,0.0,0.0,0.0,0.0,0.0,0.0,0.0,0.0,0.0,0.0,0.0,0.0,0.0,0.0,0.0,0.0,0.0,0.0,0.0,0.0,0.0,0.0,0.0,0.0,0.0,0.0,0.0,0.0,0.0,0.0,0.0,0.0,0.0,0.0,0.0,0.0,0.0,0.0,0.0,0.0,0.0,0.0,0.0,0.0,0.0,0.0,0.0,0.0,0.0,0.0,0.0,0.0,0.0,0.0,0.0,0.0,0.0,0.0,0.0,0.0,0.0,0.0,0.0,0.0,0.0,0.0,0.0,0.0,0.0,0.0,0.0,0.0,0.0,0.0,0.0,0.0,0.0,0.0,0.0,0.0,0.0,0.0,0.0,0.0,0.0,0.0,0.0,0.0,0.0,0.0,0.0,0.0,0.0,0.0,0.0,0.0,0.0,0.0,0.0,0.0,0.0,0.0,0.0,0.0,0.0,0.0,0.0,0.0,0.0,0.0,0.0,0.0,0.0,0.0,0.0,0.0,0.0,0.0,0.0,0.0,0.0,0.0,0.0,0.0,0.0,0.0,0.0,0.0,0.0,0.0,0.0,0.0,0.0,0.0,0.0,0.0,0.0,0.0,0.0,0.0,0.0,0.0,0.0,0.0,0.0,0.0,0.0,0.0,0.0,0.0,0.0,0.0,0.0,0.0,0.0,0.0,0.0,0.0,0.0,0.0,0.0,0.0,0.0,0.0,0.0,0.0,0.0,0.0,0.0,0.0,0.0,0.0,0.0,0.0,0.0,0.0,0.0,0.0,0.0,0.0,0.0,0.0,0.0,0.0,0.0,0.0,0.0,0.0,0.0,0.0,0.0,0.0,0.0,0.0,0.0,0.0,0.0,0.0,0.0,0.0,0.0,0.0,0.0,0.0,0.0,0.0,0.0,0.0,0.0,0.0,0.0,0.0,0.0,0.0,0.0,0.0,0.0,0.0,0.0,0.0,0.0,0.0,0.0,0.0,0.0,0.0,0.0,0.0,0.0,0.0,0.0,0.0,0.0,0.0,0.0,0.0,0.0,0.0,0.0,0.0,0.0,0.0,0.0,0.0,0.0,0.0,0.0,0.0,0.0,0.0,0.0,0.0,0.0,0.0,0.0,0.0,0.0,0.0,0.0,0.0,0.0,0.0,0.0,0.0,0.0,0.0,0.0,0.0,0.0,0.0,0.0,0.0,0.0,0.0,0.0,0.0,0.0,0.0,0.0,0.0,0.0,0.0,0.0,0.0,0.0,0.0,0.0,0.0,0.0,0.0,0.0,0.0,0.0,0.0,0.0,0.0,0.0,0.0,0.0,0.0,0.0,0.0,0.0,0.0,0.0,0.0,0.0,0.0,0.0,0.0,0.0,0.0,0.0,0.0,0.0,0.0,0.0,0.0,0.0,0.0,0.0,0.0,0.0,0.0,0.0,0.0,0.0,0.0,0.0,0.0,0.0,0.0,0.0,0.0,0.0,0.0,0.0,0.0,0.0,0.0,0.0,0.0,0.0,0.0,0.0,0.0,0.0,0.0,0.0,0.0,0.0,0.0,0.0,0.0,0.0,0.0,0.0,0.0,0.0,0.0,0.0,0.0,0.0,0.0,0.0,0.0,0.0,0.0,0.0,0.0,0.0,0.0,0.0,0.0,0.0,0.0,0.0,0.0,0.0,0.0,0.0,0.0,0.0,0.0,0.0,0.0,0.0,0.0,0.0,0.0,0.0,0.0,0.0,0.0,0.0,0.0,0.0,0.0,0.0,0.0,0.0,0.0,0.0,0.0,0.0,0.0,0.0,0.0,0.0,0.0,0.0,0.0,0.0,0.0,0.0,0.0,0.0,0.0,0.0,0.0,0.0,0.0,0.0,0.0,0.0,0.0,0.0,0.0,0.0,0.0,0.0,0.0,0.0,0.0,0.0,0.0,0.0,0.0,0.0,0.0,0.0,0.0,0.0,0.0,0.0,0.0,0.0,0.0,0.0,0.0,0.0,0.0,0.0,0.0,0.0,0.0,0.0,0.0,0.0,0.0,0.0,0.0,0.0,0.0,0.0,0.0,0.0,0.0,0.0,0.0,0.0,0.0,0.0,0.0,0.0,0.0,0.0,0.0,0.0,0.0,0.0,0.0,0.0,0.0,0.0,0.0,0.0,0.0,0.0,0.0,0.0,0.0,0.0,0.0,0.0,0.0,0.0,0.0,0.0,0.0,0.0,0.0,0.0,0.0,0.0,0.0,0.0,0.0,0.0,0.0,0.0,0.0,0.0,0.0,0.0,0.0,0.0,0.0,0.0,0.0,0.0,0.0,0.0,0.0,0.0,0.0,0.0,0.0,0.0,0.0,0.0,0.0,0.0,0.0,0.0,0.0,0.0,0.0,0.0,0.0,0.0,0.0,0.0,0.0,0.0,0.0,0.0,0.0,0.0,0.0,0.0,0.0,0.0,0.0,0.0,0.0,0.0,0.0,0.0,0.0,0.0,0.0,0.0,0.0,0.0,0.0,0.0,0.0,0.0,0.0,0.0,0.0,0.0,0.0,0.0,0.0,0.0,0.0,0.0,0.0,0.0,0.0,0.0,0.0,0.0,0.0,0.0,0.0,0.0,0.0,0.0,0.0,0.0,0.0,0.0,0.0,0.0,0.0,0.0,0.0,0.0,0.0,0.0,0.0,0.0,0.0,0.0,0.0,0.0,0.0,0.0,0.0,0.0,0.0,0.0,0.0,0.0,0.0,0.0,0.0,0.0,0.0,0.0,0.0,0.0,0.0,0.0,0.0,0.0,0.0,0.0,0.0,0.0,0.0,0.0,0.0,0.0,0.0,0.0,0.0,0.0,0.0,0.0,0.0,0.0,0.0,0.0,0.0,0.0,0.0,0.0,0.0,0.0,0.0,0.0,0.0,0.0,0.0,0.0,0.0,0.0,0.0,0.0,0.0,0.0,0.0,0.0,0.0,0.0,0.0,0.0,0.0,0.0,0.0,0.0,0.0,0.0,0.0,0.0,0.0,0.0,0.0,0.0,0.0,0.0,0.0,0.0,0.0,0.0,0.0,0.0,0.0,0.0,0.0,0.0,0.0,0.0,0.0,0.0,0.0,0.0,0.0,0.0,0.0,0.0,0.0,0.0,0.0,0.0,0.0,0.0,0.0,0.0,0.0,0.0,0.0,0.0,0.0,0.0,0.0,0.0,0.0,0.0,0.0,0.0,0.0,0.0,0.0,0.0,0.0,0.0,0.0,0.0,0.0,0.0,0.0,0.0,0.0,0.0,0.0,0.0,0.0,0.0,0.0,0.0,0.0,0.0,0.0,0.0,0.0,0.0,0.0,0.0,0.0,0.0,0.0,0.0,0.0,0.0,0.0,0.0,0.0,0.0,0.0,0.0,0.0,0.0,0.0,0.0,0.0,0.0,0.0,0.0,0.0,0.0,0.0,0.0,0.0,0.0,0.0,0.0,0.0,0.0,0.0,0.0,0.0,0.0,0.0,0.0,0.0,0.0,0.0,0.0,0.0,0.0,0.0,0.0,0.0,0.0,0.0,0.0,0.0,0.0,0.0,0.0,0.0,0.0,0.0,0.0,0.0,0.0,0.0,0.0,0.0,0.0,0.0,0.0,0.0,0.0,0.0,0.0,0.0,0.0,0.0,0.0,0.0,0.0,0.0,0.0,0.0,0.0,0.0,0.0,0.0,0.0,0.0,0.0,0.0,0.0,0.0,0.0,0.0,0.0,0.0,0.0,0.0,0.0,0.0,0.0,0.0,0.0,0.0,0.0,0.0,0.0,0.0,0.0,0.0,0.0,0.0,0.0,0.0,0.0,0.0,0.0,0.0,0.0,0.0,0.0,0.0,0.0,0.0,0.0,0.0,0.0,0.0,0.0,0.0,0.0,0.0,0.0,0.0,0.0,0.0,0.0,0.0,0.0,0.0,0.0,0.0,0.0,0.0,0.0,0.0,0.0,0.0,0.0,0.0,0.0,0.0,0.0,0.0,0.0,0.0,0.0,0.0,0.0,0.0,0.0,0.0,0.0,0.0,0.0,0.0,0.0,0.0,0.0,0.0,0.0,0.0,0.0,0.0,0.0,0.0,0.0,0.0,0.0,0.0,0.0,0.0,0.0,0.0,0.0,0.0,0.0,0.0,0.0,0.0,0.0,0.0,0.0,0.0,0.0,0.0,0.0,0.0,0.0,0.0,0.0,-0.3651,0.0,0.0,0.0,0.0,0.0,0.0,0.0,0.0,0.0,0.0,0.0,0.0,0.0,0.0,0.0,0.0,0.0,0.0,0.0,0.0,0.0,0.0,0.0,0.0,0.0,0.0,0.0,0.0,0.0,0.0,0.0,0.0,0.0,0.0,0.0,0.0,0.0,0.0,0.0,0.0,0.0,0.0,0.0,0.0,0.0,0.0,0.0,0.0,0.0,0.0,0.0,0.0,0.0,0.0,0.0,0.0,0.0,0.0,0.0,0.0,0.0,0.0,0.0,0.0,0.0,0.0,0.0,0.0,0.0,0.0,0.0,0.0,0.0,0.0,0.0,0.0,0.0,0.0,0.0,0.0,0.0,0.0,0.0,0.0,0.0,0.0,0.0,0.0,0.0,0.0,0.0,0.0,0.0,0.0,0.0,0.0,0.0,0.0,0.0,0.0,0.0,0.0,0.0,0.0,0.0,0.0,0.0,0.0,0.0,0.0,0.0,0.0,0.0,0.0,0.0,0.0,-0.3665,0.0,0.0,0.0,0.0,0.0,0.0,0.0,0.0,0.0,0.0,0.0,0.0,0.0,0.0,0.0,0.0,0.0,0.0,0.0,0.0,0.0,0.0,0.0,0.0,0.0,0.0,0.0,0.0,0.0,0.0,0.0,0.0,0.0,0.0,0.0,0.0,0.0,0.0,0.0,0.0,0.0,0.0,0.0,0.0,0.0,0.0,0.0,0.0,0.0,0.0,0.0,0.0,0.0,0.0,0.0,0.0,0.0,0.0,0.0,0.0,0.0,0.0,0.0,0.0,0.0,0.0,0.0,0.0,0.0,0.0,0.0,0.0,0.0,0.0,0.0,0.0,0.0,0.0,0.0,0.0,0.0,0.0,0.0,0.0,0.0,0.0,0.0,0.0,0.0,0.0,0.0,0.0,0.0,0.0,0.0,0.0,0.0,0.0,0.0,0.0,0.0,0.0,0.0,0.0,0.0,0.0,0.0,0.0,-0.4045,-0.4048,-0.4097,-0.4097,-0.4058,-0.4028,-0.3927,-0.3788,-0.3689,-0.3782,0.0,0.0,0.0,0.0,0.0,0.0,0.0,0.0,0.0,0.0,0.0,0.0,0.0,0.0,0.0,0.0,0.0,0.0,0.0,0.0,0.0,0.0,0.0,0.0,0.0,0.0,0.0,0.0,0.0,0.0,0.0,0.0,0.0,0.0,0.0,0.0,0.0,0.0,0.0,0.0,0.0,0.0,0.0,0.0,0.0,0.0,0.0,0.0,0.0,0.0,0.0,0.0,0.0,0.0,0.0,0.0,0.0,0.0,0.0,0.0,0.0,0.0,0.0,0.0,0.0,0.0,0.0,0.0,0.0,0.0,0.0,0.0,0.0,0.0,0.0,0.0,0.0,0.0,0.0,0.0,0.0,0.0,0.0,0.0,0.0,0.0,-0.3648,-0.3748,0.0,0.0,0.0,0.0,0.0,0.0,0.0,0.0,0.0,0.0,0.0,0.0,0.0,-0.425,-0.4429,-0.4254,-0.4254,-0.4429,-0.425,-0.4257,-0.4429,-0.4429,-0.4334,-0.4164,-0.4143,0.0,-0.394,-0.3957,0.0,0.0,0.0,0.0,0.0,0.0,0.0,0.0,0.0,0.0,0.0,0.0,0.0,0.0,0.0,0.0,0.0,0.0,0.0,0.0,0.0,0.0,0.0,0.0,0.0,0.0,0.0,0.0,0.0,0.0,0.0,0.0,0.0,0.0,0.0,0.0,0.0,0.0,0.0,0.0,0.0,0.0,0.0,0.0,0.0,0.0,0.0,0.0,0.0,0.0,0.0,0.0,0.0,0.0,0.0,0.0,0.0,0.0,0.0,0.0,0.0,0.0,0.0,0.0,0.0,0.0,0.0,0.0,0.0,0.0,0.0,0.0,0.0,0.0,0.0,0.0,0.0,0.0,0.0,0.0,0.0,0.0,0.0,0.0,0.0,-0.4388,-0.4392,-0.4506,-0.4826,-0.5116,0.0,0.0,0.0,0.0,0.0,0.0,0.0,0.0,0.0,-0.4392,-0.4368,-0.4399,-0.4491,-0.4487,-0.4528,-0.4617,-0.4584,-0.4628,-0.4718,-0.4718,-0.4684,-0.4597,-0.4597,-0.456,-0.4479,-0.4227,-0.4072,-0.4004,0.0,0.0,0.0,0.0,-0.3994,-0.3994,0.0,0.0,0.0,0.0,0.0,0.0,0.0,0.0,0.0,0.0,0.0,0.0,0.0,0.0,0.0,0.1163,0.0,0.0,0.0,0.0,0.0,0.0,0.0,0.0,0.0,0.0,0.0,0.0,0.0,0.0,0.0,0.0,0.0,0.0,0.0,0.0,0.0,0.0,0.0,0.0,0.0,0.0,0.0,0.0,0.0,0.0,0.0,0.0,0.0,0.0,0.0,0.0,0.0,0.0,0.0,0.0,0.0,0.0,0.0,0.0,0.0,0.0,0.0,0.0,0.0,0.0,0.0,0.0,0.0,0.0,0.0,0.0,0.0,0.0,0.0,0.0,0.0,-0.5021,-0.5067,-0.5408,-0.5661,-0.5921,0.0,0.0,0.0,0.0,0.0,0.0,-0.4821,-0.4825,-0.4759,-0.4607,-0.4607,-0.4607,-0.4607,-0.4694,-0.4748,-0.4752,-0.4863,-0.4887,-0.4887,-0.4887,-0.4887,-0.4887,-0.4887,-0.4887,-0.4864,-0.453,-0.4324,-0.4233,-0.4348,-0.4301,-0.4192,-0.4192,-0.4165,-0.4134,0.0,0.0,0.0,0.0,0.0,0.0,0.0,0.0,0.0,0.0,0.0,0.0,0.0,0.0,0.1784,0.1762,0.1763,0.1496,0.0,0.0,0.0,0.0,0.0,0.0,0.0,0.0,0.0,0.0,0.0,0.0,0.0,0.0,0.0,0.0,0.0,0.0,0.0,0.0,0.0,0.0,0.0,0.0,0.0,0.0,0.0,0.0,0.0,0.0,0.0,0.0,0.0,0.0,0.0,0.0,0.0,0.0,0.0,0.0,0.0,0.0,0.0,0.0,0.0,0.0,0.0,0.0,0.0,0.0,0.0,0.0,0.0,0.0,0.0,0.0,0.0,0.0,0.0,0.0,0.0,-0.6233,-0.5749,0.0,0.0,0.0,0.0,-0.546,-0.546,-0.5539,-0.5723,-0.5731,-0.5465,-0.4891,-0.4867,-0.4867,-0.4867,-0.4874,-0.4877,-0.4877,-0.4884,-0.4887,-0.4887,-0.4887,-0.4887,-0.4887,-0.4887,-0.4887,-0.4887,-0.4864,-0.485,-0.4844,-0.485,-0.4792,-0.4657,-0.4657,-0.4593,-0.4467,0.0,0.0,0.0,0.0,0.0,0.0,0.0,0.0,0.0,0.0,0.0,0.0,0.0,0.3081,0.279,0.2408,0.2386,0.2117,0.1518,0.0,0.0,0.0,0.0,0.0,0.0,0.0,0.0,0.0,0.0,0.0,0.0,0.0,0.0,0.0,0.0,0.0,0.0,0.0,0.0,0.0,0.0,0.0,0.0,0.0,0.0,0.0,0.0,0.0,0.0,0.0,0.0,0.0,0.0,0.0,0.0,0.0,0.0,0.0,0.0,0.0,0.0,0.0,0.0,0.0,0.0,0.0,0.0,0.0,0.0,0.0,0.0,0.0,0.0,0.0,0.0,0.0,0.0,0.0,0.0,-0.573,-0.5579,0.0,-0.6167,-0.5688,-0.5672,-0.6458,-0.5641,-0.5387,-0.6028,-0.5511,-0.5127,-0.4918,-0.4887,-0.4887,-0.4887,-0.5108,-0.5235,-0.5238,-0.5396,-0.5488,-0.5488,-0.5488,-0.5488,-0.5488,-0.5488,-0.5488,-0.5488,-0.5488,-0.5264,-0.4887,-0.4887,-0.4887,-0.484,-0.484,-0.4802,-0.4755,0.0,0.0,0.0,0.0,0.0,0.0,0.0,0.0,0.0,0.0,0.0,0.3604,0.3604,0.3604,0.3442,0.3034,0.3012,0.2655,0.1852,0.0,0.0,0.0,0.0214,0.0,0.0,0.0,0.0,0.0,0.0,0.0,0.0,0.0,0.0,0.0,0.0,0.0,0.0,0.0,0.0,0.0,0.0,0.0,0.0,0.0,0.0,0.0,0.0,0.0,0.0,0.0,0.0,0.0,0.0,0.0,0.0,0.0,0.0,0.0,0.0,0.0,0.0,0.0,0.0,0.0,0.0,0.0,0.0,0.0,0.0,0.0,0.0,0.0,0.0,0.0,0.0,0.0,0.0,0.0,-0.5132,-0.5875,-0.5746,-0.5804,-0.6351,-0.5855,-0.5722,-0.6305,-0.5453,-0.5179,-0.5796,-0.5344,-0.5091,-0.5142,-0.5192,-0.5216,-0.5216,-0.5413,-0.5542,-0.5545,-0.5708,-0.58,-0.58,-0.58,-0.58,-0.58,-0.58,-0.58,-0.58,-0.58,-0.5569,-0.5213,-0.5165,-0.5114,-0.5064,-0.4978,-0.4928,-0.4887,0.0,0.0,0.0,0.0,0.0,0.0,0.0,0.0,0.0,0.0,0.3604,0.3604,0.3604,0.3604,0.3604,0.3604,0.3604,0.3084,0.1901,0.1811,0.0,0.0,0.0,0.0,0.0,0.0,0.0,0.0,0.0,0.0,0.0,0.0,0.0,0.0,0.0,0.0,0.0,0.0,0.0,0.0,0.0,0.0,0.0,0.0,0.0,0.0,0.0,0.0,0.0,0.0,0.0,0.0,0.0,0.0,0.0,0.0,0.0,0.0,0.0,0.0,0.0,0.0,0.0,0.0,0.0,0.0,0.0,0.0,0.0,0.0,0.0,0.0,0.0,0.0,0.0,0.0,-0.6463,-0.5937,-0.5811,-0.6719,-0.6206,-0.5823,-0.5946,-0.5316,-0.4931,-0.4962,-0.4942,-0.5006,-0.5145,-0.5327,-0.5477,-0.5593,-0.5728,-0.58,-0.58,-0.5806,-0.581,-0.581,-0.5813,-0.5817,-0.5817,-0.5817,-0.5817,-0.5817,-0.5817,-0.5817,-0.5817,-0.5817,-0.5817,-0.58,-0.5654,-0.5539,-0.5392,-0.5206,-0.5032,-0.4918,0.0,0.0,0.0,0.0,0.0,0.0,0.0,0.0,0.0,0.0,0.3604,0.3604,0.3604,0.3604,0.3604,0.3604,0.3604,0.3283,0.2514,0.0,0.0,0.0,0.0,0.0,0.0,0.0,0.0,0.0,0.0,0.0,0.0,0.0,0.0,0.0,0.0,0.0,0.0,0.0,0.0,0.0,0.0,0.0,0.0,0.0,0.0,0.0,0.0,0.0,0.0,0.0,0.0,0.0,0.0,0.0,0.0,0.0,0.0,0.0,0.0,0.0,0.0,0.0,0.0,0.0,0.0,0.0,0.0,0.0,0.0,0.0,0.0,0.0,0.0,0.0,-0.5966,-0.5777,-0.598,-0.5385,-0.5053,-0.5396,-0.5269,-0.5168,-0.5214,-0.5238,-0.5524,-0.6157,-0.5799,-0.5848,-0.6506,-0.6003,-0.5698,-0.5742,-0.5779,-0.58,-0.58,-0.5911,-0.5929,-0.5932,-0.6081,-0.6173,-0.6173,-0.6173,-0.6173,-0.6173,-0.6173,-0.6173,-0.6173,-0.6173,-0.6173,-0.6146,-0.5847,-0.5718,-0.5674,-0.5633,-0.5593,-0.5559,0.0,0.0,0.0,0.0,0.0,0.0,0.0,0.0,0.0,0.0,0.3604,0.3604,0.3604,0.3604,0.3604,0.3604,0.3359,0.296,0.2367,0.0,0.0,0.0,0.0,0.0,0.0,0.0,0.0,0.0,0.0,0.0,0.0,0.0,0.0,0.0,0.0,0.0,0.0,0.0,0.0,0.0,0.0,0.0,0.0,0.0,0.0,0.0,0.0,0.0,-0.0168,-0.1201,0.0,0.0,0.0,0.0,0.0,0.0,0.0,0.0,0.0,0.0,0.0,0.0,0.0,0.0,0.0,0.0,0.0,0.0,0.0,0.0,0.0,0.0,0.0,0.0,-0.5854,-0.5797,-0.5546,-0.5088,-0.4843,-0.4958,-0.5067,-0.5128,-0.5196,-0.541,-0.5782,-0.6283,-0.6015,-0.6015,-0.6512,-0.6114,-0.5895,-0.5895,-0.5959,-0.5993,-0.5993,-0.6142,-0.6217,-0.6217,-0.6373,-0.6484,-0.6484,-0.6484,-0.6484,-0.6484,-0.6484,-0.6484,-0.6484,-0.6484,-0.6484,0.0,0.0,0.0,0.0,0.0,-0.58,-0.58,0.0,0.0,0.0,0.0,0.0,0.0,0.0,0.0,0.0,0.0,0.0,0.3604,0.3604,0.3604,0.3604,0.3604,0.3129,0.2569,0.0,0.0,0.0,0.0112,0.0058,0.0,0.0,0.0,0.0,0.0,0.0,0.0,0.0,0.0,0.0,0.0,0.0,0.0,0.0,0.0,0.0,0.0,0.0,0.0,0.0,0.0,0.0,0.0,0.0,0.0,-0.0224,-0.1703,0.0,0.0,0.0,0.0,0.0,0.0,0.0,0.0,0.0,0.0,0.0,0.0,0.0,0.0,0.0,0.0,0.0,0.0,0.0,0.0,0.0,0.0,0.0,0.0,-0.5434,-0.572,-0.5198,-0.5032,-0.5071,-0.5293,-0.5384,-0.5531,-0.5773,-0.5813,-0.5827,-0.5827,-0.5844,-0.5854,-0.5854,0.0,0.0,0.0,0.0,-0.6351,-0.6351,-0.6474,-0.6538,-0.6542,-0.6634,-0.6702,-0.6702,-0.6702,-0.6702,-0.6702,-0.6702,-0.6702,-0.6702,-0.6702,-0.6702,-0.6661,-0.624,-0.6033,-0.6,-0.5905,-0.5854,-0.5854,0.0,0.0,0.0,0.0,0.0,0.0,0.0,0.0,0.0,0.3604,0.3604,0.3604,0.3604,0.3604,0.3604,0.3604,0.3592,0.3384,0.0,0.0,0.0888,0.0894,0.0318,0.0,0.0,0.0,0.0,0.0,0.0,0.0,0.0,0.0,0.0,0.0,0.0,0.0,0.0,0.0,0.0,0.0,0.0,0.0,0.0,0.0,0.0,0.0,0.0,0.0,-0.0224,-0.1703,-0.2202,-0.245,-0.3957,0.0,0.0,0.0,0.0,0.0,0.0,0.0,0.0,0.0,0.0,0.0,0.0,0.0,0.0,0.0,0.0,0.0,0.0,0.0,0.0,-0.568,-0.5482,-0.5297,-0.5327,-0.5399,-0.5768,-0.66,-0.6144,-0.6043,-0.6875,-0.6364,-0.5949,-0.5949,-0.6101,-0.6211,-0.6211,-0.6347,-0.6386,-0.6386,-0.6536,-0.6617,-0.6617,-0.6644,-0.6658,-0.6658,0.0,0.0,-0.6702,-0.6702,-0.6702,-0.6702,-0.6702,-0.6702,-0.6702,-0.6702,-0.6702,-0.6678,-0.6468,-0.6354,-0.6252,-0.6221,-0.6211,-0.6211,0.0,0.0,0.0,0.0,0.0,0.0,0.0,0.0,0.0,0.0,0.3604,0.3604,0.3604,0.3604,0.3604,0.3604,0.3385,0.0,0.0,0.1566,0.1017,0.1089,0.0382,0.0,0.0,0.0,0.0,0.0,0.0,0.0,0.0,0.0,0.0,0.0,0.0,0.0,0.0,0.0,0.0,0.0,0.0,0.0,0.0,0.0,0.0,0.0,0.0,0.0,-0.0224,-0.1703,-0.2202,-0.2482,-0.4015,-0.4491,-0.4491,0.0,0.0,0.0,0.0,0.0,0.0,0.0,0.0,0.0,0.0,0.0,0.0,0.0,0.0,-0.53,0.0,0.0,-0.5685,-0.6327,-0.6254,-0.6332,-0.7014,-0.6791,-0.6521,-0.6468,-0.6108,-0.6094,-0.6597,-0.635,-0.6176,-0.6244,-0.6361,-0.6439,-0.6478,-0.6549,-0.6586,-0.6586,-0.6661,-0.6702,-0.6702,-0.6776,-0.6814,-0.6817,-0.6888,-0.6919,-0.6919,-0.6919,-0.6919,-0.6919,-0.6919,-0.6919,-0.6919,-0.6919,-0.6878,-0.6807,-0.6729,-0.661,-0.6511,-0.6433,-0.6405,-0.6395,0.0,0.0,0.0,0.0,0.0,0.0,0.0,0.0,0.0,0.0,0.3604,0.3604,0.3604,0.3604,0.3614,0.0,0.0,0.0,0.0,0.1727,0.1323,0.131,0.0596,0.0154,0.0,0.0,0.0,0.0,0.0,0.0,0.0,0.0,0.0,0.0,0.0,0.0,0.0,0.0,0.0,0.0,0.0,0.0,0.0,0.0,0.0,0.0,0.0,0.0,-0.0196,-0.1535,-0.1981,-0.2232,-0.3624,-0.4153,-0.4267,-0.4267,-0.4377,0.0,0.0,0.0,0.0,0.0,0.0,0.0,0.0,0.0,-0.4738,-0.5432,-0.5599,-0.568,-0.5797,-0.591,-0.6137,-0.6585,-0.6747,-0.716,-0.8115,-0.7648,-0.6869,-0.6007,-0.6,-0.616,-0.6373,-0.6342,-0.6402,-0.6545,-0.6555,-0.6569,-0.6695,-0.6729,-0.6746,-0.6746,-0.677,-0.6787,-0.6787,-0.6866,-0.6927,-0.6927,-0.7041,-0.7095,-0.7095,-0.7095,-0.7095,-0.7095,-0.7095,-0.7095,-0.7095,-0.7095,-0.7028,-0.6927,-0.6927,-0.6895,-0.6763,-0.6583,-0.6555,-0.6542,0.0,0.0,0.0,0.0,0.0,0.0,0.0,0.0,0.0,0.0,0.0,0.0,0.0,0.0,0.0,0.0,0.0,0.0,0.3938,0.3266,0.2614,0.2088,0.1369,0.0678,0.0,0.0,0.0,0.0,0.0,0.0,0.0,0.0,0.0,0.0,0.0,0.0,0.0,0.0,0.0,0.0,0.0,0.0,0.0,0.0,0.0,0.0,0.0,0.0,-0.0112,-0.095,-0.1229,-0.1369,-0.2202,-0.2899,-0.3428,-0.3428,0.0,-0.4491,-0.4491,-0.4491,-0.4491,-0.4491,-0.4491,-0.4491,0.0,0.0,-0.4699,-0.48,-0.4914,-0.5026,-0.5171,-0.5213,-0.5352,-0.5685,-0.5748,-0.5895,-0.6254,-0.6236,-0.6187,-0.6235,-0.6265,-0.6666,-0.7698,-0.6987,-0.6552,-0.6664,-0.6675,-0.6681,-0.6698,-0.6827,-0.6859,-0.6859,-0.698,-0.7048,-0.7048,-0.7065,-0.7071,-0.7071,-0.7088,-0.7095,-0.7095,-0.7095,-0.7095,-0.7095,-0.7095,-0.7095,-0.7095,-0.7095,-0.7088,-0.7071,-0.7071,-0.7061,-0.7014,-0.6776,-0.6675,-0.6671,0.0,0.0,0.0,0.0,0.0,0.0,0.0,0.0,0.0,0.0,0.0,0.0,0.0,0.0,0.0,0.0,0.0,0.0,0.3944,0.3352,0.2899,0.2734,0.1678,0.0967,0.0647,0.0225,0.0,0.0,0.0,0.0,0.0,0.0,0.0,0.0,0.0,0.0,0.0,0.0,0.0,0.0,0.0,0.0,0.0,0.0,0.0,0.0,0.0,0.0,0.0,0.0,-0.109,-0.1312,-0.251,-0.3121,-0.3456,-0.3873,-0.4236,0.0,-0.4491,-0.4491,-0.4491,-0.4491,-0.4556,-0.4624,-0.4624,-0.4714,-0.4847,-0.4931,-0.4965,-0.5056,-0.5237,-0.5338,-0.5666,0.0,-0.6667,-0.7001,-0.7809,-0.74,-0.7126,-0.7258,-0.6774,-0.6605,-0.7096,-0.6833,-0.6668,-0.682,-0.6834,-0.6868,-0.691,-0.6974,-0.7007,-0.7007,-0.7065,-0.7095,-0.7095,-0.7095,-0.7095,-0.7095,-0.7095,-0.7095,-0.7095,-0.7095,-0.7095,-0.7095,-0.7095,-0.7095,-0.7095,-0.7095,-0.7095,-0.7095,-0.7095,-0.7095,-0.7071,-0.6866,-0.6834,-0.682,0.0,0.0,0.0,0.0,0.0,0.0,0.0,0.0,0.0,0.0,0.0,0.0,0.0,0.0,0.0,0.0,0.0,0.0,0.0,0.3384,0.3132,0.31,0.2161,0.1469,0.1093,0.0564,0.0194,0.0,0.0,0.0,0.0,0.0,0.0,0.0,0.0,0.0,0.0,0.0,0.0,0.0,0.0,0.0,0.0,0.0,0.0,0.0,0.0,0.0,0.0,0.0,-0.0783,-0.1034,-0.2343,-0.2899,-0.3204,-0.3959,-0.4322,-0.4491,-0.4491,-0.4491,-0.4501,-0.4542,-0.4638,-0.4701,-0.4745,-0.487,-0.4975,-0.5076,-0.5133,-0.5226,-0.5375,-0.5521,-0.5877,-0.6762,-0.7009,-0.7414,-0.8362,-0.7859,-0.7429,-0.7553,-0.6984,-0.6552,-0.6593,-0.6698,-0.6824,-0.6933,-0.6943,-0.6991,-0.7092,-0.7095,-0.7095,-0.7095,-0.7095,-0.7095,-0.7095,-0.7095,-0.7095,-0.7095,-0.7095,-0.7095,-0.7095,-0.7095,-0.7095,-0.7095,-0.7095,-0.7095,-0.7095,-0.7095,-0.7095,-0.7095,-0.7095,-0.7095,-0.7085,-0.698,-0.6943,-0.6927,0.0,0.0,0.0,0.0,0.0,0.0,0.0,0.0,0.0,0.0,0.0,0.0,0.0,0.0,0.0,0.0,0.0,0.0,0.0,0.3772,0.3562,0.3121,0.3071,0.2437,0.1117,0.1092,0.072,0.0,0.0,0.0,0.0,0.0,0.0,0.0,0.0,0.0,0.0,0.0,0.0,0.0,0.0,0.0,0.0,0.0,0.0,0.0,0.0,0.0,0.0,-0.0028,-0.0028,-0.0168,-0.0923,-0.1675,0.0,-0.3121,-0.3901,-0.4491,-0.4491,-0.4491,-0.4525,-0.4646,-0.4687,-0.4728,-0.4877,-0.4988,-0.5093,-0.5096,-0.525,-0.5388,-0.5395,-0.5521,-0.5672,-0.5815,-0.5965,-0.6122,-0.6353,-0.6377,-0.639,-0.6534,-0.6644,-0.6753,0.0,-0.6876,-0.694,-0.7078,-0.7088,-0.7092,-0.7095,-0.7095,-0.7095,-0.7095,-0.7095,-0.7095,-0.7095,-0.7095,-0.7095,-0.7095,-0.7095,-0.7095,-0.7095,-0.7095,-0.7095,-0.7095,-0.7095,-0.7095,-0.7095,-0.7095,-0.7095,-0.7095,-0.7095,-0.7095,-0.7095,-0.7092,-0.7088,-0.7088,0.0,0.0,0.0,0.0,0.0,0.0,0.0,0.0,0.0,0.0,0.0,0.0,0.0,0.0,0.0,0.0,0.3604,0.0,0.0,0.3761,0.3741,0.3569,0.3268,0.2877,0.2435,0.1554,0.097,0.0719,0.0251,0.0,0.0,0.0,0.0,0.0,0.0,0.0,0.0,0.0,0.0,0.0,0.0,0.0,0.0,0.0,0.0,-0.0057,0.0,0.0,-0.0811,-0.1284,-0.1452,-0.1591,-0.2315,-0.2732,-0.3107,-0.398,-0.4369,-0.4535,-0.4711,-0.4691,-0.4679,-0.4802,-0.4911,-0.4965,-0.5015,-0.5176,-0.5284,-0.5284,-0.544,-0.5545,-0.5545,-0.5715,-0.5898,-0.5909,-0.6081,-0.6238,-0.6293,-0.6381,-0.6497,-0.6607,-0.6759,0.0,0.0,0.0,0.0,-0.7092,-0.7095,-0.7095,-0.7095,-0.7095,-0.7095,-0.7095,-0.7095,-0.7095,-0.7095,-0.7095,-0.7095,-0.7095,-0.7095,-0.7095,-0.7095,-0.7095,-0.7095,-0.7095,-0.7095,-0.7095,-0.7095,-0.7095,-0.7095,-0.7095,-0.7095,-0.7095,-0.7095,-0.7095,-0.7095,-0.7095,0.0,0.0,0.0,0.0,0.0,0.0,0.0,0.0,0.0,0.0,0.0,0.0,0.0,0.0,0.0,0.0,0.0,0.3604,0.0,0.0,0.3737,0.3788,0.3507,0.3263,0.3091,0.1989,0.1449,0.1482,0.0757,0.0518,0.0801,0.0801,0.0801,0.0801,0.0801,0.0647,0.0401,0.0401,0.0245,0.0,0.0,0.0,0.0,0.0,0.0,0.0,0.0,0.0,-0.1563,-0.2035,-0.2202,-0.2343,-0.3065,-0.3511,-0.3836,-0.4465,-0.4566,-0.4545,-0.4769,-0.4765,-0.4741,-0.4914,-0.5032,-0.5113,-0.5199,-0.5324,-0.5395,-0.5395,-0.5474,-0.5542,-0.5542,-0.5749,-0.5912,-0.5912,-0.6421,-0.6718,-0.6338,-0.6688,-0.6904,-0.6716,-0.6787,-0.6879,0.0,0.0,0.0,-0.7095,-0.7095,-0.7095,-0.7095,-0.7095,-0.7095,-0.7095,-0.7095,-0.7095,-0.7095,-0.7095,-0.7095,-0.7095,-0.7095,-0.7095,-0.7095,-0.7095,-0.7095,-0.7095,-0.7095,-0.7095,-0.7095,-0.7095,-0.7095,-0.7095,-0.7095,-0.7095,-0.7095,-0.7095,-0.7095,-0.7095,0.0,0.0,0.0,0.0,0.0,0.0,0.0,0.0,0.0,0.0,0.0,0.0,0.0,0.0,0.0,0.0,0.0,0.0,0.0,0.0,0.0,0.3775,0.3765,0.3535,0.3111,0.2355,0.2024,0.2153,0.1397,0.139,0.21,0.21,0.21,0.21,0.2073,0.171,0.1039,0.1041,0.0633,0.0,0.0,0.0,0.0,0.0,0.0,0.0,0.0,0.0,-0.2204,-0.2286,-0.2313,-0.2454,-0.3148,-0.3873,-0.4491,-0.4498,-0.4501,-0.4539,-0.467,-0.4714,-0.4782,-0.5039,-0.511,-0.5179,-0.5361,-0.5395,-0.5395,-0.5395,-0.5402,-0.5405,0.0,0.0,-0.5803,-0.5813,-0.6868,-0.7391,-0.6451,-0.7146,-0.7466,0.0,0.0,0.0,0.0,0.0,0.0,-0.7095,0.0,-0.7095,-0.7095,-0.7095,-0.7095,-0.7095,-0.7095,-0.7095,-0.7095,-0.7095,-0.7095,-0.7095,-0.7095,-0.7095,-0.7095,-0.7095,-0.7095,-0.7095,-0.7095,-0.7095,-0.7095,-0.7095,-0.7095,-0.7095,-0.7095,-0.7095,-0.7095,-0.7095,-0.7139,-0.7183,0.0,0.0,0.0,0.0,0.0,0.0,0.0,0.0,0.0,0.0,0.0,0.0,0.0,0.0,0.0,0.0,0.0,0.0,0.0,0.0,0.0,0.0,0.0,0.0,0.0,0.0,0.0,0.1392,0.063,0.037,0.056,0.056,0.056,0.0561,0.0547,0.047,0.0277,0.0284,0.0172,0.0,0.0,0.0,0.0,0.0,0.0,0.0,0.0,0.0,-0.2369,-0.3539,-0.3901,-0.3959,-0.4125,-0.4349,-0.4511,-0.4627,-0.4662,-0.4691,-0.4948,-0.4985,-0.5064,-0.5254,-0.5337,-0.5347,-0.5385,-0.5395,-0.5395,-0.5395,-0.5487,-0.5532,-0.5532,-0.5681,0.0,-0.5915,-0.622,0.0,-0.6321,-0.6624,0.0,-0.6719,0.0,-0.69,-0.7078,-0.7095,0.0,0.0,-0.7095,-0.7095,-0.7095,-0.7095,-0.7095,-0.7095,-0.7095,-0.7095,-0.7095,-0.7095,-0.7095,-0.7095,-0.7095,-0.7095,-0.7095,-0.7095,-0.7095,-0.7095,-0.7095,-0.7095,-0.7095,-0.7095,-0.7095,-0.7095,-0.7095,-0.7095,-0.7095,-0.7095,-0.7665,-0.8321,0.0,0.0,0.0,0.0,0.0,0.0,0.0,0.0,0.0,0.0,0.0,0.0,0.0,0.0,0.0,0.0,0.0,0.0,0.0,0.0,0.0,0.0,0.0,0.0,0.0,0.0,0.0,0.0,0.0,0.0,0.0983,0.1234,0.1209,0.0984,0.1234,0.1038,0.0495,0.0478,0.0,0.0,0.0,0.0,0.0,0.0,0.0,0.0,0.0,0.0,0.0,0.0,0.0,-0.4491,-0.4491,-0.4491,-0.4508,-0.4593,-0.4617,-0.4685,-0.4924,-0.5005,-0.5091,-0.5341,-0.5395,-0.5395,-0.5395,-0.5395,-0.5395,-0.5395,-0.5463,-0.5525,-0.5525,-0.561,-0.5755,0.0,0.0,0.0,-0.6314,-0.6755,-0.6973,0.0,-0.6776,0.0,-0.7075,-0.7095,-0.7095,0.0,-0.7095,-0.7095,-0.7095,-0.7095,-0.7095,-0.7095,-0.7095,-0.7095,-0.7095,-0.7095,-0.7095,-0.7095,-0.7095,-0.7095,-0.7095,-0.7095,-0.7095,-0.7095,-0.7095,-0.7095,-0.7095,-0.7095,-0.7095,-0.7095,-0.7095,-0.7095,-0.7095,-0.7095,-0.7533,-0.8105,0.0,0.0,0.0,0.0,0.0,0.0,0.0,0.0,0.0,0.0,0.0,0.0,0.0,0.0,0.0,0.0,0.0,0.0,0.0,0.0,0.0,0.0,0.0,0.0,0.0,0.0,0.0,0.0,0.0,0.0,0.0,0.0,0.0,0.0,0.0,0.0,0.0,0.0,0.0,0.0,0.0,0.0,0.0,0.0,0.0,0.0,0.0,0.0,0.0,0.0,-0.4474,-0.4491,-0.4491,-0.4491,-0.4491,-0.4491,-0.4505,-0.458,-0.4816,-0.4887,-0.5009,-0.53,-0.5378,-0.5388,-0.5368,-0.5365,-0.5365,-0.5365,-0.5365,-0.5371,-0.5392,-0.5504,-0.5606,-0.5749,0.0,-0.7047,-0.636,-0.7046,-0.7375,-0.6788,-0.6702,-0.6817,-0.7068,-0.7095,-0.7095,-0.7095,-0.7095,-0.7095,-0.7095,-0.7095,-0.7095,-0.7095,-0.7095,-0.7095,-0.7095,-0.7095,-0.7095,-0.7095,-0.7095,-0.7095,-0.7095,-0.7095,-0.7095,-0.7095,-0.7095,-0.7095,-0.7095,-0.7095,-0.7095,-0.7095,-0.7095,-0.7095,-0.7095,-0.7095,-0.7183,-0.7489,0.0,0.0,0.0,0.0,0.0,0.0,0.0,0.0,0.0,0.0,0.3604,0.0,0.0,0.0,0.0,0.0,0.0,0.0,0.0,0.0,0.0,0.0,0.0,0.0,0.0,0.0882,0.0341,0.039,0.0252,0.0,0.0,0.0,0.0,0.0,0.0,0.0,0.0,0.0,0.0,0.0,0.0,0.0,0.0,0.0,0.0,0.0,0.0,0.0,0.0,0.0,-0.4365,-0.4491,-0.4491,-0.4491,-0.4491,-0.4491,-0.458,-0.4663,-0.4714,-0.4908,-0.5073,-0.5127,-0.5267,-0.5361,-0.5199,-0.514,0.0,-0.514,-0.514,-0.5209,-0.5371,-0.5416,-0.5484,-0.5603,-0.5887,-0.6073,-0.6047,-0.6332,-0.6602,0.0,-0.6702,-0.6817,-0.7068,-0.7095,0.0,0.0,-0.7095,-0.7095,-0.7095,-0.7095,-0.7095,-0.7095,-0.7095,-0.7095,-0.7095,-0.7095,-0.7095,-0.7095,-0.7095,-0.7095,-0.7095,-0.7095,-0.7095,-0.7095,-0.7095,0.0,-0.7095,-0.7095,-0.7095,-0.7095,-0.7095,-0.7095,-0.7095,-0.7095,-0.7709,-0.8627,0.0,0.0,0.0,0.0,0.0,0.0,0.0,0.0,0.0,0.0,0.3604,0.3604,0.0,0.0,0.0,0.0,0.0,0.0,0.0,0.0,0.0,0.0,0.0,0.0,0.0,0.0918,0.0314,0.0,0.0,0.0,0.0022,0.0627,0.0739,0.0449,0.0754,0.0715,0.0,0.0,0.0,0.0,0.0,0.0,0.0,0.0,0.0,0.0,0.0,0.0,0.0,0.0,-0.4267,-0.4365,-0.4467,-0.4491,-0.4491,-0.4491,-0.4542,-0.4617,-0.467,-0.4796,-0.4921,-0.4968,-0.5077,-0.5111,-0.5005,0.0,0.0,-0.5083,-0.51,-0.5147,-0.5365,-0.5395,-0.5446,-0.5566,-0.5708,-0.5854,-0.5973,-0.6162,-0.6409,-0.6664,-0.6702,-0.6817,-0.7068,-0.7095,-0.7095,-0.7095,-0.7095,-0.7095,-0.7095,-0.7095,-0.7095,-0.7095,-0.7095,-0.7095,-0.7095,-0.7095,-0.7095,-0.7095,-0.7095,-0.7095,-0.7095,-0.7095,-0.7095,-0.7095,-0.7095,-0.7095,-0.7095,-0.7095,-0.7095,-0.7095,-0.7095,-0.7095,-0.7095,-0.7095,-0.7448,-0.8145,0.0,0.0,0.0,0.0,0.0,0.0,0.0,0.3604,0.3604,0.3604,0.3604,0.3604,0.3604,0.3604,0.3604,0.0,0.0,0.0,0.0,0.0,0.0,0.0,0.0,0.0,0.0,0.0,0.0,0.0,0.0,0.0,0.0,0.0,0.0,0.0,0.0694,0.0627,0.018,0.0,0.0,0.0,0.0,0.0,0.0,0.0,0.0,0.0,0.0,0.0,0.0,0.0,-0.414,-0.4214,-0.4379,-0.4464,-0.4491,-0.4491,-0.4491,-0.4515,-0.4638,-0.4667,-0.4718,-0.484,-0.4864,-0.4881,-0.4877,-0.487,-0.4881,-0.5022,-0.5052,-0.5142,-0.5361,-0.5395,-0.5433,0.0,-0.5661,-0.581,-0.5922,-0.6115,-0.6361,-0.6617,-0.6681,0.0,-0.7024,-0.7078,0.0,-0.7095,-0.7095,-0.7095,-0.7095,-0.7095,-0.7095,-0.7095,-0.7095,-0.7095,-0.7095,-0.7095,-0.7095,-0.7095,-0.7095,-0.7095,-0.7095,-0.7095,-0.7095,-0.7095,-0.7095,-0.7095,-0.7095,-0.7095,-0.7095,-0.7095,-0.7095,-0.7095,-0.7095,-0.7095,-0.7095,-0.7445,0.0,0.0,0.0,0.0,0.0,0.0,0.0,0.3604,0.3604,0.3604,0.3604,0.3604,0.3604,0.3604,0.3604,0.0,0.0,0.0,0.0,0.0,0.0,0.0,0.0,0.0,0.0,0.0,0.0,0.0,0.0,0.0,0.0,0.0,0.0,0.0,0.0,0.0873,0.0784,0.0224,0.0,0.0,0.0,0.0,0.0,0.0,0.0,0.0,0.0,0.0,0.0,0.0,0.0,-0.4197,-0.421,-0.4358,-0.4491,-0.4491,0.0,0.0,-0.4508,-0.4614,-0.4694,-0.4707,-0.4816,-0.488,-0.4745,0.0,-0.4755,-0.4877,-0.4908,-0.5026,-0.5341,-0.5395,-0.5399,-0.5416,0.0,-0.5657,-0.5803,-0.5956,-0.6159,-0.6497,0.0,0.0,-0.6889,-0.7021,-0.7095,-0.7095,-0.7095,-0.7095,-0.7095,-0.7095,-0.7095,-0.7095,-0.7095,-0.7095,-0.7095,-0.7095,-0.7095,-0.7095,-0.7095,-0.7095,-0.7095,-0.7095,-0.7095,-0.7095,-0.7095,-0.7095,0.0,-0.7095,-0.7095,-0.7095,-0.7095,-0.7095,-0.7095,-0.7095,-0.7095,-0.7445,0.0,0.0,0.0,0.0,0.0,0.0,0.0,0.3604,0.3604,0.3604,0.3604,0.3604,0.3604,0.3604,0.3604,0.0,0.0,0.0,0.0,0.0,0.0,0.0,0.0,0.0,0.0,0.0,0.0247,0.0,0.0,0.0,0.0,0.0,0.0,0.0,0.0,0.0359,0.0337,0.0112,0.0,0.0,0.0,0.0,0.0,0.0,0.0,0.0,0.0,0.0,-0.3699,-0.3765,0.0,0.0,-0.4167,-0.4345,0.0,0.0,-0.4491,-0.4491,-0.4491,-0.4535,-0.4583,-0.4583,-0.4627,-0.4655,-0.4597,0.0,-0.4651,-0.4867,-0.4887,-0.5009,-0.5341,-0.5395,-0.5395,-0.5395,0.0,0.0,-0.5783,-0.5932,-0.6139,-0.6477,-0.6607,0.0,0.0,0.0,-0.7095,-0.7095,-0.7095,-0.7095,-0.7095,-0.7095,-0.7095,-0.7095,-0.7095,-0.7095,-0.7095,-0.7095,-0.7095,-0.7095,-0.7095,-0.7095,-0.7095,-0.7095,-0.7095,-0.7095,-0.7095,-0.7095,0.0,-0.7095,-0.7095,-0.7095,-0.7095,-0.7095,-0.7095,-0.7095,-0.7095,-0.7445,0.0,0.0,0.0,0.0,0.0,0.0,0.3604,0.3604,0.3604,0.3604,0.3604,0.3604,0.3604,0.3604,0.3604,0.3604,0.0,0.0,0.0,0.0,0.0,0.0,0.0,0.0,0.0,0.0,0.0359,0.0,0.0,0.0,0.0,0.0,0.0,0.0,0.0,0.0,0.0,0.0,0.0,0.0,0.0,0.0,0.0,0.0,0.0,0.0,0.0,0.0,0.0,0.0,0.0,0.0,0.0,0.0,0.0,0.0,-0.4491,-0.4491,-0.4491,-0.4491,-0.4491,-0.4491,-0.4491,-0.4491,0.0,0.0,-0.4576,-0.4857,-0.4887,-0.5009,-0.5341,-0.5395,-0.5395,0.0,0.0,-0.5589,-0.5776,-0.5895,-0.6088,-0.647,0.0,-0.6759,-0.6873,-0.7014,-0.7095,-0.7095,-0.7095,-0.7095,-0.7095,-0.7095,-0.7095,-0.7095,-0.7095,-0.7095,-0.7095,-0.7095,-0.7095,-0.7095,-0.7095,-0.7095,-0.7095,-0.7095,-0.7095,-0.7095,-0.7095,-0.7095,0.0,-0.7095,-0.7095,-0.7095,-0.7095,-0.7095,-0.7095,-0.7095,-0.7316,-0.7925,0.0,0.0,0.0,0.0,0.0,0.0,0.0,0.3604,0.3604,0.3604,0.3604,0.3604,0.3604,0.3604,0.3604,0.3604,0.0,0.0,0.0,0.0,0.0,0.0,0.0,0.0,0.0,0.0,0.1207,0.0,0.0,0.0,0.0,0.0,0.0,0.0,0.0,0.0,0.0,0.0,0.0,0.0,0.0,0.0,0.0,0.0,0.0,0.0,0.0,0.0,0.0,0.0,0.0,0.0,0.0,-0.4102,-0.425,0.0,-0.4491,-0.4491,-0.4491,-0.4491,-0.4491,-0.4491,-0.4491,-0.4491,0.0,-0.4491,-0.4576,-0.4857,-0.4887,-0.5009,-0.5341,-0.5395,-0.5395,-0.5395,-0.5395,0.0,-0.5762,-0.5803,-0.5969,0.0,0.0,-0.6759,-0.6873,-0.7014,-0.7095,-0.7095,-0.7095,0.0,-0.7095,-0.7095,-0.7095,-0.7095,-0.7095,-0.7095,-0.7095,-0.7095,-0.7095,-0.7095,-0.7095,-0.7095,-0.7095,-0.7095,-0.7095,-0.7095,-0.7095,-0.7095,0.0,-0.7095,-0.7095,-0.7095,-0.7095,-0.7095,-0.7095,-0.7095,-0.7841,-0.9065,0.0,0.0,0.0,0.0,0.0,0.0,0.0,0.3604,0.3604,0.3604,0.3604,0.3604,0.3604,0.3604,0.3604,0.3604,0.0,0.0,0.0,0.0,0.0,0.0,0.0,0.0,0.0,0.0,0.1207,0.0,0.0403,0.0404,0.0,0.0,0.0,0.0,0.0,0.0,0.0,0.0,0.0,0.0,0.0,0.0,0.0,0.0,0.0,0.0,0.0,0.0,0.0,0.0,0.0,0.0,0.0,0.0,0.0,-0.4447,-0.4491,-0.4491,-0.4491,-0.4491,-0.4491,-0.4491,-0.4491,-0.4491,-0.4491,-0.4491,-0.4576,-0.4857,-0.4887,-0.5009,-0.5341,-0.5395,-0.5395,-0.5395,-0.5395,0.0,0.0,0.0,0.0,-0.6323,-0.6549,-0.68,0.0,0.0,-0.7095,-0.7095,-0.7095,-0.7095,-0.7095,-0.7095,-0.7095,-0.7095,-0.7095,-0.7095,-0.7095,-0.7095,-0.7095,-0.7095,-0.7095,-0.7095,-0.7095,-0.7095,-0.7095,-0.7095,-0.7095,-0.7095,-0.7095,-0.7095,-0.7095,-0.7095,-0.7095,-0.7095,-0.7095,-0.7095,-0.7885,-0.9061,0.0,0.0,0.0,0.0,0.0,0.0,0.0,0.3604,0.3604,0.3604,0.3604,0.3604,0.3604,0.3604,0.3604,0.3604,0.0,0.0,0.0,0.0,0.0,0.0,0.0,0.0,0.0,0.214,0.1541,0.0337,0.0716,0.0583,0.0,0.0,0.0,0.0,0.0,0.0,0.0,0.0,0.0,0.0,0.0,0.0,0.0,0.0,0.0,0.0,0.0,0.0,0.0,0.0,0.0,0.0,0.0,0.0,0.0,0.0,-0.4491,-0.4491,-0.4491,-0.4491,-0.4491,-0.4491,-0.4491,0.0,-0.4491,-0.4491,-0.4576,-0.4857,-0.4887,-0.5009,-0.5341,-0.5395,-0.5395,-0.5395,-0.5395,-0.5498,0.0,0.0,0.0,-0.6416,0.0,0.0,0.0,-0.7095,-0.7095,-0.7095,-0.7095,-0.7095,-0.7095,-0.7095,-0.7095,-0.7095,-0.7095,-0.7095,-0.7095,-0.7095,-0.7095,-0.7095,-0.7095,-0.7095,-0.7095,-0.7095,-0.7095,-0.7095,-0.7095,-0.7095,0.0,-0.7095,-0.7095,-0.7095,-0.7095,-0.7095,-0.7095,-0.7095,-0.8141,-0.9623,0.0,0.0,0.0,0.0,0.0,0.0,0.0,0.0,0.0,0.0,0.3604,0.3604,0.3604,0.3604,0.3604,0.0,0.0,0.0,0.0,0.0,0.0,0.0,0.0,0.0,0.0,0.2696,0.2119,0.0895,0.0895,0.0583,0.0,0.0,0.0,0.0,0.0,0.0,0.0,0.0,0.0,0.0,0.0,0.0,0.0,0.0,0.0,0.0,0.0,0.0,0.0,0.0,0.0,0.0,0.0,0.0,0.0,0.0,0.0,0.0,0.0,-0.4491,-0.4491,-0.4491,-0.4491,-0.4491,-0.4491,-0.4491,0.0,-0.4857,-0.4887,-0.5009,-0.5341,-0.5395,-0.5395,-0.5395,-0.5395,-0.5498,0.0,-0.582,0.0,0.0,-0.6824,0.0,-0.7082,-0.7095,-0.7095,-0.7095,-0.7095,-0.7095,-0.7095,-0.7095,-0.7095,-0.7095,-0.7095,-0.7095,-0.7095,-0.7095,-0.7095,-0.7095,-0.7095,-0.7095,-0.7095,-0.7095,-0.7095,0.0,-0.7095,-0.7095,-0.7095,-0.7095,-0.7095,-0.7095,-0.7095,-0.7095,-0.7095,-0.7095,-0.8575,-1.0611,0.0,0.0,0.0,0.0,0.0,0.0,0.0,0.0,0.0,0.0,0.3604,0.3604,0.3604,0.3604,0.0,0.0,0.0,0.0,0.0,0.0,0.0,0.0,0.0,0.0,0.0,0.2696,0.2119,0.0895,0.0895,0.0583,0.0,0.0,0.0,0.0,0.0,0.0,0.0,0.0,0.0,0.0,0.0,0.0,0.0,0.0,0.0,0.0,-0.1808,-0.2568,0.0,0.0,0.0,0.0,0.0,0.0,0.0,0.0,-0.4491,-0.4491,-0.4491,0.0,-0.4491,-0.4491,-0.4491,-0.4491,0.0,0.0,0.0,0.0,0.0,0.0,0.0,-0.5395,-0.5395,-0.5395,-0.5395,-0.5498,-0.5759,-0.6003,0.0,-0.6658,-0.6732,-0.6854,-0.7071,-0.7095,-0.7095,-0.7095,-0.7095,-0.7095,-0.7095,-0.7095,-0.7095,-0.7095,-0.7095,-0.7095,-0.7095,-0.7095,-0.7095,-0.7095,-0.7095,-0.7095,-0.7095,-0.7095,-0.7095,-0.7095,-0.7095,-0.7095,-0.7095,-0.7095,-0.7095,-0.7095,-0.7095,-0.7095,-0.7095,-0.7095,-0.8575,-1.0611,0.0,0.0,0.0,0.0,0.0,0.0,0.0,0.0,0.0,0.0,0.0,0.0,0.0,0.0,0.0,0.0,0.0,0.0,0.0,0.0,0.0,0.0,0.0,0.0,0.2297,0.2295,0.183,0.0895,0.0895,0.0583,0.0,0.0,0.0,0.0,0.0,0.0,0.0,0.0,0.0,0.0,0.0,0.0,0.0,0.0,0.0,0.0,-0.2119,-0.2812,0.0,-0.3604,-0.3604,-0.3655,0.0,0.0,0.0,0.0,-0.4491,-0.4491,-0.4491,-0.4491,-0.4491,-0.4491,-0.4491,-0.4491,-0.4491,0.0,0.0,0.0,0.0,0.0,0.0,-0.5395,-0.5395,-0.5395,-0.5453,0.0,0.0,0.0,-0.6484,-0.6671,-0.6763,-0.6895,0.0,-0.7095,-0.7095,-0.7095,-0.7095,-0.7095,-0.7095,-0.7095,-0.7095,-0.7095,-0.7095,-0.7095,-0.7095,-0.7095,-0.7095,-0.7095,-0.7095,-0.7095,-0.7095,-0.7095,-0.7095,-0.7095,-0.7095,-0.7095,-0.7095,-0.7095,-0.7095,-0.7095,-0.7095,-0.7095,-0.7095,-0.7095,-0.8575,-1.0611,0.0,0.0,0.0,0.0,0.0,0.0,0.0,0.0,0.0,0.0,0.0,0.0,0.0,0.0,0.0,0.0,0.0,0.0,0.0,0.0,0.0,0.0,0.0,0.2317,0.1808,0.1719,0.1407,0.0895,0.0806,0.0493,0.0,0.0,0.0,0.0,0.0,0.0,0.0,0.0,0.0,0.0,0.0,0.0,0.0,0.0,0.0,0.0,0.0,0.0,0.0,-0.3604,-0.3604,-0.3655,-0.3927,0.0,0.0,0.0,0.0,0.0,-0.4491,-0.4491,-0.4491,-0.4491,-0.4491,-0.4491,-0.4491,0.0,0.0,0.0,0.0,0.0,0.0,-0.5395,0.0,0.0,0.0,0.0,-0.5952,-0.6285,-0.6569,-0.6681,-0.6834,0.0,-0.7082,-0.7095,-0.7095,-0.7095,-0.7095,-0.7095,-0.7095,-0.7095,-0.7095,-0.7095,-0.7095,-0.7095,-0.7095,-0.7095,-0.7095,-0.7095,-0.7095,-0.7095,-0.7095,-0.7095,-0.7095,-0.7095,-0.7095,0.0,-0.7095,-0.7095,-0.7095,-0.7095,-0.7095,-0.7095,-0.7095,-0.7095,-0.8488,-1.0394,0.0,0.0,0.0,0.0,0.0,0.0,0.0,0.0,0.0,0.0,0.0,0.0,0.0,0.0,0.0,0.0,0.0,0.0,0.0,0.0,0.0,0.0,0.194,0.1895,0.1808,0.1297,0.0984,0.0895,0.0381,0.009,0.0,0.0,0.0,0.0,0.0,0.0,0.0,0.0,0.0,0.0,0.0,0.0,0.0,0.0,0.0,0.0,0.0,0.0,0.0,-0.3604,-0.3604,-0.3655,-0.3927,0.0,0.0,0.0,0.0,0.0,-0.4491,-0.4491,-0.4491,-0.4491,-0.4491,-0.4491,-0.4491,-0.459,0.0,0.0,0.0,0.0,0.0,-0.5395,-0.5395,0.0,0.0,-0.583,0.0,0.0,-0.6569,-0.6681,0.0,-0.6943,-0.7082,-0.7095,-0.7095,-0.7095,-0.7095,-0.7095,-0.7095,-0.7095,-0.7095,-0.7095,-0.7095,-0.7095,-0.7095,-0.7095,-0.7095,-0.7095,-0.7095,-0.7095,-0.7095,-0.7095,-0.7095,-0.7095,0.0,-0.7095,-0.7095,-0.7095,-0.7095,-0.7095,-0.7095,-0.7095,-0.7095,-0.7095,-0.7969,-0.9449,0.0,0.0,0.0,0.0,0.0,0.0,0.0,0.0,0.0,0.0,0.0,0.0,0.0,0.0,0.0,0.0,0.0,0.0,0.0,0.0,0.0,0.134,0.1006,0.0828,0.0828,0.056,0.0403,0.0403,0.0135,0.0,0.0,0.0,0.0,0.0,0.0,0.0,0.0,0.0,0.0,0.0,0.0,0.0,0.0,0.0,0.0,0.0,0.0,0.0,0.0,0.0,-0.3604,-0.3655,-0.3927,0.0,0.0,0.0,0.0,0.0,-0.4491,-0.4491,-0.4491,-0.4491,-0.4491,-0.4491,-0.4491,-0.4607,-0.4735,0.0,0.0,0.0,0.0,0.0,-0.5446,-0.5607,0.0,-0.5979,-0.6132,-0.641,-0.662,0.0,0.0,-0.7024,-0.7088,-0.7095,-0.7095,-0.7095,-0.7095,-0.7095,-0.7095,-0.7095,-0.7095,-0.7095,-0.7095,-0.7095,-0.7095,-0.7095,-0.7095,-0.7095,-0.7095,-0.7095,-0.7095,-0.7095,-0.7095,-0.7095,0.0,-0.7095,-0.7095,-0.7095,-0.7095,-0.7095,-0.7095,-0.7095,-0.7183,-0.7841,-0.8798,-1.0053,0.0,0.0,0.0,0.0,0.0,0.0,0.0,0.0,0.0,0.0,0.0,0.0,0.0,0.0,0.0,0.0,0.0,0.0,0.0,0.0,0.1541,0.0918,0.0314,0.0,0.0,0.0,0.0,0.0,0.0,0.0,0.0,0.0,0.0,0.0,0.0,0.0,0.0,0.0,0.0,-0.0022,0.0,0.0,0.0,0.0,0.0,0.0,0.0,0.0,0.0,0.0,0.0,0.0,0.0,0.0,0.0,-0.4412,-0.4491,-0.4491,-0.4491,-0.4491,-0.4491,-0.4491,-0.4491,-0.4491,-0.4491,-0.4638,-0.4775,-0.4864,0.0,0.0,0.0,-0.5426,0.0,-0.5806,-0.5915,-0.6084,-0.6279,-0.6515,-0.6702,-0.6702,-0.6916,-0.7095,-0.7095,-0.7095,-0.7095,-0.7095,-0.7095,-0.7095,-0.7095,-0.7095,-0.7095,-0.7095,-0.7095,-0.7095,-0.7095,-0.7095,-0.7095,-0.7095,-0.7095,-0.7095,-0.7095,-0.7095,-0.7095,-0.7095,-0.7095,-0.7095,-0.7095,-0.7095,-0.7095,-0.7095,-0.7095,-0.7095,-0.7228,-0.8149,-0.9231,-1.0308,0.0,0.0,0.0,0.0,0.0,0.0,0.0,0.0,0.0,0.0,0.0,0.0,0.0,0.0,0.0,0.0,0.0,0.0,0.0,0.0,0.1541,0.0918,0.0314,0.0,0.0,0.0,0.0,0.0,0.0,0.0,0.0,0.0,0.0,0.0,0.0,0.0,0.0,0.0,0.0,-0.0045,-0.0605,0.0,0.0,0.0,0.0,0.0,0.0,0.0,0.0,0.0,0.0,0.0,0.0,0.0,-0.4237,-0.4447,-0.4491,-0.4491,-0.4491,-0.4491,-0.4491,-0.4491,-0.4491,-0.4491,-0.4491,-0.4691,-0.4874,-0.4887,0.0,0.0,0.0,-0.5511,-0.5671,-0.5929,-0.5986,-0.6084,-0.6279,0.0,-0.6702,-0.6702,-0.6916,-0.7095,-0.7095,-0.7095,-0.7095,-0.7095,-0.7095,-0.7095,-0.7095,-0.7095,-0.7095,-0.7095,-0.7095,-0.7095,-0.7095,-0.7095,-0.7095,-0.7095,-0.7095,-0.7095,-0.7095,-0.7095,-0.7095,-0.7095,-0.7095,-0.7095,-0.7095,-0.7095,-0.7095,-0.7095,-0.7095,-0.7095,-0.7095,-0.7183,-0.7973,-0.9021,0.0,0.0,0.0,0.0,0.0,0.0,0.0,0.0,0.0,0.0,0.0,0.0,0.0,0.0,0.0,0.0,0.0,0.0,0.0,0.0,0.0962,0.0359,0.0112,0.0,0.0,0.0,0.0,0.0,0.0,0.0,0.0,0.0,0.0,0.0,0.0,0.0,0.0,0.0,-0.0225,-0.0583,-0.0806,-0.134,0.0,0.0,0.0,0.0,0.0,0.0,0.0,0.0,-0.3696,-0.3819,0.0,-0.4099,-0.425,-0.4447,-0.4491,-0.4491,-0.4491,-0.4491,-0.4491,-0.4491,-0.4491,-0.4491,-0.4491,-0.4701,-0.4887,-0.4887,-0.5155,0.0,0.0,0.0,-0.5789,-0.5959,-0.6108,-0.6231,-0.6289,-0.6515,-0.6702,-0.6702,-0.6916,-0.7095,-0.7095,-0.7095,-0.7095,-0.7095,-0.7095,-0.7095,-0.7095,-0.7095,-0.7095,-0.7095,-0.7095,-0.7095,-0.7095,-0.7095,-0.7095,-0.7095,-0.7095,-0.7095,-0.7095,-0.7095,-0.7095,-0.7095,-0.7095,-0.7095,-0.7095,-0.7095,-0.7095,-0.7095,-0.7095,-0.7095,-0.7095,-0.7095,-0.7885,-0.889,0.0,0.0,0.0,0.0,0.0,0.0,0.0,0.0,0.0,0.0,0.0,0.0,0.0,0.0,0.0,0.0,0.0,0.0,0.0,0.0895,0.0627,0.0022,0.0,0.0,0.0,0.0,0.0,0.0,0.0,0.0,0.0,0.0,0.0,0.0,0.0,0.0,-0.0022,-0.0202,-0.0515,-0.094,-0.1318,-0.1962,0.0,0.0,0.0,0.0,0.0,0.0,0.0,0.0,-0.3744,0.0,0.0,0.0,0.0,0.0,-0.4491,-0.4491,-0.4491,-0.4491,-0.4491,-0.4491,-0.4491,-0.4501,-0.4552,-0.4735,-0.4901,-0.4945,-0.5226,-0.5515,-0.563,0.0,0.0,0.0,-0.6193,-0.63,-0.63,-0.6515,-0.6702,-0.6702,-0.6916,-0.7095,-0.7095,-0.7095,-0.7095,-0.7095,-0.7095,-0.7095,-0.7095,-0.7095,-0.7095,-0.7095,-0.7095,-0.7095,-0.7095,-0.7095,-0.7095,-0.7095,-0.7095,-0.7095,-0.7095,-0.7095,-0.7095,-0.7095,-0.7095,-0.7095,-0.7095,-0.7095,-0.7095,-0.7095,-0.7095,-0.7095,-0.7095,-0.7095,-0.7621,-0.8321,0.0,0.0,0.0,0.0,0.0,0.0,0.0,0.0,0.0,0.0,0.0,0.0,0.0,0.0,0.0,0.0,0.0,0.0,0.094,0.0895,0.0627,0.0022,0.0,0.0,0.0,0.0,0.0,0.0,0.0,0.0,0.0,0.0,0.0,0.0,0.0,0.0,-0.0045,-0.065,-0.0918,-0.1029,-0.2228,-0.2696,-0.2785,0.0,0.0,0.0,0.0,0.0,0.0,0.0,-0.3894,-0.4021,0.0,0.0,0.0,-0.4491,-0.4491,-0.4491,-0.4491,-0.4491,-0.4491,-0.4491,-0.4491,-0.4528,-0.4657,-0.4779,-0.4928,-0.5073,-0.5342,-0.5633,-0.5776,-0.5888,0.0,-0.6276,-0.63,-0.63,-0.63,-0.6515,-0.6698,-0.6702,-0.6916,-0.7095,-0.7095,-0.7095,-0.7095,-0.7095,-0.7095,-0.7095,-0.7095,-0.7095,-0.7095,-0.7095,-0.7095,-0.7095,-0.7095,-0.7095,-0.7095,-0.7095,-0.7095,-0.7095,-0.7095,-0.7095,-0.7095,-0.7095,-0.7095,-0.7095,-0.7095,-0.7095,-0.7095,-0.7095,-0.7095,-0.7095,-0.7095,-0.7095,-0.7095,-0.7095,0.0,0.0,0.0,0.0,0.0,0.0,0.0,0.0,0.0,0.0,0.0,0.0,0.0,0.0,0.0,0.0,0.0,0.0,0.0314,0.0269,0.018,0.0,0.0,0.0,0.0,0.0,0.0,0.0,0.0,0.0,0.0,0.0,0.0,-0.0022,-0.0448,-0.0627,-0.0672,-0.1274,-0.1784,-0.2206,-0.2563,-0.2943,-0.335,0.0,0.0,0.0,0.0,0.0,0.0,0.0,0.0,0.0,0.0,0.0,0.0,-0.4491,-0.4491,-0.4491,-0.4491,-0.4491,-0.4377,-0.379,0.0,0.0,0.0,-0.4058,0.0,0.0,-0.3912,-0.3832,-0.4723,-0.4922,0.0,-0.6157,-0.63,-0.63,-0.63,-0.6463,-0.658,-0.6688,-0.6871,-0.6987,-0.7088,-0.7095,-0.7095,-0.7095,-0.7095,-0.7095,-0.7095,-0.7095,-0.7095,-0.7095,-0.7095,-0.7095,-0.7095,-0.7095,-0.7095,-0.7095,-0.7095,-0.7095,-0.7095,-0.7095,-0.7095,-0.7095,-0.7095,-0.7095,-0.7095,-0.7095,-0.7095,-0.7095,-0.7095,-0.7095,-0.7095,-0.7095,-0.7095,-0.7095,0.0,0.0,0.0,0.0,0.0,0.0,0.0,0.0,0.0,0.0,0.2029,0.1607,0.0,0.0,0.0,0.0,0.0,0.0,0.0,0.0,0.0,0.0,0.0,0.0,0.0,0.0,0.0,0.0,0.0,0.0,0.0,0.0,-0.0135,-0.0381,-0.0739,-0.1029,-0.1297,-0.1895,-0.2361,-0.2719,-0.2965,-0.3284,-0.3604,0.0,0.0,0.0,0.0,0.0,0.0,0.0,0.0,0.0,-0.4291,0.0,-0.4491,-0.4491,-0.4491,-0.4491,-0.4491,-0.4491,-0.4322,-0.3539,-0.3322,-0.3153,-0.2622,0.0,0.0,0.0,-0.3107,-0.2992,-0.3723,-0.3917,0.0,-0.5461,-0.567,-0.567,-0.567,-0.6139,-0.6384,-0.6021,-0.6544,-0.692,-0.7004,-0.7061,-0.7095,-0.7095,-0.7095,-0.7095,-0.7095,-0.7095,-0.7095,-0.7095,-0.7095,-0.7095,-0.7095,-0.7095,-0.7095,-0.7095,-0.7095,-0.7095,-0.7095,-0.7095,-0.7095,-0.7095,-0.7095,-0.7095,-0.7095,-0.7095,-0.7095,-0.7095,-0.7095,-0.7095,-0.7095,-0.7095,-0.7095,-0.7095,0.0,0.0,0.0,0.0,0.0,0.0,0.0,0.0,0.0,0.0,0.1673,0.1228,0.0,0.0,0.0,0.0,0.0,0.0,0.0,0.0,0.0,0.0,0.0,0.0,0.0,0.0,0.0,0.0,0.0,0.0,0.0,-0.0067,-0.0381,-0.0895,-0.1006,-0.1362,-0.1919,-0.2519,-0.2785,-0.2829,-0.3376,-0.361,-0.3621,-0.3621,0.0,0.0,0.0,0.0,0.0,0.0,0.0,0.0,-0.445,-0.4491,-0.4491,-0.4491,-0.4491,-0.4491,-0.4491,-0.4491,-0.4294,-0.3483,-0.3152,-0.2868,-0.238,-0.2364,-0.2479,-0.2552,0.0,-0.2652,-0.2767,-0.2879,-0.3318,-0.4373,-0.4569,-0.4569,-0.4569,-0.5489,-0.5851,-0.502,-0.5963,-0.6764,-0.6866,-0.698,-0.7055,-0.7055,-0.7055,-0.7055,-0.7055,-0.7055,-0.7055,-0.7055,-0.7055,-0.7061,-0.7078,-0.7078,-0.7085,-0.7095,-0.7095,-0.7095,-0.7095,-0.7095,-0.7095,-0.7095,-0.7095,-0.7095,-0.7095,-0.7095,-0.7095,-0.7095,-0.7095,-0.7095,-0.7095,-0.7095,-0.7095,-0.7095,0.0,0.0,0.0,0.0,0.0,0.0,0.0,0.0,0.0,0.0,0.0,0.0,0.0,0.0,0.0,0.0,0.0,0.0,0.0,0.0,0.0,0.0,0.0,0.0,0.0,0.0,0.0,0.0,0.0,0.0,0.0,-0.0493,-0.0784,-0.094,-0.1895,-0.2386,-0.2541,-0.3148,-0.3398,-0.342,-0.3556,-0.3668,-0.3744,-0.3744,-0.3839,0.0,0.0,0.0,0.0,0.0,0.0,0.0,-0.4481,-0.4491,-0.4491,-0.4491,-0.4491,-0.4491,-0.4491,-0.4491,0.0,-0.2788,-0.1576,-0.0678,-0.0576,-0.0561,-0.0778,-0.1448,-0.1067,-0.0878,-0.1716,-0.1919,-0.227,-0.3281,-0.3435,-0.3435,-0.3435,-0.3686,-0.408,-0.4806,-0.5146,-0.5709,-0.6652,-0.6776,-0.6797,-0.6797,-0.6797,-0.6797,-0.6797,-0.6797,-0.6797,-0.6797,-0.6797,-0.6854,-0.693,-0.693,-0.6987,-0.7095,-0.7095,-0.7095,-0.7095,-0.7095,-0.7095,-0.7095,-0.7095,-0.7095,-0.7095,-0.7095,-0.7095,-0.7095,-0.7095,-0.7095,-0.7095,-0.7095,-0.7095,-0.7095,0.0,0.0,0.0,0.0,0.0,0.0,0.0,0.0,0.0,0.0,0.0,0.0,0.0,0.0,0.0,0.0,0.0,0.0,0.0,0.0,0.0,0.0,0.0,0.0,0.0,0.0,0.0,0.0,-0.0292,-0.0426,-0.0448,-0.0761,-0.1207,-0.1784,-0.2428,-0.2854,-0.3148,-0.3464,-0.3641,-0.3703,-0.3703,-0.3771,-0.39,-0.39,-0.3971,-0.4102,-0.4102,0.0,0.0,0.0,0.0,0.0,0.0,0.0,-0.4491,-0.4491,-0.4491,-0.4405,-0.4042,-0.3959,0.0,-0.206,0.0,0.0,0.0,0.0,-0.0136,-0.0592,-0.0322,-0.0183,-0.0741,-0.0842,-0.1176,-0.2229,-0.2386,-0.2386,-0.2386,-0.2812,-0.3139,-0.3301,-0.3821,-0.4392,-0.5058,-0.516,-0.5233,-0.5233,-0.5649,-0.5942,-0.5942,-0.6405,-0.6702,-0.6702,-0.6702,-0.6739,-0.6817,-0.682,-0.6858,-0.6929,-0.6929,-0.6929,-0.6936,-0.7031,-0.7095,-0.7095,-0.7095,-0.7095,-0.7095,-0.7095,-0.7095,-0.7095,-0.7095,-0.7095,-0.7095,-0.7095,-0.7095,-0.7095,0.0,0.0,0.0,0.0,0.0,0.0,0.0,0.0,0.0,0.0,0.0,0.0,0.0,0.0,0.0,0.0,0.0,0.0,0.0,0.0,0.0,0.0,0.0,0.0,0.0,-0.0112,-0.0157,-0.0157,-0.0761,-0.1118,-0.1207,-0.1207,-0.1741,-0.2696,-0.2807,-0.3138,-0.3638,-0.3638,-0.3723,-0.3829,-0.3829,-0.3924,-0.4035,-0.4035,-0.4129,-0.426,-0.426,-0.4362,-0.4491,-0.4491,0.0,0.0,0.0,0.0,-0.4491,-0.4491,-0.4491,-0.4349,-0.368,-0.3357,-0.2858,-0.1465,-0.0538,0.0,0.0,0.0,0.0,0.0,0.0,0.0,0.0,0.0,-0.0275,-0.1176,-0.1333,-0.1333,-0.1333,-0.2034,-0.2306,-0.1685,-0.2428,-0.3099,-0.3339,-0.344,-0.3519,-0.3519,-0.4467,-0.5043,-0.5043,-0.604,-0.6624,-0.6624,-0.6624,-0.6637,-0.6661,-0.6661,-0.6675,-0.6702,-0.6702,-0.6702,-0.6709,-0.691,-0.7034,-0.7061,-0.7085,-0.7095,-0.7095,-0.7095,-0.7095,-0.7095,-0.7095,-0.7095,-0.7095,-0.7095,-0.7095,-0.7095,0.0,0.0,0.0,0.0,0.0,0.0,0.0,0.0,0.0,0.0,0.0045,0.0,0.0,0.0,0.0,0.0,0.0,0.0,0.0,0.0,0.0,0.0,0.0,0.0,0.0,-0.0515,-0.0784,-0.0784,-0.1385,-0.194,-0.245,-0.245,-0.2541,-0.2719,-0.3239,-0.3578,-0.3765,-0.3765,-0.3849,-0.3964,-0.3964,-0.4055,-0.4167,-0.4167,-0.4281,-0.446,-0.446,-0.4474,-0.4491,-0.4491,-0.4491,0.0,0.0,0.0,-0.4491,-0.4491,-0.4491,-0.4487,-0.4377,0.0,-0.2158,0.0,-0.0547,0.0,0.0,0.0,0.0,0.0,0.0,0.0,0.0,0.0,-0.0039,-0.0196,-0.0196,-0.0196,-0.0196,-0.0314,-0.0706,-0.1489,-0.1729,-0.2163,-0.3061,-0.3147,-0.3154,-0.3154,-0.4138,-0.4771,-0.4771,-0.5761,-0.6358,-0.6358,-0.6358,-0.6419,-0.6542,-0.6542,-0.6569,-0.6702,-0.6702,-0.6702,-0.6702,-0.6742,-0.6831,-0.692,-0.7045,-0.7095,-0.7095,-0.7095,-0.7095,-0.7095,-0.7095,-0.7095,-0.7095,-0.7095,-0.7095,-0.7095,0.0,0.0,0.0,0.0,0.0,0.0,0.0,0.0,0.0,0.0,0.0,0.0,0.0,0.0,0.0,0.0,0.0,0.0,0.0,0.0,0.0,0.0,0.0,-0.0157,-0.0493,-0.0761,-0.1073,-0.1407,-0.2008,-0.245,-0.2719,-0.3126,-0.3285,-0.3217,-0.3569,-0.3757,-0.3795,-0.3883,-0.3984,-0.4122,-0.4122,-0.421,-0.4368,-0.4368,-0.4433,-0.4491,-0.4491,-0.4491,-0.4491,-0.4491,-0.4491,-0.4491,-0.4491,0.0,0.0,0.0,-0.4491,-0.4311,-0.345,-0.2469,-0.1494,0.0,-0.0229,0.0,0.0,0.0,0.0,0.0,0.0,0.0,0.0,0.0,0.0,0.0,0.0,0.0,0.0,0.0,-0.0157,-0.0667,-0.0706,-0.0862,-0.1331,-0.137,-0.137,-0.137,-0.2347,-0.2973,-0.2973,-0.4533,-0.5395,-0.5395,-0.5983,-0.633,-0.6392,-0.6395,-0.6426,-0.6494,-0.6494,-0.6494,-0.6497,-0.6536,-0.6658,-0.6803,-0.6868,-0.6895,-0.6902,-0.6943,-0.6977,-0.6987,-0.7065,-0.7095,-0.7095,-0.7095,-0.7095,-0.7095,0.0,0.0,0.0,0.0,0.0,0.0,0.0,0.0,0.0,0.0,0.0,0.0,0.0,0.0,0.0,0.0,0.0,0.0,0.0,0.0,0.0,0.0,0.0,-0.0672,-0.1118,-0.1274,-0.1585,-0.2029,-0.2658,-0.2988,-0.299,-0.3564,-0.3792,-0.3697,-0.3802,-0.387,-0.3914,-0.4004,-0.4139,-0.4274,-0.4274,-0.4365,-0.4491,-0.4491,-0.4491,-0.4491,-0.4491,-0.4491,-0.4491,-0.4491,-0.4491,-0.4491,-0.4491,-0.4491,0.0,0.0,0.0,-0.3897,0.0,0.0,-0.1033,-0.0195,0.0,0.0,0.0,0.0,0.0,0.0,0.0,0.0,0.0,0.0,0.0,0.0,0.0,0.0,0.0,0.0,0.0,0.0,0.0,0.0,0.0,0.0,0.0,0.0,-0.098,-0.1607,-0.1607,-0.3556,-0.4688,-0.4688,-0.5747,-0.63,-0.63,-0.63,-0.63,-0.63,-0.63,-0.63,-0.6303,-0.6409,-0.6521,-0.6593,-0.6668,-0.6702,-0.6709,-0.6824,-0.6829,-0.6839,-0.6943,-0.7007,-0.7045,-0.7045,-0.7065,-0.7095,0.0,0.0,0.0,0.0,0.0,0.0,0.0,0.0,0.0,0.0,0.0,0.0,0.0,0.0,0.0,0.0,0.0,0.0,0.0,0.0,0.0,0.0,0.0,0.0,-0.1763,-0.2317,-0.263,-0.2652,-0.3385,-0.3731,-0.3735,-0.3913,-0.3981,-0.3971,-0.3981,-0.4062,-0.4174,-0.418,-0.4294,-0.4481,-0.4481,-0.4484,-0.4491,-0.4491,-0.4491,-0.4491,-0.4491,-0.4491,-0.4491,-0.4491,-0.4491,-0.4491,-0.4491,-0.4491,-0.4491,0.0,0.0,0.0,0.0,-0.1663,0.0,-0.02,0.0,0.0,0.0,0.0,0.0,0.0,0.0,0.0,0.0,0.0,0.0,0.0,0.0,0.0,0.0,0.0,0.0,0.0,0.0,0.0,0.0,0.0,0.0,0.0,-0.098,-0.1607,-0.1607,-0.3556,-0.4688,-0.4688,-0.5747,-0.63,-0.63,-0.63,-0.63,-0.63,-0.63,-0.63,-0.63,-0.6306,-0.6317,-0.6337,-0.658,-0.6702,-0.6702,-0.6709,-0.6712,-0.6712,-0.6719,-0.681,-0.6896,-0.6896,-0.698,-0.7095,0.0,0.0,0.0,0.0,0.0,0.0,0.0,0.0,0.0,0.0,0.0,0.0,0.0,0.0,-0.0187,-0.0676,-0.1145,0.0,0.0,0.0,0.0,0.0,0.0,0.0,0.0,-0.2846,-0.3157,-0.3543,-0.3789,-0.3938,-0.3941,-0.4068,-0.4139,-0.4139,-0.4139,-0.4143,-0.42,-0.4345,-0.4443,-0.4491,-0.4491,-0.4491,-0.4491,-0.4491,-0.4491,-0.4436,-0.3901,-0.407,-0.4432,-0.3901,-0.3763,-0.379,-0.3732,-0.34,-0.3023,-0.3031,-0.2898,0.0,0.0,0.0,0.0,-0.0201,0.0,0.0,0.0,0.0,0.0,0.0,0.0,0.0,0.0,0.0,0.0,0.0,0.0,0.0,0.0,0.0,0.0,0.0,0.0,0.0,0.0,0.0,0.0,0.0,-0.0374,-0.0561,-0.0561,-0.1941,-0.3006,-0.3667,-0.4698,-0.5619,-0.6296,-0.63,-0.63,-0.63,-0.63,-0.63,-0.63,-0.63,-0.63,-0.6306,-0.6412,-0.646,-0.6467,-0.6515,-0.6556,-0.6563,-0.6661,-0.6732,-0.6783,-0.6783,-0.6875,-0.696,0.0,0.0,0.0,0.0,0.0,0.0,0.0,0.0,0.0,0.0,0.0,0.0,0.0,0.0,-0.0947,-0.1431,-0.1911,-0.2189,-0.2189,-0.239,0.0,0.0,0.0,0.0,0.0,-0.335,-0.3547,-0.3994,-0.3994,-0.4021,-0.4075,-0.4223,-0.4294,-0.4294,-0.4294,-0.4294,-0.4301,-0.445,-0.4491,-0.4491,-0.4491,-0.4491,-0.4491,-0.4491,-0.4491,-0.4405,-0.3594,-0.3649,-0.3984,-0.3204,-0.2954,-0.2989,-0.2938,-0.26,-0.2201,-0.2191,0.0,0.0,-0.1255,0.0,0.0,0.0,0.0,0.0,0.0,0.0,0.0,0.0,0.0,0.0,0.0,0.0,0.0,0.0,0.0,0.0,0.0,0.0,0.0,0.0,0.0,0.0,0.0,0.0,0.0,0.0,0.0,0.0,0.0,-0.1019,-0.2196,-0.3534,-0.4538,-0.5399,-0.6143,-0.6146,-0.617,-0.6183,-0.6183,-0.6248,-0.63,-0.63,-0.63,-0.63,-0.63,-0.63,-0.6306,-0.6402,-0.6443,-0.645,-0.6512,-0.6583,-0.6624,-0.6624,-0.6722,-0.6851,0.0,0.0,0.0,0.0,0.0,0.0,0.0,0.0,0.0,0.0,0.0,0.0,0.0,0.0,0.0,-0.2222,-0.2247,-0.2272,-0.2272,-0.2825,0.0,0.0,0.0,0.0,0.0,-0.3887,-0.3883,-0.4008,-0.4008,-0.4085,-0.4204,-0.4395,-0.4491,-0.4491,-0.4491,-0.4491,-0.4491,-0.4491,-0.4491,-0.4491,-0.4491,-0.4491,-0.4491,-0.4487,-0.446,-0.4349,-0.3539,-0.3259,-0.3148,-0.2428,0.0,0.0,-0.215,-0.2129,-0.2122,0.0,0.0,0.0,0.0,0.0,0.0,0.0,0.0,0.0,0.0,0.0,0.0,0.0,0.0,0.0,0.0,0.0,0.0,0.0,0.0,0.0,0.0,0.0,0.0,0.0,0.0,0.0,0.0,0.0,0.0,0.0,0.0,0.0,0.0,-0.1017,-0.2465,-0.4377,-0.529,-0.5764,-0.58,-0.58,-0.5874,-0.5986,-0.5986,-0.6105,-0.6293,-0.6293,-0.6296,-0.63,-0.63,-0.63,-0.63,-0.63,-0.63,-0.63,-0.63,-0.6385,-0.6504,-0.6504,-0.6563,-0.6695,0.0,0.0,0.0,0.0,0.0,0.0,0.0,0.0,0.0,0.0,0.0,0.0,0.0,0.0,-0.3006,-0.3003,-0.3525,-0.3851,-0.3851,-0.4015,-0.4123,-0.4123,-0.4284,0.0,-0.4368,-0.4324,-0.4324,-0.4368,-0.4368,-0.4389,-0.4429,-0.447,-0.4491,-0.4491,-0.4491,-0.4491,-0.4491,-0.4491,-0.4491,-0.4491,-0.4491,-0.4491,-0.4436,-0.3901,-0.3677,-0.3456,-0.2174,-0.2063,-0.2378,0.0,-0.1418,-0.131,-0.0783,-0.0622,-0.0605,0.0,0.0,0.0,-0.03,0.0,0.0,0.0,0.0,0.0,0.0,0.0,0.0,0.0,0.0,0.0,0.0,0.0,0.0,0.0,0.0,0.0,0.0,0.0,0.0,0.0,0.0,0.0,0.0,0.0,0.0,0.0,0.0,0.0,0.0,-0.1015,-0.2118,-0.3315,-0.4341,-0.5147,-0.58,-0.58,-0.5823,-0.5864,-0.5864,-0.5945,-0.6095,-0.6095,-0.6156,-0.63,-0.63,-0.63,-0.63,-0.63,-0.63,-0.63,-0.63,-0.6323,-0.6358,-0.6358,-0.645,-0.6536,0.0,0.0,0.0,0.0,0.0,0.0,0.0,0.0,0.0,0.0,0.0,0.0,0.0,0.0,-0.3791,-0.3809,-0.4236,-0.4491,-0.4491,-0.4491,-0.4491,-0.4491,-0.4491,0.0,-0.4491,-0.4429,-0.4429,-0.4491,-0.4429,-0.4429,0.0,0.0,0.0,-0.4491,-0.4491,-0.4491,-0.4494,-0.4559,-0.4549,-0.4491,-0.4491,-0.4491,-0.446,-0.4015,-0.3627,-0.3159,-0.1965,-0.164,-0.1634,-0.0893,-0.0635,0.0,0.0,0.0,0.0,0.0,0.0,0.0,0.0,0.0,0.0,0.0,0.0,0.0,0.0,0.0,0.0,0.0,0.0,0.0,0.0,0.0,0.0,0.0,0.0,0.0,0.0,0.0,0.0,0.0,0.0,0.0,0.0,0.0,0.0,0.0,0.0,0.0,0.0,-0.0921,-0.1888,-0.2778,-0.3793,-0.4734,-0.5616,-0.562,-0.565,-0.5715,-0.5715,-0.5789,-0.5935,-0.5963,-0.6078,-0.6169,-0.6272,-0.63,-0.63,-0.63,-0.63,-0.63,-0.63,-0.63,-0.63,-0.63,-0.6354,-0.6422,0.0,0.0,0.0,0.0,0.0,0.0,0.0,0.0,0.0,0.0,0.0,0.0,0.0,0.0,0.0,0.0,-0.4532,-0.4542,-0.4542,-0.4525,0.0,0.0,0.0,0.0,0.0,0.0,0.0,0.0,0.0,0.0,0.0,0.0,0.0,0.0,0.0,0.0,-0.4525,-0.4679,-0.4665,-0.4542,-0.4542,-0.4542,-0.4514,-0.4343,-0.3846,-0.3092,-0.2268,-0.1531,-0.0862,-0.0217,0.0,0.0,0.0,0.0,0.0,0.0,0.0,0.0,0.0,0.0,0.0,0.0,0.0,0.0,0.0,0.0,0.0,0.0,0.0,0.0,0.0,0.0,0.0,0.0,0.0,0.0,0.0,0.0,0.0,0.0,0.0,0.0,0.0,0.0,0.0,0.0,0.0,0.0,0.0,-0.0739,-0.1574,-0.2511,-0.3311,-0.4184,-0.5226,-0.5259,-0.5363,-0.5566,-0.5566,-0.564,-0.5783,-0.5918,-0.5959,-0.6,-0.6176,-0.6282,-0.63,-0.63,-0.63,-0.63,-0.63,-0.63,-0.63,-0.63,-0.63,-0.63,0.0,0.0,0.0,0.0,0.0,0.0,0.0,0.0,0.0,0.0,0.0,0.0,0.0,0.0,0.0,0.0,-0.4758,-0.483,-0.483,-0.4714,0.0,0.0,0.0,0.0,0.0,0.0,0.0,0.0,0.0,0.0,0.0,0.0,0.0,0.0,0.0,0.0,-0.4685,-0.4809,-0.4857,-0.483,-0.483,-0.483,-0.4677,-0.3378,-0.2786,-0.2466,-0.0976,-0.0337,-0.0186,-0.0063,0.0,0.0,0.0,0.0,0.0,0.0,0.0,0.0,0.0,0.0,0.0,0.0,0.0,0.0,0.0,0.0,0.0,0.0,0.0,0.0,0.0,0.0,0.0,0.0,0.0,0.0,0.0,0.0,0.0,0.0,0.0,0.0,0.0,0.0,0.0,0.0,0.0,0.0,0.0,-0.0168,-0.0672,-0.1541,-0.1742,-0.2609,-0.4251,-0.4284,-0.4667,-0.544,-0.544,-0.5518,-0.5633,-0.5661,-0.5803,-0.5993,-0.6023,-0.6146,-0.63,-0.63,-0.63,-0.63,-0.63,-0.63,-0.63,-0.63,-0.63,-0.63,0.0,0.0,0.0,0.0,0.0,0.0,0.0,0.0,0.0,0.0,0.0,0.0,0.0,0.0,0.0,0.0,0.0,0.0,0.0,0.0,0.0,0.0,0.0,0.0,0.0,0.0,0.0,0.0,0.0,0.0,0.0,0.0,0.0,0.0,0.0,-0.4806,-0.4813,-0.4931,-0.4992,-0.4985,-0.4918,-0.4641,-0.4177,-0.3348,-0.2544,-0.1699,-0.0851,-0.0319,0.0,0.0,0.0,0.0,0.0,0.0,0.0,0.0,0.0,0.0,0.0,0.0,0.0,0.0,0.0,0.0,0.0,0.0,0.0,0.0,0.0,0.0,0.0,0.0,0.0,0.0,0.0,0.0,0.0,0.0,0.0,0.0,0.0,0.0,0.0,0.0,0.0,0.0,0.0,0.0,0.0,0.0,-0.0404,-0.1273,-0.1307,-0.1975,-0.3345,-0.3782,-0.4251,-0.4722,-0.5193,-0.5436,-0.5515,-0.5555,-0.5671,-0.582,-0.5929,-0.6074,-0.6152,-0.6269,-0.63,-0.63,-0.63,-0.63,-0.63,-0.63,-0.63,-0.63,-0.0766,0.0,0.0,0.0,0.0,0.0,0.0,0.0,0.0,0.0,0.0,0.0,0.0,-0.4502,-0.4928,0.0,0.0,0.0,0.0,0.0,0.0,0.0,0.0,-0.4887,0.0,0.0,0.0,0.0,0.0,0.0,0.0,0.0,0.0,0.0,0.0,-0.4928,-0.4938,-0.5083,-0.5143,-0.5133,-0.505,-0.4563,-0.3905,-0.3561,-0.2601,-0.1362,-0.1007,-0.0495,0.0,0.0,0.0,0.0,0.0,0.0,0.0,0.0,0.0,0.0,0.0,0.0,0.0,0.0,0.0,0.0,0.0,0.0,0.0,0.0,0.0,0.0,0.0,0.0,0.0,0.0,0.0,0.0,0.0,0.0,0.0,0.0,0.0,0.0,0.0,0.0,0.0,0.0,0.0,0.0,0.0,0.0,-0.0337,-0.104,-0.104,-0.1508,-0.241,-0.3111,-0.3647,-0.4015,-0.4755,-0.5226,-0.5399,-0.5525,-0.5562,-0.5603,-0.584,-0.5939,-0.6,-0.6166,-0.6272,-0.63,-0.63,-0.63,-0.63,-0.63,-0.63,-0.63,-0.0107,-0.0132,0.0,0.0,0.0,0.0,0.0,0.0,0.0,0.0,0.0,-0.4833,-0.477,-0.4957,-0.5073,-0.5073,-0.5233,0.0,-0.5344,0.0,0.0,0.0,0.0,0.0,-0.4887,0.0,0.0,0.0,0.0,0.0,0.0,0.0,0.0,0.0,-0.5019,-0.5073,-0.5086,-0.527,-0.5368,-0.5365,-0.5351,-0.5278,-0.5009,-0.3414,-0.2692,-0.23,-0.0703,-0.0067,0.0,0.0,0.0,0.0,0.0,0.0,0.0,0.0,0.0,0.0,0.0,0.0,0.0,0.0,0.0,0.0,0.0,0.0,0.0,0.0,0.0,0.0,0.0,0.0,0.0,0.0,0.0,0.0,0.0,0.0,0.0,0.0,0.0,0.0,0.0,0.0,0.0,0.0,0.0,0.0,0.0,0.0,-0.0034,-0.0135,-0.0135,-0.0572,-0.1441,-0.1541,-0.241,-0.4015,-0.4115,-0.4586,-0.5395,-0.5412,-0.5494,-0.5593,-0.5627,-0.5789,-0.5993,-0.6013,-0.6135,-0.63,-0.63,-0.63,-0.63,-0.63,-0.63,-0.63,-0.0714,-0.063,0.0,0.0,0.0,0.0,0.0,0.0,0.0,0.0,0.0,-0.5012,-0.5012,-0.5176,-0.5264,-0.5264,-0.5358,-0.5395,-0.5395,0.0,0.0,0.0,0.0,0.0,0.0,0.0,0.0,0.0,-0.5012,0.0,0.0,0.0,0.0,0.0,-0.5237,-0.5264,-0.527,-0.5365,-0.5395,-0.5395,-0.5395,-0.509,0.0,-0.3178,-0.2044,-0.1041,-0.0269,0.0,0.0,0.0,0.0,0.0,0.0,0.0,0.0,0.0,0.0,0.0,0.0,0.0,0.0,0.0,0.0,0.0,0.0,0.0,0.0,0.0,0.0,0.0,0.0,0.0,0.0,0.0,0.0,0.0,0.0,0.0,0.0,0.0,0.0,0.0,0.0,0.0,0.0,0.0,0.0,0.0,0.0,0.0,0.0,0.0,0.0,-0.0168,-0.0538,-0.104,-0.1941,-0.3247,-0.3747,-0.4483,-0.5395,-0.5395,-0.5429,-0.5494,-0.5552,-0.5705,-0.5905,-0.5956,-0.6122,-0.63,-0.63,-0.63,-0.63,-0.63,-0.63,-0.63,-0.1586,-0.1265,-0.109,-0.109,0.0,0.0,0.0,0.0,0.0,0.0,-0.5073,-0.5196,-0.5196,-0.5327,-0.5395,-0.5395,-0.5395,-0.5395,-0.5395,0.0,-0.5395,0.0,0.0,0.0,0.0,0.0,0.0,0.0,0.0,0.0,0.0,0.0,0.0,0.0,0.0,-0.5395,-0.5395,-0.5395,-0.5395,-0.5395,-0.5395,-0.4686,-0.3547,-0.2644,-0.1342,0.0,0.0,0.0,0.0,0.0,0.0,0.0,0.0,0.0,0.0,0.0,0.0,0.0,0.0,0.0,0.0,0.0,0.0,0.0,0.0,0.0,0.0,0.0,0.0,0.0,0.0,0.0,0.0,0.0,0.0,0.0,0.0,0.0,0.0,0.0,0.0,0.0,0.0,0.0,0.0,0.0,0.0,0.0,0.0,0.0,0.0,0.0,0.0,0.0,0.0,-0.0638,-0.1408,-0.2344,-0.3211,-0.4115,-0.5024,-0.5292,-0.5395,-0.5402,-0.5515,-0.561,-0.5755,-0.5905,-0.6057,-0.6242,-0.6282,-0.63,-0.63,-0.63,-0.63,-0.63,-0.2459,-0.1713,-0.109,-0.109,-0.1234,0.0,0.0,0.0,0.0,-0.4994,-0.5257,-0.5388,-0.5388,-0.5392,-0.5395,-0.5395,-0.5395,-0.5395,-0.5395,0.0,-0.5395,0.0,0.0,-0.5395,0.0,0.0,0.0,0.0,0.0,0.0,0.0,0.0,0.0,0.0,-0.5395,-0.5395,-0.5395,-0.5395,-0.5395,-0.5395,-0.5395,-0.4317,-0.2644,0.0,-0.0772,0.0,0.0,0.0,0.0,0.0,0.0,0.0,0.0,0.0,0.0,0.0,0.0,0.0,0.0,0.0,0.0,0.0,0.0,0.0,0.0,0.0,0.0,0.0,0.0,0.0,0.0,0.0,0.0,0.0,0.0,0.0,0.0,0.0,0.0,0.0,0.0,0.0,0.0,0.0,0.0,0.0,0.0,0.0,0.0,0.0,0.0,0.0,0.0,0.0,0.0,-0.0034,-0.0471,-0.134,-0.231,-0.3211,-0.4082,-0.499,-0.5395,-0.5395,-0.5399,-0.5491,-0.5606,-0.5749,-0.5898,-0.6016,-0.6242,-0.63,-0.63,-0.63,-0.63,-0.63,-0.4084,-0.3448,-0.274,-0.2235,-0.2613,-0.3332,-0.45,-0.4684,-0.4874,-0.5238,-0.5361,-0.5395,-0.5395,-0.5395,-0.5395,-0.5395,-0.5395,-0.5395,-0.5395,-0.5395,0.0,-0.5395,-0.5395,-0.5395,0.0,0.0,0.0,0.0,0.0,0.0,0.0,0.0,0.0,0.0,0.0,-0.5395,-0.5395,-0.5395,0.0,0.0,0.0,-0.3245,-0.2611,0.0,-0.0772,0.0,0.0,0.0,0.0,0.0,0.0,0.0,0.0,0.0,0.0,0.0,0.0,0.0,0.0,0.0,0.0,0.0,0.0,0.0,0.0,0.0,0.0,0.0,0.0,0.0,0.0,0.0,0.0,0.0,0.0,0.0,0.0,0.0,0.0,0.0,0.0,0.0,0.0,0.0,0.0,0.0,0.0,0.0,0.0,0.0,0.0,0.0,0.0,0.0,0.0,0.0,-0.0437,-0.1307,-0.1608,-0.2242,-0.3178,-0.4048,-0.4486,-0.4519,-0.5123,-0.5481,-0.5599,-0.5742,-0.5891,-0.6006,-0.6238,-0.63,-0.63,-0.63,-0.63,-0.63,-0.4965,-0.4587,-0.401,-0.3232,-0.3534,-0.4159,-0.5061,-0.5213,-0.5247,-0.5382,-0.5395,-0.5395,-0.5395,-0.5395,-0.5395,-0.5395,-0.5395,-0.5419,-0.5474,-0.5426,0.0,-0.5474,-0.5426,-0.5395,0.0,0.0,0.0,0.0,0.0,-0.5395,0.0,0.0,0.0,0.0,0.0,-0.5395,-0.5395,-0.5395,-0.5395,0.0,0.0,-0.2711,0.0,0.0,-0.0504,0.0,0.0,0.0,0.0,0.0,0.0,0.0,0.0,0.0,0.0,0.0,0.0,0.0,0.0,0.0,0.0,0.0,0.0,0.0,0.0,0.0,0.0,0.0,0.0,0.0,0.0,0.0,0.0,0.0,0.0,0.0,0.0,0.0,0.0,0.0,0.0,0.0,0.0,0.0,0.0,0.0,0.0,0.0,0.0,0.0,0.0,0.0,0.0,0.0,0.0,0.0,-0.0269,-0.0839,-0.114,-0.1808,-0.2744,-0.3613,-0.4184,-0.4519,-0.5126,-0.545,-0.5559,-0.5722,-0.5861,-0.5969,-0.6218,-0.63,-0.63,-0.63,-0.63,-0.63,-0.511,-0.511,-0.4842,-0.403,-0.3977,-0.4379,-0.5272,-0.5395,-0.5395,-0.5395,-0.5395,-0.5399,-0.5405,-0.5405,-0.5409,-0.5416,-0.5416,-0.5481,-0.5593,-0.5491,0.0,0.0,-0.5477,-0.5395,-0.5395,0.0,0.0,0.0,0.0,0.0,0.0,0.0,0.0,0.0,-0.5395,0.0,-0.5395,-0.5395,-0.5362,-0.5193,-0.3413,-0.2678,-0.2444,-0.0672,0.0,0.0,0.0,0.0,0.0,0.0,0.0,0.0,0.0,0.0,0.0,0.0,0.0,0.0,0.0,0.0,0.0,0.0,0.0,0.0,0.0,0.0,0.0,0.0,0.0,0.0,0.0,0.0,0.0,0.0,0.0,0.0,0.0,0.0,0.0,0.0,0.0,0.0,0.0,0.0,0.0,0.0,0.0,0.0,0.0,0.0,0.0,0.0,0.0,0.0,0.0,0.0,0.0,0.0,-0.0839,-0.1708,-0.2611,-0.348,-0.4384,-0.5259,-0.5329,-0.5359,-0.5419,-0.5674,-0.5793,-0.583,-0.617,-0.6293,-0.63,-0.63,-0.63,-0.63,-0.5337,-0.5337,-0.5258,-0.5023,-0.5013,-0.5114,-0.5355,-0.5395,-0.5395,-0.5395,-0.5395,-0.544,-0.5552,-0.5532,-0.5576,-0.5681,-0.5688,0.0,0.0,0.0,0.0,-0.5589,-0.5477,-0.5395,-0.5395,-0.5395,-0.5395,-0.5395,0.0,0.0,-0.5395,0.0,0.0,0.0,0.0,-0.5395,-0.5395,-0.5395,-0.499,-0.4251,-0.3145,-0.2277,-0.1541,0.0,0.0,0.0,0.0,0.0,0.0,0.0,0.0,0.0,0.0,0.0,0.0,0.0,0.0,0.0,0.0,0.0,0.0,0.0,0.0,0.0,0.0,0.0,0.0,0.0,0.0,0.0,0.0,0.0,0.0,0.0,0.0,0.0,0.0,0.0,0.0,0.0,0.0,0.0,0.0,0.0,0.0,0.0,0.0,0.0,0.0,0.0,0.0,0.0,0.0,0.0,0.0,0.0,0.0,0.0,-0.0236,-0.0471,-0.0706,-0.1609,-0.2509,-0.3413,-0.4082,-0.4755,-0.5409,-0.5566,-0.5705,-0.582,-0.6013,-0.6159,-0.63,-0.63,-0.63,-0.63,-0.5395,-0.5395,-0.5395,-0.5395,-0.5395,-0.5395,-0.5395,-0.545,0.0,-0.5494,-0.5549,0.0,-0.5674,-0.5681,-0.5715,-0.5793,-0.58,0.0,-0.5895,0.0,0.0,-0.5779,-0.5576,-0.5494,-0.5494,-0.5429,0.0,-0.5395,0.0,0.0,-0.5395,0.0,0.0,0.0,0.0,-0.5395,-0.5395,-0.5395,-0.4855,-0.3915,-0.3045,-0.2143,0.0,-0.0337,0.0,0.0,0.0,0.0,0.0,0.0,0.0,0.0,0.0,0.0,0.0,0.0,0.0,0.0,0.0,0.0,0.0,0.0,0.0,0.0,0.0,0.0,0.0,0.0,0.0,0.0,0.0,0.0,0.0,0.0,0.0,0.0,0.0,0.0,0.0,0.0,0.0,0.0,0.0,0.0,0.0,0.0,0.0,0.0,0.0,0.0,0.0,0.0,0.0,0.0,0.0,0.0,0.0,0.0,0.0,-0.0202,-0.0572,-0.1073,-0.1809,-0.2744,-0.3613,-0.4084,-0.4295,-0.5214,-0.546,-0.5276,-0.5891,-0.6183,-0.63,-0.63,-0.63,-0.63,-0.5395,-0.5395,-0.5395,-0.5395,-0.5412,0.0,0.0,-0.5539,0.0,-0.5589,0.0,-0.581,-0.583,-0.583,-0.584,-0.5861,-0.5861,-0.5918,-0.6013,-0.5915,-0.5891,-0.5986,-0.5766,-0.561,-0.5589,-0.5494,-0.5416,0.0,0.0,0.0,0.0,0.0,0.0,0.0,0.0,0.0,0.0,-0.5395,-0.4788,-0.3747,-0.3011,-0.2076,-0.104,-0.0303,0.0,0.0,0.0,0.0,0.0,0.0,0.0,0.0,0.0,0.0,0.0,0.0,0.0,0.0,0.0,0.0,0.0,0.0,0.0,0.0,0.0,0.0,0.0,0.0,0.0,0.0,0.0,0.0,0.0,0.0,0.0,0.0,0.0,0.0,0.0,0.0,0.0,0.0,0.0,0.0,0.0,0.0,0.0,0.0,0.0,0.0,0.0,0.0,0.0,0.0,0.0,0.0,0.0,0.0,0.0,-0.0404,-0.114,-0.114,-0.1641,-0.2544,-0.3311,-0.3347,-0.2984,-0.4572,-0.4944,-0.4626,-0.5831,-0.63,-0.63,-0.63,-0.63,-0.63,-0.5395,-0.5395,-0.5395,-0.5395,-0.5498,-0.5549,-0.5549,-0.5572,-0.5589,-0.5589,-0.5715,-0.5847,-0.5939,-0.5952,-0.604,-0.6207,-0.6218,0.0,0.0,0.0,0.0,-0.599,-0.5861,-0.5708,-0.5593,-0.5562,-0.5521,0.0,0.0,0.0,0.0,0.0,0.0,0.0,0.0,0.0,-0.5395,-0.5395,0.0,-0.2911,-0.2744,-0.171,-0.0202,-0.0067,0.0,0.0,0.0,0.0,0.0,0.0,0.0,0.0,0.0,0.0,0.0,0.0,0.0,0.0,0.0,0.0,0.0,0.0,0.0,0.0,0.0,0.0,0.0,0.0,0.0,0.0,0.0,0.0,0.0,0.0,0.0,0.0,0.0,0.0,0.0,0.0,0.0,0.0,0.0,0.0,0.0,0.0,0.0,0.0,0.0,0.0,0.0,0.0,0.0,0.0,0.0,0.0,0.0,0.0,0.0,-0.0067,-0.0236,-0.0236,-0.0706,-0.1541,-0.1708,-0.2544,-0.3749,-0.3364,-0.3712,-0.4626,-0.5831,-0.63,-0.63,-0.63,-0.63,-0.63,-0.5395,-0.5457,-0.5515,-0.5515,0.0,0.0,0.0,-0.5769,-0.582,-0.582,-0.5949,-0.6067,-0.6142,-0.6149,-0.6179,-0.6293,-0.63,-0.63,-0.63,-0.6193,-0.6149,-0.6149,-0.6003,-0.5888,-0.582,-0.5667,-0.5552,-0.5515,0.0,0.0,0.0,0.0,0.0,-0.5395,0.0,-0.5395,0.0,0.0,0.0,-0.2711,-0.2711,-0.161,0.0,0.0,0.0,0.0,0.0,0.0,0.0,0.0,0.0,0.0,0.0,0.0,0.0,0.0,0.0,0.0,0.0,0.0,0.0,0.0,0.0,0.0,0.0,0.0,0.0,0.0,0.0,0.0,0.0,0.0,0.0,0.0,0.0,0.0,0.0,0.0,0.0,0.0,0.0,0.0,0.0,0.0,0.0,0.0,0.0,0.0,0.0,0.0,0.0,0.0,0.0,0.0,0.0,0.0,0.0,0.0,0.0,0.0,0.0,0.0,-0.0236,-0.0638,-0.1106,-0.1542,-0.195,-0.2073,-0.2732,-0.379,-0.4985,-0.5473,-0.555,-0.6103,-0.63,-0.63,-0.5487,-0.5586,0.0,0.0,-0.5752,-0.585,-0.585,-0.5979,-0.603,-0.5996,-0.6166,-0.63,-0.63,-0.63,-0.63,-0.63,-0.63,-0.63,-0.63,-0.63,-0.63,-0.63,-0.6142,-0.6027,-0.5993,-0.5803,-0.5667,0.0,0.0,0.0,0.0,0.0,0.0,0.0,0.0,0.0,0.0,0.0,-0.4184,-0.2678,-0.2477,-0.1442,0.0,0.0,0.0,0.0,0.0,0.0,0.0,0.0,0.0,0.0,0.0,0.0,0.0,0.0,0.0,0.0,0.0,0.0,0.0,0.0,0.0,0.0,0.0,0.0,0.0,0.0,0.0,0.0,0.0,0.0,0.0,0.0,0.0,0.0,0.0,0.0,0.0,0.0,0.0,0.0,0.0,0.0,0.0,0.0,0.0,0.0,0.0,0.0,0.0,0.0,0.0,0.0,0.0,0.0,0.0,0.0,0.0,0.0,0.0,0.0,0.0,-0.0034,-0.0739,-0.0638,-0.0101,-0.1353,-0.2181,-0.2737,-0.391,-0.4373,-0.445,-0.5315,-0.5628,-0.5628,0.0,0.0,0.0,0.0,0.0,-0.5973,-0.5973,-0.6139,-0.6186,-0.601,-0.6166,-0.63,-0.63,-0.63,-0.63,-0.63,-0.63,-0.63,-0.63,-0.63,-0.63,-0.63,-0.6286,-0.6173,-0.5996,-0.5966,-0.5922,0.0,0.0,-0.5569,0.0,0.0,0.0,0.0,0.0,0.0,0.0,-0.4483,-0.358,-0.2611,-0.1775,-0.0873,0.0,0.0,0.0,0.0,0.0,0.0,0.0,0.0,0.0,0.0,0.0,0.0,0.0,0.0,0.0,0.0,0.0,0.0,0.0,0.0,0.0,0.0,0.0,0.0,0.0,0.0,0.0,0.0,0.0,0.0,0.0,0.0,0.0,0.0,0.0,0.0,0.0,0.0,0.0,0.0,0.0,0.0,0.0,0.0,0.0,0.0,0.0,0.0,0.0,0.0,0.0,0.0,0.0,0.0,0.0,0.0,0.0,0.0,0.0,0.0,0.0,0.0,-0.0101,-0.0067,-0.0135,-0.2028,-0.2361,-0.1826,-0.2836,-0.324,-0.3279,-0.3357,-0.3396,-0.3396,0.0,0.0,0.0,0.0,0.0,0.0,0.0,-0.6259,-0.631,-0.6291,-0.6313,-0.633,-0.6419,-0.6426,-0.6463,-0.6515,-0.6525,-0.6525,-0.6433,-0.6426,-0.6388,-0.6303,-0.63,-0.6272,-0.6169,-0.6078,-0.5963,0.0,0.0,0.0,0.0,0.0,0.0,0.0,0.0,-0.509,-0.4519,-0.4151,-0.3175,-0.1819,-0.1443,-0.0764,0.0,0.0,0.0,0.0,0.0,0.0,0.0,0.0,0.0,0.0,0.0,0.0,0.0,0.0,0.0,0.0,0.0,0.0,0.0,0.0,0.0,0.0,0.0,0.0,0.0,0.0,0.0,0.0,0.0,0.0,0.0,0.0,0.0,0.0,0.0,0.0,0.0,0.0,0.0,0.0,0.0,0.0,0.0,0.0,0.0,0.0,0.0,0.0,0.0,0.0,0.0,0.0,0.0,0.0,0.0,0.0,0.0,0.0,0.0,0.0,0.0,0.0,0.0,0.0,-0.0069,-0.0825,-0.0954,-0.0747,-0.1777,-0.219,-0.2268,-0.289,-0.3085,-0.3085,-0.5935,0.0,-0.6098,0.0,-0.6224,-0.6361,-0.6361,-0.6402,-0.6467,-0.6525,-0.6494,-0.6467,-0.6529,-0.6539,-0.6583,-0.6692,-0.6702,-0.6654,-0.6546,-0.6539,-0.6515,-0.6368,-0.6361,0.0,-0.6303,-0.6156,-0.6098,-0.6098,-0.5942,0.0,0.0,0.0,0.0,0.0,-0.5182,-0.4665,-0.4012,-0.3464,-0.2462,-0.1272,-0.1025,-0.0537,0.0,0.0,0.0,0.0,0.0,0.0,0.0,0.0,0.0,0.0,0.0,0.0,0.0,0.0,0.0,0.0,0.0,0.0,0.0,0.0,0.0,0.0,0.0,0.0,0.0,0.0,0.0,0.0,0.0,0.0,0.0,0.0,0.0,0.0,0.0,0.0,0.0,0.0,0.0,0.0,0.0,0.0,0.0,0.0,0.0,0.0,0.0,0.0,0.0,0.0,0.0,0.0,0.0,0.0,0.0,0.0,0.0,0.0,0.0,0.0,0.0,0.0,0.0,0.0,0.0,0.0,0.0,-0.0076,-0.0816,-0.1137,-0.1215,-0.1917,-0.2189,-0.2189,-0.6293,-0.6296,-0.6296,-0.6296,-0.6416,-0.6511,-0.6511,-0.66,-0.6695,-0.6698,-0.6698,-0.6695,-0.6698,-0.6698,-0.6698,-0.6702,-0.6702,-0.6702,-0.6698,-0.6698,-0.663,0.0,0.0,-0.6443,-0.6303,-0.6296,-0.6296,-0.6296,0.0,0.0,-0.5983,0.0,-0.5796,-0.576,-0.4676,-0.4207,-0.4061,-0.214,-0.1307,-0.1236,-0.0364,0.0,0.0,0.0,0.0,0.0,0.0,0.0,0.0,0.0,0.0,0.0,0.0,0.0,0.0,0.0,0.0,0.0,0.0,0.0,0.0,0.0,0.0,0.0,0.0,0.0,0.0,0.0,0.0,0.0,0.0,0.0,0.0,0.0,0.0,0.0,0.0,0.0,0.0,0.0,0.0,0.0,0.0,0.0,0.0,0.0,0.0,0.0,0.0,0.0,0.0,0.0,0.0,0.0,0.0,0.0,0.0,0.0,0.0,0.0,0.0,0.0,0.0,0.0,0.0,0.0,0.0,0.0,0.0,0.0,0.0,0.0,-0.0039,-0.0039,-0.0039,-0.0039,-0.6446,-0.6528,-0.6559,-0.6559,-0.66,-0.6627,-0.6627,-0.6668,-0.6736,-0.6844,-0.6858,-0.6852,-0.6947,-0.6869,-0.6852,0.0,-0.6957,-0.6916,0.0,-0.6858,-0.679,-0.6634,-0.6569,-0.6491,-0.6446,-0.6351,-0.63,-0.63,0.0,0.0,0.0,-0.5874,-0.58,-0.5767,-0.4681,-0.3885,-0.323,-0.1889,-0.0955,-0.0374,-0.0112,0.0,0.0,0.0,0.0,0.0,0.0,0.0,0.0,0.0,0.0,0.0,0.0,0.0,0.0,0.0,0.0,0.0,0.0,0.0,0.0,0.0,0.0,0.0,0.0,0.0,0.0,0.0,0.0,0.0,0.0,0.0,0.0,0.0,0.0,0.0,0.0,0.0,0.0,0.0,0.0,0.0,0.0,0.0,0.0,0.0,0.0,0.0,0.0,0.0,0.0,0.0,0.0,0.0,0.0,0.0,0.0,0.0,0.0,0.0,0.0,0.0,0.0,0.0,0.0,0.0,0.0,0.0,0.0,0.0,0.0,0.0,0.0,0.0,0.0,0.0,-0.6475,-0.6634,-0.6702,-0.6702,-0.6749,-0.6787,-0.6787,-0.6831,-0.6898,-0.6953,-0.6964,-0.6997,-0.7088,-0.7018,0.0,-0.7088,-0.7095,-0.7058,-0.697,-0.6964,-0.69,-0.6793,-0.6695,-0.659,-0.6515,-0.6426,0.0,-0.63,-0.63,-0.6014,-0.5497,-0.5411,-0.5183,-0.4736,-0.3697,-0.2915,-0.2355,-0.1272,-0.0491,0.0,0.0,0.0,0.0,0.0,0.0,0.0,0.0,0.0,0.0,0.0,0.0,0.0,0.0,0.0,0.0,0.0,0.0,0.0,0.0,0.0,0.0,0.0,0.0,0.0,0.0,0.0,0.0,0.0,0.0,0.0,0.0,0.0,0.0,0.0,0.0,0.0,0.0,0.0,0.0,0.0,0.0,0.0,0.0,0.0,0.0,0.0,0.0,0.0,0.0,0.0,0.0,0.0,0.0,0.0,0.0,0.0,0.0,0.0,0.0,0.0,0.0,0.0,0.0,0.0,0.0,0.0,0.0,0.0,0.0,0.0,0.0,0.0,0.0,0.0,0.0,0.0,-0.6255,-0.6472,-0.6521,0.0,-0.672,-0.6814,-0.69,-0.7011,-0.7095,-0.7095,-0.7095,-0.7095,-0.7095,-0.7095,-0.7095,-0.7095,0.0,0.0,-0.7095,-0.7095,-0.7038,-0.6906,-0.6889,-0.6797,-0.6552,-0.6521,-0.6443,-0.63,-0.63,-0.5747,-0.4688,-0.4688,-0.4139,-0.3046,-0.2035,-0.1607,-0.1528,-0.0471,0.0,0.0,0.0,0.0,0.0,0.0,0.0,0.0,0.0,0.0,0.0,0.0,0.0,0.0,0.0,0.0,0.0,0.0,0.0,0.0,0.0,0.0,0.0,0.0,0.0,0.0,0.0,0.0,0.0,0.0,0.0,0.0,0.0,0.0,0.0,0.0,0.0,0.0,0.0,0.0,0.0,0.0,0.0,0.0,0.0,0.0,0.0,0.0,0.0,0.0,0.0,0.0,0.0,0.0,0.0,0.0,0.0,0.0,0.0,0.0,0.0,0.0,0.0,0.0,0.0,0.0,0.0,0.0,0.0,0.0,0.0,0.0,0.0,0.0,0.0,0.0,0.0,0.0,0.0,0.0,-0.4616,-0.5542,-0.5744,-0.6028,-0.6913,-0.7075,-0.7095,-0.7095,-0.7095,-0.7095,-0.7095,-0.7095,-0.7095,-0.7095,-0.7095,-0.7095,-0.7095,-0.7095,-0.7082,-0.7048,-0.6943,-0.6852,-0.682,-0.6593,-0.6443,-0.63,-0.63,-0.5747,-0.4688,-0.4688,-0.4139,-0.3046,-0.2035,-0.1607,-0.1528,-0.0471,0.0,0.0,0.0,0.0,0.0,0.0,0.0,0.0,0.0,0.0,0.0,0.0,0.0,0.0,0.0,0.0,0.0,0.0,0.0,0.0,0.0,0.0,0.0,0.0,0.0,0.0,0.0,0.0,0.0,0.0,0.0,0.0,0.0,0.0,0.0,0.0,0.0,0.0,0.0,0.0,0.0,0.0,0.0,0.0,0.0,0.0,0.0,0.0,0.0,0.0,0.0,0.0,0.0,0.0,0.0,0.0,0.0,0.0,0.0,0.0,0.0,0.0,0.0,0.0,0.0,0.0,0.0,0.0,0.0,0.0,0.0,0.0,0.0,0.0,0.0,0.0,0.0,0.0,-0.3337,-0.3542,-0.3794,-0.4463,-0.4599,-0.4774,-0.5398,-0.598,-0.6337,-0.6337,-0.6782,-0.7095,-0.7095,-0.7095,-0.7095,-0.7095,-0.7095,-0.7095,-0.7095,-0.7095,-0.7095,-0.7095,-0.7021,-0.6953,-0.6886,-0.6766,-0.6329,-0.5644,-0.5123,-0.4305,-0.3285,-0.3285,-0.2698,-0.1643,-0.1097,-0.0863,-0.0824,-0.0235,0.0,0.0,0.0,0.0,0.0,0.0,0.0,0.0,0.0,0.0,0.0,0.0,0.0,0.0,0.0,0.0,0.0,0.0,0.0,0.0,0.0,0.0,0.0,0.0,0.0,0.0,0.0,0.0,0.0,0.0,0.0,0.0,0.0,0.0,0.0,0.0,0.0,0.0,0.0,0.0,0.0,0.0,0.0,0.0,0.0,0.0,0.0,0.0,0.0,0.0,0.0,0.0,0.0,0.0,0.0,0.0,0.0,0.0,0.0,0.0,0.0,0.0,0.0,0.0,0.0,0.0,0.0,0.0,0.0,0.0,0.0,0.0,0.0,0.0,0.0,0.0,0.0,0.0,-0.2858,-0.3037,-0.3126,-0.3303,-0.3347,-0.3392,-0.357,-0.4463,-0.5134,-0.5134,-0.6115,-0.683,-0.683,-0.7007,-0.7095,-0.7095,-0.7095,-0.7095,-0.7095,-0.7095,-0.7095,-0.7095,-0.7095,-0.695,-0.6661,-0.646,-0.5771,-0.4639,-0.362,-0.2575,-0.1615,-0.1615,-0.1023,0.0,0.0,0.0,0.0,0.0,0.0,0.0,0.0,0.0,0.0,0.0,0.0,0.0,0.0,0.0,0.0,0.0,0.0,0.0,0.0,0.0,0.0,0.0,0.0,0.0,0.0,0.0,0.0,0.0,0.0,0.0,0.0,0.0,0.0,0.0,0.0,0.0,0.0,0.0,0.0,0.0,0.0,0.0,0.0,0.0,0.0,0.0,0.0,0.0,0.0,0.0,0.0,0.0,0.0,0.0,0.0,0.0,0.0,0.0,0.0,0.0,0.0,0.0,0.0,0.0,0.0,0.0,0.0,0.0,0.0,0.0,0.0,0.0,0.0,0.0,0.0,0.0,0.0,0.0,0.0,0.0,0.0,0.0,-0.0539,-0.0539,-0.0897,-0.1879,-0.2057,-0.2413,-0.3436,-0.3748,-0.3881,-0.3881,-0.491,-0.5669,-0.5669,-0.6517,-0.7095,-0.7095,-0.7095,-0.7095,-0.7095,-0.7095,-0.7095,-0.7095,-0.7095,-0.664,-0.5645,-0.4454,-0.3718,-0.3373,-0.3207,-0.2597,-0.1615,-0.1615,-0.104,0.0,0.0,0.0,0.0,0.0,0.0,0.0,0.0,0.0,0.0,0.0,0.0,0.0,0.0,0.0,0.0,0.0,0.0,0.0,0.0,0.0,0.0,0.0,0.0,0.0,0.0,0.0,0.0,0.0,0.0,0.0,0.0,0.0,0.0,0.0,0.0,0.0,0.0,0.0,0.0,0.0,0.0,0.0,0.0,0.0,0.0,0.0,0.0,0.0,0.0,0.0,0.0,0.0,0.0,0.0,0.0,0.0,0.0,0.0,0.0,0.0,0.0,0.0,0.0,0.0,0.0,0.0,0.0,0.0,0.0,0.0,0.0,0.0,0.0,0.0,0.0,0.0,0.0,0.0,0.0,0.0,0.0,0.0,0.0,0.0,-0.018,-0.0718,-0.0852,-0.1031,-0.1567,-0.2191,-0.2637,-0.2637,-0.366,-0.4419,-0.4419,-0.4907,-0.5218,-0.5218,-0.5218,-0.5218,-0.5218,-0.6378,-0.7095,-0.7095,-0.6517,-0.5622,-0.4463,-0.3142,-0.2442,-0.2388,-0.1751,-0.1184,-0.0745,-0.0745,-0.0494,0.0,0.0,0.0,0.0,0.0,0.0,0.0,0.0,0.0,0.0,0.0,0.0,0.0,0.0,0.0,0.0,0.0,0.0,0.0,0.0,0.0,0.0,0.0,0.0,0.0,0.0,0.0,0.0,0.0,0.0,0.0,0.0,0.0,0.0,0.0,0.0,0.0,0.0,0.0,0.0,0.0,0.0,0.0,0.0,0.0,0.0,0.0,0.0,0.0,0.0,0.0,0.0,0.0,0.0,0.0,0.0,0.0,0.0,0.0,0.0,0.0,0.0,0.0,0.0,0.0,0.0,0.0,0.0,0.0,0.0,0.0,0.0,0.0,0.0,0.0,0.0,0.0,0.0,0.0,0.0,0.0,0.0,0.0,0.0,0.0,0.0,0.0,0.0,0.0,0.0,-0.0807,-0.1389,-0.1389,-0.2413,-0.317,-0.317,-0.3436,-0.3614,-0.3614,-0.3614,-0.3614,-0.3614,-0.5307,-0.629,-0.629,-0.5179,-0.4152,-0.3215,-0.2013,-0.1377,-0.1399,-0.0438,0.0,0.0,0.0,0.0,0.0,0.0,0.0,0.0,0.0,0.0,0.0,0.0,0.0,0.0,0.0,0.0,0.0,0.0,0.0,0.0,0.0,0.0,0.0,0.0,0.0,0.0,0.0,0.0,0.0,0.0,0.0,0.0,0.0,0.0,0.0,0.0,0.0,0.0,0.0,0.0,0.0,0.0,0.0,0.0,0.0,0.0,0.0,0.0,0.0,0.0,0.0,0.0,0.0,0.0,0.0,0.0,0.0,0.0,0.0,0.0,0.0,0.0,0.0,0.0,0.0,0.0,0.0,0.0,0.0,0.0,0.0,0.0,0.0,0.0,0.0,0.0,0.0,0.0,0.0,0.0,0.0,0.0,0.0,0.0,0.0,0.0,0.0,0.0,0.0,0.0,0.0,0.0,0.0,0.0,-0.009,-0.0135,-0.0135,-0.1165,-0.1924,-0.1924,-0.2948,-0.3614,-0.3614,-0.3614,-0.3614,-0.3614,-0.3748,-0.3837,-0.3837,-0.2726,-0.2013,-0.1924,-0.0763,-0.0135,-0.0134,-0.0045,0.0,0.0,0.0,0.0,0.0,0.0,0.0,0.0,0.0,0.0,0.0,0.0,0.0,0.0,0.0,0.0,0.0,0.0,0.0,0.0,0.0,0.0,0.0,0.0,0.0,0.0,0.0,0.0,0.0,0.0,0.0,0.0,0.0,0.0,0.0,0.0,0.0,0.0,0.0,0.0,0.0,0.0,0.0,0.0,0.0,0.0,0.0,0.0,0.0,0.0,0.0,0.0,0.0,0.0,0.0,0.0,0.0,0.0,0.0,0.0,0.0,0.0,0.0,0.0,0.0,0.0,0.0,0.0,0.0,0.0,0.0,0.0,0.0,0.0,0.0,0.0,0.0,0.0,0.0,0.0,0.0,0.0,0.0,0.0,0.0,0.0,0.0,0.0,0.0,0.0,0.0,0.0,0.0,0.0,0.0,0.0,0.0,-0.0404,-0.0673,-0.0673,-0.1076,-0.1389,-0.1389,-0.1389,-0.1389,-0.1389,-0.2057,-0.2503,-0.2503,-0.2057,-0.1433,-0.0718,-0.0225,0.0,0.0,0.0,0.0,0.0,0.0,0.0,0.0,0.0,0.0,0.0,0.0,0.0,0.0,0.0,0.0,0.0,0.0,0.0,0.0,0.0,0.0,0.0,0.0,0.0,0.0,0.0,0.0,0.0,0.0,0.0,0.0,0.0,0.0,0.0,0.0,0.0,0.0,0.0,0.0,0.0,0.0,0.0,0.0,0.0,0.0,0.0,0.0,0.0,0.0,0.0,0.0,0.0,0.0,0.0,0.0,0.0,0.0,0.0,0.0,0.0,0.0,0.0,0.0,0.0,0.0,0.0,0.0,0.0,0.0,0.0,0.0,0.0,0.0,0.0,0.0,0.0,0.0,0.0,0.0,0.0,0.0,0.0,0.0,0.0,0.0,0.0,0.0,0.0,0.0,0.0,0.0,0.0,0.0,0.0,0.0,0.0,0.0,0.0,0.0,0.0,0.0,0.0,0.0,0.0,0.0,0.0,0.0,0.0,-0.0762,-0.1388,-0.179,-0.1433,-0.0852,0.0,0.0,0.0,0.0,0.0,0.0,0.0,0.0,0.0,0.0,0.0,0.0,0.0,0.0,0.0,0.0,0.0,0.0,0.0,0.0,0.0,0.0,0.0,0.0,0.0,0.0,0.0,0.0,0.0,0.0,0.0,0.0,0.0,0.0,0.0,0.0,0.0,0.0,0.0,0.0,0.0,0.0,0.0,0.0,0.0,0.0,0.0,0.0,0.0,0.0,0.0,0.0,0.0,0.0,0.0,0.0,0.0,0.0,0.0,0.0,0.0,0.0,0.0,0.0,0.0,0.0,0.0,0.0,0.0,0.0,0.0,0.0,0.0,0.0,0.0,0.0,0.0,0.0,0.0,0.0,0.0,0.0,0.0,0.0,0.0,0.0,0.0,0.0,0.0,0.0,0.0,0.0,0.0,0.0,0.0,0.0,0.0,0.0,0.0,0.0,0.0,0.0,0.0,0.0,0.0,0.0,0.0,0.0,0.0,0.0,0.0,0.0,-0.0539,-0.1746,-0.0628,0.0,0.0,0.0,0.0,0.0,0.0,0.0,0.0,0.0,0.0,0.0,0.0,0.0,0.0,0.0,0.0,0.0,0.0,0.0,0.0,0.0,0.0,0.0,0.0,0.0,0.0,0.0,0.0,0.0,0.0,0.0,0.0,0.0,0.0,0.0,0.0,0.0,0.0,0.0,0.0,0.0,0.0,0.0,0.0,0.0,0.0,0.0,0.0,0.0,0.0,0.0,0.0,0.0,0.0,0.0,0.0,0.0,0.0,0.0,0.0,0.0,0.0,0.0,0.0,0.0,0.0,0.0,0.0,0.0,0.0,0.0,0.0,0.0,0.0,0.0,0.0,0.0,0.0,0.0,0.0,0.0,0.0,0.0,0.0,0.0,0.0,0.0,0.0,0.0,0.0,0.0,0.0,0.0,-0.018,0.0,0.0,0.0,0.0,0.0,0.0,0.0,0.0,0.0,0.0,0.0,0.0,0.0,0.0,0.0,0.0,0.0,0.0,0.0,-0.018,-0.0539,-0.018,0.0,0.0,0.0,0.0,0.0,0.0,0.0,0.0,0.0,0.0,0.0,0.0,0.0,0.0,0.0,0.0,0.0,0.0,0.0,0.0,0.0,0.0,0.0,0.0,0.0,0.0,0.0,0.0,0.0,0.0,0.0,0.0,0.0,0.0,0.0,0.0,0.0,0.0,0.0,0.0,0.0,0.0,0.0,0.0,0.0,0.0,0.0,0.0,0.0,0.0,0.0,0.0,0.0,0.0,0.0,0.0,0.0,0.0,0.0,0.0,0.0,0.0,0.0,0.0,0.0,0.0,0.0,0.0,0.0,0.0,0.0,0.0,0.0,0.0,0.0,0.0,0.0,0.0,0.0,0.0,0.0,0.0,0.0,0.0,0.0,0.0,0.0,0.0,0.0,0.0,0.0,0.0,0.0,-0.0763,-0.0314,0.0,0.0,0.0,0.0,0.0,0.0,0.0,0.0,0.0,0.0,0.0,0.0,0.0,0.0,0.0,0.0,0.0,0.0,0.0,0.0,0.0,0.0,0.0,0.0,0.0,0.0,0.0,0.0,0.0,0.0,0.0,0.0,0.0,0.0,0.0,0.0,0.0,0.0,0.0,0.0,0.0,0.0,0.0,0.0,0.0,0.0,0.0,0.0,0.0,0.0,0.0,0.0,0.0,0.0,0.0,0.0,0.0,0.0,0.0,0.0,0.0,0.0,0.0,0.0,0.0,0.0,0.0,0.0,0.0,0.0,0.0,0.0,0.0,0.0,0.0,0.0,0.0,0.0,0.0,0.0,0.0,0.0,0.0,0.0,0.0,0.0,0.0,0.0,0.0,0.0,0.0,0.0,0.0,0.0,0.0,0.0,0.0,0.0,0.0,0.0,0.0,0.0,0.0,0.0,0.0,0.0,0.0,0.0,0.0,0.0,0.0,0.0,0.0,0.0,-0.1478,-0.0852,-0.0135,0.0,0.0,0.0,0.0,0.0,0.0,0.0,0.0,0.0,0.0,0.0,0.0,0.0,0.0,0.0,0.0,0.0,0.0,0.0,0.0,0.0,0.0,0.0,0.0,0.0,0.0,0.0,0.0,0.0,0.0,0.0,0.0,0.0,0.0,0.0,0.0,0.0,0.0,0.0,0.0,0.0,0.0,0.0,0.0,0.0,0.0,0.0,0.0,0.0,0.0,0.0,0.0,0.0,0.0,0.0,0.0,0.0,0.0,0.0,0.0,0.0,0.0,0.0,0.0,0.0,0.0,0.0,0.0,0.0,0.0,0.0,0.0,0.0,0.0,0.0,0.0,0.0,0.0,0.0,0.0,0.0,0.0,0.0,0.0,0.0,0.0,0.0,0.0,0.0,0.0,0.0,0.0,0.0,0.0,0.0,0.0,0.0,0.0,0.0,0.0,0.0,0.0,0.0,0.0,0.0,0.0,0.0,0.0,0.0,0.0,0.0,0.0,0.0,-0.0897,-0.0942,-0.1121,-0.018,0.0,0.0,0.0,0.0,0.0,0.0,0.0,0.0,0.0,0.0,0.0,0.0,0.0,0.0,0.0,0.0,0.0,0.0,0.0,0.0,0.0,0.0,0.0,0.0,0.0,0.0,0.0,0.0,0.0,0.0,0.0,0.0,0.0,0.0,0.0,0.0,0.0,0.0,0.0,0.0,0.0,0.0,0.0,0.0,0.0,0.0,0.0,0.0,0.0,0.0,0.0,0.0,0.0,0.0,0.0,0.0,0.0,0.0,0.0,0.0,0.0,0.0,0.0,0.0,0.0,0.0,0.0,0.0,0.0,0.0,0.0,0.0,0.0,0.0,0.0,0.0,0.0,0.0,0.0,0.0,0.0,0.0,0.0,0.0,0.0,0.0,0.0,0.0,0.0,0.0,0.0,0.0,0.0,0.0,0.0,0.0,0.0,0.0,0.0,0.0,0.0,0.0,0.0,0.0,0.0,0.0,0.0,0.0,0.0,0.0,0.0,0.0,-0.2818,-0.2148,-0.1612,-0.0986,-0.0404,0.0,0.0,0.0,0.0,0.0,0.0,0.0,0.0,0.0,0.0,0.0,0.0,0.0,0.0,0.0,0.0,0.0,0.0,0.0,0.0,0.0,0.0,0.0,0.0,0.0,0.0,0.0,0.0,0.0,0.0,0.0,0.0,0.0,0.0,0.0,0.0,0.0,0.0,0.0,0.0,0.0,0.0,0.0,0.0,0.0,0.0,0.0,0.0,0.0,0.0,0.0,0.0,0.0,0.0,0.0,0.0,0.0,0.0,0.0,0.0,0.0,0.0,0.0,0.0,0.0,0.0,0.0,0.0,0.0,0.0,0.0,0.0,0.0,0.0,0.0,0.0,0.0,0.0,0.0,0.0,0.0,0.0,0.0,0.0,0.0,0.0,0.0,0.0,0.0,0.0,0.0,0.0,0.0,0.0,0.0,0.0,0.0,0.0,0.0,0.0,0.0,0.0,0.0,0.0,0.0,0.0,0.0,0.0,0.0,0.0,0.0,-0.4954,-0.3484,-0.2057,-0.1835,-0.0807,0.0,0.0,0.0,0.0,0.0,0.0,0.0,0.0,0.0,0.0,0.0,0.0,0.0,0.0,0.0,0.0,0.0,0.0,0.0,0.0,0.0,0.0,0.0,0.0,0.0,0.0,0.0,0.0,0.0,0.0,0.0,0.0,0.0,0.0,0.0,0.0,0.0,0.0,0.0,0.0,0.0,0.0,0.0,0.0,0.0,0.0,0.0,0.0,0.0,0.0,0.0,0.0,0.0,0.0,0.0,0.0,0.0,0.0,0.0,0.0,0.0,0.0,0.0,0.0,0.0,0.0,0.0,0.0,0.0,0.0,0.0,0.0,0.0,0.0,0.0,0.0,0.0,0.0,0.0,0.0,0.0,0.0,0.0,0.0,0.0,0.0,0.0,0.0,0.0,0.0,0.0,0.0,0.0,0.0,0.0,0.0,0.0,0.0,0.0,0.0,0.0,0.0,0.0,0.0,0.0,0.0,0.0,0.0,0.0,0.0,0.0,-0.4194,-0.3571,-0.3037,-0.1969,-0.0807,0.0,0.0,0.0,0.0,0.0,0.0,0.0,0.0,0.0,0.0,0.0,0.0,0.0,0.0,0.0,0.0,0.0,0.0,0.0,0.0,0.0,0.0,0.0,0.0,0.0,0.0,0.0,0.0,0.0,0.0,0.0,0.0,0.0,0.0,0.0,0.0,0.0,0.0,0.0,0.0,0.0,0.0,0.0,0.0,0.0,0.0,0.0,0.0,0.0,0.0,0.0,0.0,0.0,0.0,0.0,0.0,0.0,0.0,0.0,0.0,0.0,0.0,0.0,0.0,0.0,0.0,0.0,0.0,0.0,0.0,0.0,0.0,0.0,0.0,0.0,0.0,0.0,0.0,0.0,0.0,0.0,0.0,0.0,0.0,0.0,0.0,0.0,0.0,0.0,0.0,0.0,0.0,0.0,0.0,0.0,0.0,0.0,0.0,0.0,0.0,0.0,0.0,0.0,0.0,0.0,0.0,0.0,0.0,0.0,0.0,0.0,-0.3927,-0.3614,-0.3213,-0.2013,-0.1344,-0.0762,-0.009,0.0,0.0,0.0,0.0,0.0,0.0,0.0,0.0,0.0,0.0,0.0,0.0,0.0,0.0,0.0,0.0,0.0,0.0,0.0,0.0,0.0,0.0,0.0,0.0,0.0,0.0,0.0,0.0,0.0,0.0,0.0,0.0,0.0,0.0,0.0,0.0,0.0,0.0,0.0,0.0,0.0,0.0,0.0,0.0,0.0,0.0,0.0,0.0,0.0,0.0,0.0,0.0,0.0,0.0,0.0,0.0,0.0,0.0,0.0,0.0,0.0,0.0,0.0,0.0,0.0,0.0,0.0,0.0,0.0,0.0,0.0,0.0,0.0,0.0,0.0,0.0,0.0,0.0,0.0,0.0,0.0,0.0,0.0,0.0,0.0,0.0,0.0,0.0,0.0,0.0,0.0,0.0,0.0,0.0,0.0,0.0,0.0,0.0,0.0,0.0,0.0,0.0,0.0,0.0,0.0,0.0,0.0,0.0,0.0]}]]